[[{"header":{"parameterUnit":"m.s-1","parameterCategory":1,"la1":31.0,"la2":29.5877,"lo1":-88.7671,"lo2":-86.6584,"dy":0.0162,"dx":0.0185,"nx":115,"ny":88,"refTime":"2023-07-10T06:00:00:Z","depth":0,"parameterNumber":2,"parameterNumberName":"U-component_of_WINDS"},"data":[0.0,0.0,0.0,0.0,0.0,0.0,0.0,0.0,0.0,0.0,0.0,0.0,0.0,0.0,0.0,0.0,0.0,0.0,0.0,0.0,0.0,0.0,0.0,0.0,0.0,0.0,0.0,0.0,0.0,0.0,0.0,0.0,0.0,0.0,0.0,0.0,0.0,0.0,0.0,0.0,0.0,0.0,0.0,0.0,0.0,0.0,0.0,0.0,0.0,0.0,0.0,0.0,0.0,0.0,0.0,0.0,0.0,0.0,0.0,0.0,0.0,0.0,0.0,0.0,0.0,0.0,0.0,0.0,0.0,0.0,0.0,0.0,0.0,0.0,0.0,0.0,0.0,0.0,0.0,0.0,0.0,0.0,0.0,0.0,0.0,0.0,0.0,0.0,0.0,0.0,0.0,0.0,0.0,0.0,0.0,0.0,0.0,0.0,0.0,0.0,0.0,0.0,0.0,0.0,0.0,0.0,0.0,0.0,0.0,0.0,0.0,0.0,0.0,0.0,0.0,0.0,0.0,0.0,0.0,0.0,0.0,0.0,0.0,0.0,0.0,0.0,0.0,0.0,0.0,0.0,0.0,0.0,0.0,0.0,0.0,0.0,0.0,0.0,0.0,0.0,0.0,0.0,0.0,0.0,0.0,0.0,0.0,0.0,0.0,0.0,0.0,0.0,0.0,0.0,0.0,0.0,0.0,0.0,0.0,0.0,0.0,0.0,0.0,0.0,0.0,0.0,0.0,0.0,0.0,0.0,0.0,0.0,0.0,0.0,0.0,0.0,0.0,0.0,0.0,0.0,0.0,0.0,0.0,0.0,0.0,0.0,0.0,0.0,0.0,0.0,0.0,0.0,0.0,0.0,0.0,0.0,0.0,0.0,0.0,0.0,0.0,0.0,0.0,0.0,0.0,0.0,0.0,0.0,0.0,0.0,0.0,0.0,0.0,0.0,0.0,0.0,0.0,0.0,0.0,0.0,0.0,0.0,0.0,0.0,0.0,0.0,0.0,0.0,0.0,0.0,0.0,0.0,0.0,0.0,0.0,0.0,0.0,0.0,0.0,0.0,0.0,0.0,0.0,0.0,0.0,0.0,0.0,0.0,0.0,0.0,0.0,0.0,0.0,0.0,0.0,0.0,0.0,0.0,0.0,0.0,0.0,0.0,0.0,0.0,0.0,0.0,0.0,0.0,0.0,0.0,0.0,0.0,0.0,0.0,0.0,0.0,0.0,0.0,0.0,0.0,0.0,0.0,0.0,0.0,0.0,0.0,0.0,0.0,0.0,0.0,0.0,0.0,0.0,0.0,0.0,0.0,0.0,0.0,0.0,0.0,0.0,0.0,0.0,0.0,0.0,0.0,0.0,0.0,0.0,0.0,0.0,0.0,0.0,0.0,0.0,0.0,0.0,0.0,0.0,0.0,0.0,0.0,0.0,0.0,0.0,0.0,0.0,0.0,0.0,0.0,0.0,0.0,0.0,0.0,0.0,0.0,0.0,0.0,0.0,0.0,0.0,0.0,0.0,0.0,0.0,0.0,0.0,0.0,0.0,0.0,0.0,0.0,0.0,0.0,0.0,0.0,0.0,0.0,0.0,0.0,0.0,0.0,0.0,0.0,0.0,0.0,0.0,0.0,0.0,0.0,0.0,0.0,0.0,0.0,0.0,0.0,0.0,0.0,0.0,0.0,0.0,0.0,0.0,0.0,0.0,0.0,0.0,0.0,0.0,0.0,0.0,0.0,0.0,0.0,0.0,0.0,0.0,0.0,0.0,0.0,0.0,0.0,0.0,0.0,0.0,0.0,0.0,0.0,0.0,0.0,0.0,0.0,0.0,0.0,0.0,0.0,0.0,0.0,0.0,0.0,0.0,0.0,0.0,0.0,0.0,0.0,0.0,0.0,0.0,0.0,0.0,0.0,0.0,0.0,0.0,0.0,0.0,0.0,0.0,0.0,0.0,0.0,0.0,0.0,0.0,0.0,0.0,0.0,0.0,0.0,0.0,0.0,0.0,0.0,0.0,0.0,0.0,0.0,0.0,0.0,0.0,0.0,0.0,0.0,0.0,0.0,0.0,0.0,0.0,0.0,0.0,0.0,0.0,0.0,0.0,0.0,0.0,0.0,0.0,0.0,0.0,0.0,0.0,0.0,0.0,0.0,0.0,0.0,0.0,0.0,0.0,0.0,0.0,0.0,0.0,0.0,0.0,0.0,0.0,0.0,0.0,0.0,0.0,0.0,0.0,0.0,0.0,0.0,0.0,0.0,0.0,0.0,0.0,0.0,0.0,0.0,0.0,0.0,0.0,0.0,0.0,0.0,0.0,0.0,0.0,0.0,0.0,0.0,0.0,0.0,0.0,0.0,0.0,0.0,0.0,0.0,0.0,0.0,0.0,0.0,0.0,0.0,0.0,0.0,0.0,0.0,0.0,0.0,0.0,0.0,0.0,0.0,0.0,0.0,0.0,0.0,0.0,0.0,0.0,0.0,0.0,0.0,0.0,0.0,0.0,0.0,0.0,0.0,0.0,0.0,0.0,0.0,0.0,0.0,0.0,0.0,0.0,0.0,0.0,0.0,0.0,0.0,0.0,0.0,0.0,0.0,0.0,0.0,0.0,0.0,0.0,0.0,0.0,0.0,0.0,0.0,0.0,0.0,0.0,0.0,0.0,0.0,0.0,0.0,0.0,0.0,0.0,0.0,0.0,0.0,0.0,0.0,0.0,0.0,0.0,0.0,0.0,0.0,0.0,0.0,0.0,0.0,0.0,0.0,0.0,0.0,0.0,0.0,0.0,0.0,0.0,0.0,0.0,0.0,0.0,0.0,0.0,0.0,0.0,0.0,0.0,0.0,0.0,0.0,0.0,0.0,0.0,0.0,0.0,0.0,0.0,0.0,0.0,0.0,0.0,0.0,0.0,0.0,0.0,0.0,0.0,0.0,0.0,0.0,0.0,0.0,0.0,0.0,0.0,0.0,0.0,0.0,0.0,0.0,0.0,0.0,0.0,0.0,0.0,0.0,0.0,0.0,0.0,0.0,0.0,0.0,0.0,0.0,0.0,0.0,0.0,0.0,0.0,0.0,0.0,0.0,0.0,0.0,0.0,0.0,0.0,0.0,0.0,0.0,0.0,0.0,0.0,0.0,0.0,0.0,0.0,0.0,0.0,0.0,0.0,0.0,0.0,0.0,0.0,0.0,0.0,0.0,0.0,0.0,0.0,0.0,0.0,0.0,0.0,0.0,0.0,0.0,0.0,0.0,0.0,0.0,0.0,0.0,0.0,0.0,0.0,0.0,0.0,0.0,0.0,0.0,0.0,0.0,0.0,0.0,0.0,0.0,0.0,0.0,0.0,0.0,0.0,0.0,0.0,0.0,0.0,0.0,0.0,0.0,0.0,0.0,0.0,0.0,0.0,0.0,0.0,0.0,0.0,0.0,0.0,0.0,0.0,0.0,0.0,0.0,0.0,0.0,0.0,0.0,0.0,0.0,0.0,0.0,0.0,0.0,0.0,0.0,0.0,0.0,0.0,0.0,0.0,0.0,0.0,0.0,0.0,0.0,0.0,0.0,0.0,0.0,0.0,0.0,0.0,0.0,0.0,0.0,0.0,0.0,0.0,0.0,0.0,0.0,0.0,0.0,0.0,0.0,0.0,0.0,0.0,0.0,0.0,0.0,0.0,0.0,0.0,0.0,0.0,0.0,0.0,0.0,0.0,0.0,0.0,0.0,0.0,0.0,0.0,0.0,0.0,0.0,0.0,0.0,0.0,0.0,0.0,0.0,0.0,0.0,0.0,0.0,0.0,0.0,0.0,0.0,0.0,0.0,0.0,0.0,0.0,0.0,0.0,0.0,0.0,0.0,0.0,0.0,0.0,0.0,0.0,0.0,0.0,0.0,0.0,0.0,0.0,0.0,0.0,0.0,0.0,0.0,0.0,0.0,0.0,0.0,0.0,0.0,0.0,0.0,0.0,0.0,0.0,0.0,0.0,0.0,0.0,0.0,0.0,0.0,0.0,0.0,0.0,0.0,0.0,0.0,0.0,0.0,0.0,0.0,0.0,0.0,0.0,0.0,0.0,0.0,0.0,0.0,0.0,0.0,0.0,0.0,0.0,0.0,0.0,0.0,0.0,0.0,0.0,0.0,0.0,0.0,0.0,0.0,0.0,0.0,0.0,0.0,0.0,0.0,0.0,0.0,0.0,0.0,0.0,0.0,0.0,0.0,0.0,0.0,0.0,0.0,0.0,0.0,0.0,0.0,0.0,0.0,0.0,0.0,0.0,0.0,-1.2026,0.0,0.0,0.0,0.0,0.0,0.0,0.0,0.0,0.0,0.0,0.0,0.0,0.0,0.0,0.0,0.0,0.0,0.0,0.0,0.0,0.0,0.0,0.0,0.0,0.0,0.0,0.0,0.0,0.0,0.0,0.0,0.0,0.0,0.0,0.0,0.0,0.0,0.0,0.0,0.0,0.0,0.0,0.0,0.0,0.0,0.0,0.0,0.0,0.0,0.0,0.0,0.0,0.0,0.0,0.0,0.0,0.0,0.0,0.0,0.0,0.0,0.0,0.0,0.0,0.0,0.0,0.0,0.0,0.0,0.0,0.0,0.0,0.0,0.0,0.0,0.0,0.0,0.0,0.0,0.0,0.0,0.0,0.0,0.0,0.0,0.0,0.0,0.0,0.0,0.0,0.0,0.0,0.0,0.0,0.0,0.0,0.0,0.0,0.0,0.0,0.0,0.0,0.0,0.0,0.0,0.0,0.0,0.0,0.0,0.0,-1.1721,-1.1579,-1.1435,-1.1563,-1.2077,0.0,0.0,0.0,0.0,0.0,0.0,0.0,0.0,0.0,0.0,0.0,0.0,0.0,0.0,0.0,0.0,0.0,0.0,0.0,0.0,0.0,0.0,0.0,0.0,0.0,0.0,0.0,0.0,0.0,0.0,0.0,0.0,0.0,0.0,0.0,0.0,0.0,0.0,0.0,0.0,0.0,0.0,0.0,0.0,0.0,0.0,0.0,0.0,0.0,0.0,0.0,0.0,0.0,0.0,0.0,0.0,0.0,0.0,0.0,0.0,0.0,0.0,0.0,0.0,0.0,0.0,0.0,0.0,0.0,0.0,0.0,0.0,0.0,0.0,0.0,0.0,0.0,0.0,0.0,0.0,0.0,0.0,0.0,0.0,0.0,0.0,0.0,0.0,0.0,0.0,0.0,0.0,0.0,0.0,0.0,0.0,0.0,0.0,0.0,0.0,0.0,0.0,0.0,0.0,0.0,0.0,0.0,0.0,0.0,0.0,0.0,0.0,-1.1456,-1.1482,-1.1702,0.0,0.0,0.0,0.0,0.0,0.0,0.0,0.0,0.0,0.0,0.0,0.0,0.0,0.0,0.0,0.0,0.0,0.0,0.0,0.0,0.0,0.0,0.0,0.0,0.0,0.0,0.0,0.0,0.0,0.0,0.0,0.0,0.0,0.0,0.0,0.0,0.0,0.0,0.0,0.0,0.0,0.0,0.0,0.0,0.0,0.0,0.0,0.0,0.0,0.0,0.0,0.0,0.0,0.0,0.0,0.0,0.0,0.0,0.0,0.0,0.0,0.0,0.0,0.0,0.0,0.0,0.0,0.0,0.0,0.0,0.0,0.0,0.0,0.0,0.0,0.0,0.0,0.0,0.0,0.0,0.0,0.0,0.0,0.0,0.0,0.0,0.0,0.0,0.0,0.0,0.0,0.0,0.0,0.0,0.0,0.0,0.0,0.0,0.0,0.0,0.0,0.0,0.0,0.0,0.0,0.0,0.0,0.0,0.0,0.0,-1.1896,-1.1675,-1.1904,0.0,-1.1313,0.0,0.0,0.0,0.0,0.0,0.0,0.0,0.0,0.0,0.0,0.0,0.0,0.0,0.0,0.0,0.0,0.0,0.0,0.0,0.0,0.0,0.0,0.0,0.0,0.0,0.0,0.0,0.0,0.0,0.0,0.0,0.0,0.0,0.0,0.0,0.0,0.0,0.0,0.0,0.0,0.0,0.0,0.0,0.0,0.0,0.0,0.0,0.0,0.0,0.0,0.0,0.0,0.0,0.0,0.0,0.0,0.0,0.0,0.0,0.0,0.0,0.0,0.0,0.0,0.0,0.0,0.0,0.0,0.0,0.0,0.0,0.0,0.0,0.0,0.0,0.0,0.0,0.0,0.0,0.0,0.0,0.0,0.0,0.0,0.0,0.0,0.0,0.0,0.0,0.0,0.0,0.0,0.0,0.0,0.0,0.0,0.0,0.0,0.0,0.0,0.0,0.0,0.0,0.0,0.0,0.0,0.0,0.0,0.0,0.0,-1.1953,-1.1192,-1.1849,-1.1841,0.0,0.0,0.0,0.0,0.0,0.0,0.0,0.0,0.0,0.0,0.0,0.0,0.0,0.0,0.0,0.0,0.0,0.0,0.0,0.0,0.0,0.0,0.0,0.0,0.0,0.0,0.0,0.0,0.0,0.0,0.0,0.0,0.0,0.0,0.0,0.0,0.0,0.0,0.0,0.0,0.0,0.0,0.0,0.0,0.0,0.0,0.0,0.0,0.0,0.0,0.0,0.0,0.0,0.0,0.0,0.0,0.0,0.0,0.0,0.0,0.0,0.0,0.0,0.0,0.0,0.0,0.0,0.0,0.0,0.0,0.0,0.0,0.0,0.0,0.0,0.0,0.0,0.0,0.0,0.0,0.0,0.0,0.0,0.0,0.0,0.0,0.0,0.0,0.0,0.0,0.0,0.0,0.0,0.0,0.0,0.0,0.0,0.0,0.0,0.0,0.0,0.0,0.0,0.0,0.0,0.0,0.0,0.0,0.0,0.0,-1.1815,-1.1916,-1.1282,-1.1878,-1.1945,-1.1362,0.0,0.0,0.0,0.0,0.0,0.0,0.0,0.0,0.0,0.0,0.0,0.0,0.0,0.0,0.0,0.0,0.0,0.0,0.0,0.0,0.0,0.0,0.0,0.0,0.0,0.0,0.0,0.0,0.0,0.0,0.0,0.0,0.0,0.0,0.0,0.0,0.0,0.0,0.0,0.0,0.0,0.0,0.0,0.0,0.0,0.0,0.0,0.0,0.0,0.0,0.0,0.0,0.0,0.0,0.0,0.0,0.0,0.0,0.0,0.0,0.0,0.0,0.0,0.0,0.0,0.0,0.0,0.0,0.0,0.0,0.0,0.0,0.0,0.0,0.0,0.0,0.0,0.0,0.0,0.0,0.0,0.0,0.0,0.0,0.0,0.0,0.0,0.0,0.0,0.0,0.0,0.0,0.0,0.0,0.0,0.0,0.0,0.0,0.0,0.0,0.0,0.0,0.0,0.0,0.0,0.0,0.0,0.0,-1.2371,-1.1871,-1.1727,-1.2117,-1.2154,-1.2035,0.0,0.0,0.0,0.0,0.0,0.0,0.0,0.0,0.0,0.0,0.0,0.0,0.0,0.0,0.0,0.0,0.0,0.0,0.0,0.0,0.0,0.0,0.0,0.0,0.0,0.0,0.0,0.0,0.0,0.0,0.0,0.0,0.0,0.0,0.0,0.0,0.0,0.0,0.0,0.0,0.0,0.0,0.0,0.0,0.0,0.0,0.0,0.0,0.0,0.0,0.0,0.0,0.0,0.0,0.0,0.0,0.0,0.0,0.0,0.0,0.0,0.0,0.0,0.0,0.0,0.0,0.0,0.0,0.0,0.0,0.0,0.0,0.0,0.0,0.0,0.0,0.0,0.0,0.0,0.0,0.0,0.0,0.0,0.0,0.0,0.0,0.0,0.0,0.0,0.0,0.0,0.0,0.0,0.0,0.0,0.0,0.0,0.0,0.0,0.0,0.0,0.0,0.0,0.0,0.0,0.0,0.0,0.0,0.0,-1.1496,-1.126,-1.1659,-1.2634,-1.2099,-1.1805,0.0,0.0,0.0,0.0,0.0,0.0,0.0,0.0,0.0,0.0,0.0,0.0,0.0,0.0,0.0,0.0,0.0,0.0,0.0,0.0,0.0,0.0,0.0,0.0,0.0,0.0,0.0,0.0,0.0,0.0,0.0,0.0,0.0,0.0,0.0,0.0,0.0,0.0,0.0,0.0,0.0,0.0,0.0,0.0,0.0,0.0,0.0,0.0,0.0,0.0,0.0,0.0,0.0,0.0,0.0,0.0,0.0,0.0,0.0,0.0,0.0,0.0,0.0,0.0,0.0,0.0,0.0,0.0,0.0,0.0,0.0,0.0,0.0,0.0,0.0,0.0,0.0,0.0,0.0,0.0,0.0,0.0,0.0,0.0,0.0,0.0,0.0,0.0,0.0,0.0,0.0,0.0,0.0,0.0,0.0,0.0,0.0,0.0,0.0,0.0,0.0,0.0,0.0,0.0,0.0,0.0,0.0,0.0,0.0,-1.1062,0.0,-1.1922,-1.2589,-1.2193,-1.1809,0.0,0.0,0.0,0.0,0.0,0.0,0.0,0.0,0.0,0.0,0.0,0.0,0.0,0.0,0.0,0.0,0.0,0.0,0.0,0.0,0.0,0.0,0.0,0.0,0.0,0.0,0.0,0.0,0.0,0.0,0.0,0.0,0.0,0.0,0.0,0.0,0.0,0.0,0.0,0.0,0.0,0.0,0.0,0.0,0.0,0.0,0.0,0.0,0.0,0.0,0.0,0.0,0.0,0.0,0.0,0.0,0.0,0.0,0.0,0.0,0.0,0.0,0.0,0.0,0.0,0.0,0.0,0.0,0.0,0.0,0.0,0.0,0.0,0.0,0.0,0.0,0.0,0.0,0.0,0.0,0.0,0.0,0.0,0.0,0.0,0.0,0.0,0.0,0.0,0.0,0.0,0.0,0.0,0.0,0.0,0.0,0.0,0.0,0.0,0.0,0.0,0.0,0.0,0.0,0.0,0.0,0.0,0.0,-1.1149,-1.1327,-1.2373,-1.2601,-1.206,-1.2221,-1.2238,0.0,0.0,0.0,0.0,0.0,0.0,0.0,0.0,0.0,0.0,0.0,0.0,0.0,0.0,0.0,0.0,0.0,0.0,0.0,0.0,0.0,0.0,0.0,0.0,0.0,0.0,0.0,0.0,0.0,0.0,0.0,0.0,0.0,0.0,0.0,0.0,0.0,0.0,0.0,0.0,0.0,0.0,0.0,0.0,0.0,0.0,0.0,0.0,0.0,0.0,0.0,0.0,0.0,0.0,0.0,0.0,0.0,0.0,0.0,0.0,0.0,0.0,0.0,0.0,0.0,0.0,0.0,0.0,0.0,0.0,0.0,0.0,0.0,0.0,0.0,0.0,0.0,0.0,0.0,0.0,0.0,0.0,0.0,0.0,0.0,0.0,0.0,0.0,0.0,0.0,0.0,0.0,0.0,0.0,0.0,0.0,0.0,0.0,0.0,0.0,0.0,0.0,0.0,0.0,0.0,0.0,0.0,0.0,0.0,-1.1292,-1.1645,-1.1914,-1.216,-1.2103,-1.2126,0.0,0.0,0.0,0.0,0.0,0.0,0.0,0.0,0.0,0.0,0.0,0.0,0.0,0.0,0.0,0.0,0.0,0.0,0.0,0.0,0.0,0.0,0.0,0.0,0.0,0.0,0.0,0.0,0.0,0.0,0.0,0.0,0.0,0.0,0.0,0.0,0.0,0.0,0.0,0.0,0.0,0.0,0.0,0.0,0.0,0.0,0.0,0.0,0.0,0.0,0.0,0.0,0.0,0.0,0.0,0.0,0.0,0.0,0.0,0.0,0.0,0.0,0.0,0.0,0.0,0.0,0.0,0.0,0.0,0.0,0.0,0.0,0.0,0.0,0.0,0.0,0.0,0.0,0.0,0.0,0.0,0.0,0.0,0.0,0.0,0.0,0.0,0.0,0.0,0.0,0.0,0.0,0.0,0.0,0.0,0.0,0.0,0.0,0.0,0.0,0.0,0.0,0.0,0.0,0.0,0.0,0.0,0.0,0.0,-1.1241,-1.1352,-1.1632,-1.2047,-1.2224,-1.2188,-1.2194,0.0,0.0,0.0,0.0,0.0,0.0,0.0,0.0,0.0,0.0,0.0,0.0,0.0,0.0,0.0,0.0,0.0,0.0,0.0,0.0,0.0,0.0,0.0,0.0,0.0,0.0,0.0,0.0,0.0,0.0,0.0,0.0,0.0,0.0,0.0,0.0,0.0,0.0,0.0,0.0,0.0,0.0,0.0,0.0,0.0,0.0,0.0,0.0,0.0,0.0,0.0,0.0,0.0,0.0,0.0,0.0,0.0,0.0,0.0,0.0,0.0,0.0,0.0,0.0,0.0,0.0,0.0,0.0,0.0,0.0,0.0,0.0,0.0,0.0,0.0,0.0,0.0,0.0,0.0,0.0,0.0,0.0,0.0,0.0,0.0,0.0,0.0,0.0,0.0,0.0,0.0,0.0,0.0,0.0,0.0,0.0,0.0,0.0,0.0,0.0,0.0,0.0,0.0,0.0,0.0,0.0,0.0,0.0,-1.1227,-1.1522,-1.1731,-1.1973,-1.2443,-1.2512,0.0,0.0,0.0,0.0,0.0,0.0,0.0,0.0,0.0,0.0,0.0,0.0,0.0,0.0,0.0,0.0,0.0,0.0,0.0,0.0,0.0,0.0,0.0,0.0,0.0,0.0,0.0,0.0,0.0,0.0,0.0,0.0,0.0,0.0,0.0,0.0,0.0,0.0,0.0,0.0,0.0,0.0,0.0,0.0,0.0,0.0,0.0,0.0,0.0,0.0,0.0,0.0,0.0,0.0,0.0,0.0,0.0,0.0,0.0,0.0,0.0,0.0,0.0,0.0,0.0,0.0,0.0,0.0,0.0,0.0,0.0,0.0,0.0,0.0,0.0,0.0,0.0,0.0,0.0,0.0,0.0,0.0,0.0,0.0,0.0,0.0,0.0,0.0,0.0,0.0,0.0,0.0,0.0,0.0,0.0,0.0,0.0,0.0,0.0,0.0,0.0,0.0,0.0,0.0,0.0,0.0,0.0,0.0,0.0,-1.2141,-1.2151,-1.2288,-1.2548,-1.29,-1.2925,0.0,0.0,0.0,0.0,0.0,0.0,0.0,0.0,0.0,0.0,0.0,0.0,0.0,0.0,0.0,0.0,0.0,0.0,0.0,0.0,0.0,0.0,0.0,0.0,0.0,0.0,0.0,0.0,0.0,0.0,0.0,0.0,0.0,0.0,0.0,0.0,0.0,0.0,0.0,0.0,0.0,0.0,0.0,0.0,0.0,0.0,0.0,0.0,0.0,0.0,0.0,0.0,0.0,0.0,0.0,0.0,0.0,0.0,0.0,0.0,0.0,0.0,0.0,0.0,0.0,0.0,0.0,0.0,0.0,0.0,0.0,0.0,0.0,0.0,0.0,0.0,0.0,0.0,0.0,0.0,0.0,0.0,0.0,0.0,0.0,0.0,0.0,0.0,0.0,0.0,0.0,0.0,0.0,0.0,0.0,0.0,0.0,0.0,0.0,0.0,0.0,0.0,0.0,0.0,0.0,0.0,0.0,0.0,-1.2254,-1.2921,-1.2995,-1.3336,-1.3878,-1.3605,-1.3264,0.0,0.0,0.0,0.0,0.0,0.0,0.0,0.0,0.0,0.0,0.0,0.0,0.0,0.0,0.0,0.0,0.0,0.0,0.0,0.0,0.0,0.0,0.0,0.0,0.0,0.0,0.0,0.0,0.0,0.0,0.0,0.0,0.0,0.0,0.0,0.0,0.0,0.0,0.0,0.0,0.0,0.0,0.0,0.0,0.0,0.0,0.0,0.0,0.0,0.0,0.0,0.0,0.0,0.0,0.0,0.0,0.0,0.0,0.0,0.0,0.0,0.0,0.0,0.0,0.0,0.0,0.0,0.0,0.0,0.0,0.0,0.0,0.0,0.0,0.0,0.0,0.0,0.0,0.0,0.0,0.0,0.0,0.0,0.0,0.0,0.0,0.0,0.0,0.0,0.0,0.0,0.0,0.0,0.0,0.0,0.0,0.0,0.0,0.0,0.0,0.0,0.0,0.0,0.0,0.0,0.0,0.0,0.0,-1.285,-1.3454,-1.3993,-1.4528,-1.5431,-1.448,-1.3552,0.0,0.0,0.0,0.0,0.0,0.0,0.0,0.0,0.0,0.0,0.0,0.0,0.0,0.0,0.0,0.0,0.0,0.0,0.0,0.0,0.0,0.0,0.0,0.0,0.0,0.0,0.0,0.0,0.0,0.0,0.0,0.0,0.0,0.0,0.0,0.0,0.0,0.0,0.0,0.0,0.0,0.0,0.0,0.0,0.0,0.0,0.0,0.0,0.0,0.0,0.0,0.0,0.0,0.0,0.0,0.0,0.0,0.0,0.0,0.0,0.0,0.0,0.0,0.0,0.0,0.0,0.0,0.0,0.0,0.0,0.0,0.0,0.0,0.0,0.0,0.0,0.0,0.0,0.0,0.0,0.0,0.0,0.0,0.0,0.0,0.0,0.0,0.0,0.0,0.0,0.0,0.0,0.0,0.0,0.0,0.0,0.0,0.0,0.0,0.0,0.0,0.0,0.0,0.0,0.0,0.0,0.0,0.0,-1.3091,-1.3889,-1.4447,-1.5125,-1.557,-1.4971,-1.4478,0.0,0.0,0.0,0.0,0.0,0.0,0.0,0.0,0.0,0.0,0.0,0.0,0.0,0.0,0.0,0.0,0.0,0.0,0.0,0.0,0.0,0.0,0.0,0.0,0.0,0.0,0.0,0.0,0.0,0.0,0.0,0.0,0.0,0.0,0.0,0.0,0.0,0.0,0.0,0.0,0.0,0.0,0.0,0.0,0.0,0.0,0.0,0.0,-1.4949,0.0,0.0,0.0,0.0,0.0,0.0,0.0,0.0,0.0,0.0,0.0,0.0,0.0,0.0,0.0,0.0,0.0,0.0,0.0,0.0,0.0,0.0,0.0,0.0,0.0,0.0,0.0,0.0,0.0,0.0,0.0,0.0,0.0,0.0,0.0,0.0,0.0,0.0,0.0,0.0,0.0,0.0,0.0,0.0,0.0,0.0,0.0,0.0,0.0,0.0,0.0,0.0,0.0,0.0,0.0,0.0,0.0,0.0,0.0,-1.3593,-1.4272,-1.4867,-1.5546,-1.6162,-1.5679,-1.5011,0.0,0.0,0.0,0.0,0.0,0.0,0.0,0.0,0.0,0.0,0.0,0.0,0.0,0.0,0.0,0.0,0.0,0.0,0.0,0.0,0.0,0.0,0.0,0.0,0.0,0.0,0.0,0.0,0.0,0.0,0.0,0.0,0.0,0.0,0.0,0.0,0.0,0.0,0.0,0.0,0.0,0.0,0.0,0.0,0.0,0.0,0.0,0.0,0.0,0.0,0.0,0.0,0.0,0.0,0.0,0.0,0.0,0.0,0.0,0.0,0.0,0.0,0.0,0.0,0.0,0.0,0.0,0.0,0.0,0.0,0.0,0.0,0.0,0.0,0.0,0.0,0.0,0.0,0.0,0.0,0.0,0.0,0.0,0.0,0.0,0.0,0.0,0.0,0.0,0.0,0.0,0.0,0.0,0.0,0.0,0.0,0.0,0.0,0.0,0.0,0.0,0.0,0.0,0.0,0.0,0.0,0.0,-1.329,-1.4105,-1.4792,-1.5225,-1.5908,-1.6849,-1.6327,-1.5585,-1.4688,0.0,0.0,0.0,0.0,0.0,0.0,0.0,0.0,0.0,0.0,0.0,0.0,0.0,0.0,0.0,0.0,0.0,0.0,0.0,0.0,0.0,0.0,0.0,0.0,0.0,0.0,0.0,0.0,0.0,0.0,0.0,0.0,0.0,0.0,0.0,0.0,0.0,0.0,-1.4589,-1.4049,0.0,0.0,0.0,0.0,0.0,0.0,0.0,0.0,-1.4448,0.0,0.0,0.0,0.0,0.0,0.0,0.0,0.0,0.0,0.0,0.0,0.0,0.0,0.0,0.0,0.0,0.0,0.0,0.0,0.0,0.0,0.0,0.0,0.0,0.0,0.0,0.0,0.0,0.0,0.0,0.0,0.0,0.0,0.0,0.0,0.0,0.0,0.0,0.0,0.0,0.0,0.0,0.0,0.0,0.0,0.0,0.0,0.0,0.0,0.0,0.0,0.0,0.0,0.0,0.0,0.0,-1.2974,-1.3286,-1.3894,-1.5032,-1.5503,-1.6055,-1.6685,-1.6748,-1.6395,-1.5473,0.0,0.0,0.0,0.0,0.0,0.0,0.0,0.0,0.0,0.0,0.0,0.0,0.0,0.0,0.0,0.0,0.0,0.0,0.0,0.0,0.0,0.0,0.0,0.0,0.0,0.0,0.0,0.0,0.0,0.0,0.0,0.0,0.0,0.0,0.0,0.0,0.0,0.0,0.0,-1.4502,-1.4501,0.0,0.0,0.0,0.0,0.0,0.0,0.0,0.0,-1.3586,0.0,0.0,0.0,0.0,0.0,0.0,0.0,0.0,0.0,0.0,0.0,0.0,0.0,0.0,0.0,0.0,0.0,0.0,0.0,0.0,0.0,0.0,0.0,0.0,0.0,0.0,0.0,0.0,0.0,0.0,0.0,0.0,0.0,0.0,0.0,0.0,0.0,0.0,0.0,0.0,0.0,0.0,0.0,0.0,0.0,0.0,0.0,0.0,0.0,0.0,0.0,0.0,0.0,0.0,0.0,-1.2893,-1.3474,-1.3957,-1.4609,-1.5276,-1.5824,-1.633,-1.6085,-1.5946,0.0,0.0,0.0,0.0,0.0,0.0,0.0,0.0,0.0,0.0,0.0,0.0,0.0,0.0,0.0,0.0,0.0,0.0,0.0,0.0,0.0,0.0,0.0,0.0,0.0,0.0,0.0,0.0,0.0,0.0,0.0,0.0,0.0,0.0,0.0,0.0,0.0,0.0,0.0,0.0,-1.3742,-1.3566,-1.4001,0.0,0.0,0.0,0.0,0.0,0.0,-1.3104,-1.2949,0.0,0.0,0.0,0.0,0.0,0.0,0.0,0.0,0.0,0.0,0.0,0.0,0.0,0.0,0.0,0.0,0.0,0.0,0.0,0.0,0.0,0.0,0.0,0.0,0.0,0.0,0.0,0.0,0.0,0.0,0.0,0.0,0.0,0.0,0.0,0.0,0.0,0.0,0.0,0.0,0.0,0.0,0.0,0.0,0.0,0.0,0.0,0.0,0.0,0.0,0.0,0.0,0.0,0.0,0.0,-1.2777,-1.3445,-1.3778,-1.3894,-1.471,-1.5375,-1.5856,-1.5455,-1.5489,0.0,0.0,0.0,0.0,0.0,0.0,0.0,0.0,0.0,0.0,0.0,0.0,0.0,0.0,0.0,0.0,0.0,0.0,0.0,0.0,0.0,0.0,0.0,0.0,0.0,0.0,0.0,0.0,0.0,0.0,0.0,0.0,0.0,0.0,0.0,0.0,0.0,0.0,0.0,0.0,0.0,-1.2639,-1.3305,-1.2778,0.0,0.0,0.0,0.0,-1.3164,-1.2883,0.0,0.0,0.0,0.0,0.0,0.0,0.0,0.0,0.0,0.0,0.0,0.0,0.0,0.0,0.0,0.0,0.0,0.0,0.0,0.0,0.0,0.0,0.0,0.0,0.0,0.0,0.0,0.0,0.0,0.0,0.0,0.0,0.0,0.0,0.0,0.0,0.0,0.0,0.0,0.0,0.0,0.0,0.0,0.0,0.0,0.0,0.0,0.0,0.0,0.0,0.0,0.0,0.0,0.0,0.0,0.0,-1.2905,-1.2617,-1.2702,-1.3195,-1.3997,-1.4558,-1.4988,-1.5853,-1.5952,0.0,0.0,0.0,0.0,0.0,0.0,0.0,0.0,0.0,0.0,0.0,0.0,0.0,0.0,0.0,0.0,0.0,0.0,0.0,0.0,0.0,0.0,0.0,0.0,0.0,0.0,0.0,0.0,0.0,0.0,0.0,0.0,0.0,0.0,0.0,0.0,0.0,0.0,0.0,0.0,0.0,-1.272,-1.2819,-1.2496,-1.2128,0.0,0.0,-1.2919,-1.2646,-1.3037,0.0,0.0,0.0,0.0,0.0,0.0,0.0,0.0,0.0,0.0,0.0,0.0,0.0,0.0,0.0,0.0,0.0,0.0,0.0,0.0,0.0,0.0,0.0,0.0,0.0,0.0,0.0,0.0,0.0,0.0,0.0,0.0,0.0,0.0,0.0,0.0,0.0,0.0,0.0,0.0,0.0,0.0,0.0,0.0,0.0,0.0,0.0,0.0,0.0,0.0,0.0,0.0,0.0,0.0,0.0,-1.2694,-1.2402,-1.2398,-1.2452,-1.2508,-1.3206,-1.39,-1.4578,-1.4666,-1.495,0.0,0.0,0.0,0.0,0.0,0.0,0.0,0.0,0.0,0.0,0.0,0.0,0.0,0.0,0.0,0.0,0.0,0.0,0.0,0.0,0.0,0.0,0.0,0.0,0.0,0.0,0.0,0.0,0.0,0.0,0.0,0.0,0.0,0.0,0.0,0.0,0.0,0.0,0.0,0.0,0.0,0.0,-1.0943,-1.1392,0.0,0.0,0.0,-1.3034,-1.3154,0.0,0.0,0.0,0.0,0.0,0.0,0.0,0.0,0.0,0.0,0.0,0.0,0.0,0.0,0.0,0.0,0.0,0.0,0.0,0.0,0.0,0.0,0.0,0.0,0.0,0.0,0.0,0.0,0.0,0.0,0.0,0.0,0.0,0.0,0.0,0.0,0.0,0.0,0.0,0.0,0.0,0.0,0.0,0.0,0.0,0.0,0.0,0.0,0.0,0.0,0.0,0.0,0.0,0.0,0.0,0.0,0.0,-1.163,-1.197,-1.197,-1.1768,-1.2374,-1.3046,-1.4028,-1.3673,0.0,0.0,0.0,0.0,0.0,0.0,0.0,0.0,0.0,0.0,0.0,0.0,0.0,0.0,0.0,0.0,0.0,0.0,0.0,0.0,0.0,0.0,0.0,0.0,0.0,0.0,0.0,-1.1368,0.0,0.0,0.0,0.0,0.0,0.0,0.0,0.0,0.0,0.0,0.0,0.0,0.0,0.0,-1.0319,-1.0146,-1.1019,-1.1846,0.0,0.0,-1.3298,-1.3839,-1.3651,-1.3584,0.0,0.0,0.0,0.0,0.0,0.0,0.0,0.0,0.0,0.0,0.0,0.0,0.0,0.0,0.0,0.0,0.0,0.0,0.0,0.0,0.0,0.0,0.0,0.0,0.0,0.0,0.0,0.0,0.0,0.0,0.0,0.0,0.0,0.0,0.0,0.0,0.0,0.0,0.0,0.0,0.0,0.0,0.0,0.0,0.0,0.0,0.0,0.0,0.0,0.0,0.0,0.0,0.0,0.0,-1.2308,-1.0795,-1.0874,-1.0905,-1.0948,-1.1437,-1.2097,-1.294,-1.3536,-1.3908,0.0,0.0,0.0,0.0,0.0,0.0,0.0,0.0,0.0,0.0,0.0,0.0,0.0,0.0,0.0,0.0,0.0,0.0,0.0,0.0,0.0,0.0,0.0,0.0,0.0,0.0,0.0,0.0,0.0,0.0,0.0,0.0,0.0,0.0,0.0,0.0,0.0,0.0,0.0,0.0,0.0,-1.1894,-1.1971,-1.2496,-1.3069,0.0,-1.3655,-1.3939,-1.3967,-1.444,-1.4671,-1.413,0.0,0.0,0.0,0.0,0.0,0.0,0.0,0.0,0.0,0.0,0.0,0.0,0.0,0.0,0.0,0.0,0.0,0.0,0.0,0.0,0.0,0.0,0.0,0.0,0.0,0.0,0.0,0.0,0.0,0.0,0.0,0.0,0.0,0.0,0.0,0.0,0.0,0.0,0.0,0.0,0.0,0.0,0.0,0.0,0.0,0.0,0.0,0.0,0.0,0.0,0.0,0.0,0.0,-1.1116,-1.0082,-1.023,-1.0334,-1.0478,-1.1145,-1.1841,-1.2655,-1.3327,-1.3849,0.0,0.0,0.0,0.0,0.0,0.0,0.0,0.0,0.0,0.0,0.0,0.0,0.0,0.0,0.0,0.0,0.0,0.0,0.0,0.0,0.0,0.0,0.0,0.0,0.0,0.0,0.0,0.0,-0.9343,-0.9596,-0.9858,0.0,0.0,0.0,0.0,0.0,0.0,0.0,0.0,0.0,0.0,-1.1101,-1.1441,-1.2117,0.0,0.0,-1.376,-1.4279,-1.4544,-1.4676,-1.46,-1.4518,-1.3509,0.0,0.0,0.0,0.0,0.0,0.0,0.0,0.0,0.0,0.0,0.0,0.0,0.0,0.0,0.0,0.0,0.0,0.0,0.0,0.0,0.0,0.0,0.0,0.0,0.0,0.0,0.0,0.0,0.0,0.0,0.0,0.0,0.0,0.0,0.0,0.0,0.0,0.0,0.0,0.0,0.0,0.0,0.0,0.0,0.0,0.0,0.0,0.0,0.0,0.0,0.0,0.0,-1.0532,-0.9327,-0.9829,-1.0249,-1.0309,-1.0928,-1.1845,-1.2846,-1.3468,-1.4007,0.0,0.0,0.0,0.0,0.0,0.0,0.0,0.0,0.0,0.0,0.0,0.0,0.0,0.0,0.0,0.0,0.0,0.0,0.0,0.0,0.0,0.0,0.0,0.0,0.0,0.0,0.0,0.0,-0.8167,-0.8266,-0.8223,0.0,0.0,0.0,0.0,0.0,0.0,0.0,0.0,0.0,0.0,-1.1156,-1.1405,-1.2061,-1.2812,-1.3277,-1.3839,-1.4449,-1.4735,-1.4679,-1.4629,-1.4355,0.0,0.0,0.0,0.0,0.0,0.0,0.0,0.0,0.0,0.0,0.0,0.0,0.0,0.0,0.0,0.0,0.0,0.0,0.0,0.0,0.0,0.0,0.0,0.0,0.0,0.0,0.0,0.0,0.0,0.0,-1.4276,0.0,0.0,0.0,0.0,0.0,0.0,0.0,0.0,0.0,0.0,0.0,0.0,0.0,0.0,0.0,0.0,0.0,0.0,0.0,0.0,0.0,0.0,-1.0941,-0.8647,-0.9929,-1.0685,-1.0724,-1.1174,-1.2086,-1.3464,-1.413,-1.454,-1.4931,0.0,0.0,0.0,0.0,0.0,0.0,0.0,0.0,0.0,0.0,0.0,0.0,0.0,0.0,0.0,0.0,0.0,0.0,0.0,0.0,0.0,0.0,0.0,0.0,0.0,0.0,-0.8106,-0.7935,-0.7687,0.0,0.0,0.0,0.0,0.0,0.0,0.0,0.0,0.0,0.0,-1.233,-1.2479,-1.2497,-1.3113,-1.3551,-1.376,-1.4057,-1.4332,-1.4344,-1.466,-1.453,0.0,0.0,0.0,0.0,0.0,0.0,0.0,0.0,0.0,0.0,0.0,0.0,0.0,0.0,0.0,0.0,0.0,0.0,0.0,0.0,0.0,0.0,0.0,0.0,0.0,0.0,0.0,-1.2881,-1.3619,0.0,0.0,0.0,0.0,0.0,0.0,0.0,0.0,0.0,0.0,0.0,-1.2776,-1.296,0.0,0.0,0.0,0.0,0.0,0.0,0.0,0.0,0.0,0.0,0.0,0.0,-1.1009,-1.0049,-1.0439,-1.0946,-1.158,-1.2299,-1.3177,-1.4047,-1.5365,-1.5843,-1.5555,0.0,0.0,0.0,0.0,0.0,0.0,0.0,0.0,0.0,0.0,0.0,0.0,0.0,0.0,0.0,0.0,0.0,0.0,0.0,0.0,0.0,0.0,0.0,0.0,0.0,-0.8549,0.0,0.0,0.0,0.0,0.0,0.0,0.0,0.0,0.0,0.0,0.0,-1.1532,-1.1999,-1.2429,-1.2741,-1.2749,-1.3175,-1.3509,0.0,0.0,0.0,0.0,0.0,0.0,0.0,0.0,0.0,0.0,0.0,0.0,0.0,0.0,-1.0665,-1.0882,-1.0177,-0.9717,-1.0635,0.0,0.0,0.0,0.0,0.0,0.0,0.0,0.0,0.0,0.0,0.0,0.0,0.0,0.0,-1.3461,0.0,-1.3784,0.0,0.0,0.0,0.0,0.0,0.0,0.0,0.0,-1.3607,-1.3578,-1.357,-1.3746,-1.3955,0.0,-1.3932,-1.3501,0.0,0.0,0.0,0.0,0.0,0.0,0.0,0.0,-1.1602,-1.1104,-1.1666,-1.2346,-1.2864,-1.3953,-1.4728,-1.5479,-1.6813,-1.7317,-1.6943,-1.6385,-1.557,0.0,0.0,0.0,0.0,0.0,0.0,0.0,0.0,0.0,0.0,0.0,0.0,0.0,0.0,0.0,0.0,0.0,0.0,0.0,0.0,0.0,0.0,0.0,-0.8852,0.0,0.0,0.0,0.0,0.0,0.0,0.0,0.0,0.0,-1.0706,-1.1211,-1.1881,-1.2496,-1.2767,-1.2875,-1.3013,0.0,0.0,0.0,0.0,0.0,0.0,0.0,-1.3695,-1.3428,-1.3259,-1.3262,-1.3441,-1.276,-1.229,-1.2517,0.0,0.0,-1.1475,-1.0749,-1.0664,-1.1454,-1.1469,-1.1396,-1.1569,-1.2145,-1.2872,0.0,0.0,0.0,0.0,0.0,0.0,0.0,0.0,-1.3425,-1.4023,0.0,-1.3751,0.0,0.0,0.0,0.0,0.0,-1.4814,0.0,0.0,-1.5027,-1.5135,-1.4508,-1.443,-1.4521,-1.4821,-1.5159,-1.558,-1.5894,-1.3697,0.0,0.0,0.0,0.0,0.0,0.0,-1.2783,-1.1827,-1.3559,-1.4578,-1.4642,-1.5731,-1.6959,-1.7996,-1.8661,-1.8855,-1.8887,-1.7319,-1.6225,-1.6175,-1.5323,0.0,0.0,0.0,0.0,0.0,0.0,0.0,0.0,0.0,0.0,0.0,0.0,0.0,0.0,0.0,0.0,0.0,0.0,0.0,0.0,-0.8639,0.0,0.0,0.0,0.0,0.0,0.0,0.0,0.0,0.0,0.0,-1.1457,-1.2083,-1.2795,-1.3599,0.0,0.0,0.0,0.0,-1.3335,-1.3456,-1.4068,-1.4458,-1.4267,-1.419,-1.3907,-1.3027,0.0,0.0,-1.3167,-1.2986,-1.2881,-1.3334,-1.3258,-1.2856,-1.2102,-1.1838,-1.1819,-1.2353,-1.2736,-1.3206,-1.3497,-1.3857,-1.4376,-0.9905,0.0,0.0,0.0,0.0,-1.3917,-1.4711,-1.487,-1.5019,-1.4864,-1.4379,-1.4476,0.0,0.0,0.0,0.0,0.0,0.0,-1.5238,-1.553,-1.6048,-1.5896,-1.5286,-1.5889,-1.6102,-1.5945,-1.6095,-1.6344,-1.6653,-1.5598,-1.4903,-1.439,0.0,0.0,0.0,0.0,-1.4764,-1.4301,-1.5319,-1.5885,-1.6093,-1.7237,-1.8601,-2.0288,-2.0358,-2.0094,-1.9238,-1.8496,-1.75,-1.6624,-1.642,0.0,0.0,0.0,0.0,0.0,0.0,0.0,0.0,0.0,0.0,0.0,0.0,0.0,0.0,0.0,0.0,0.0,0.0,0.0,-1.1036,-1.0547,-1.0532,0.0,0.0,0.0,0.0,0.0,0.0,0.0,0.0,0.0,-1.3407,-1.3648,-1.3742,0.0,0.0,-1.3925,-1.3642,-1.4012,-1.4235,-1.3678,-1.424,0.0,-1.3899,-1.3932,-1.3912,-1.3793,-1.4048,-1.4462,-1.4764,-1.4469,-1.438,-1.443,-1.4042,-1.3612,-1.3442,-1.294,-1.2539,-1.2612,-1.2838,-1.3374,-1.4163,-1.4579,-1.4855,-1.2404,-1.2367,-1.2621,-1.3283,-1.4172,-1.5302,-1.5831,-1.6099,-1.6131,-1.5931,-1.5211,-1.5267,-1.4635,-1.3751,-1.4094,0.0,0.0,0.0,-1.6093,-1.6533,-1.7015,-1.7013,-1.6595,-1.7249,-1.7416,-1.7407,-1.7179,-1.7459,-1.7891,-1.7244,-1.6581,-1.5913,0.0,0.0,-1.5115,-1.6044,-1.6339,-1.6264,-1.7221,-1.7805,-1.7931,-1.9047,-2.0146,-2.119,-2.1216,-2.083,-2.0185,-1.979,-1.9326,-1.8721,-1.8572,-1.8385,0.0,0.0,0.0,0.0,0.0,0.0,0.0,0.0,0.0,0.0,0.0,-1.2459,-1.2128,0.0,0.0,0.0,-1.1131,-1.1371,-1.2181,-1.1802,0.0,0.0,0.0,0.0,0.0,0.0,0.0,-1.4115,-1.4442,-1.4666,-1.4919,-1.5005,-1.4865,-1.4438,-1.4438,-1.4426,-1.42,0.0,-1.4638,-1.4249,-1.4527,-1.4638,-1.4223,-1.4107,-1.3992,-1.4316,-1.4662,-1.5007,-1.5455,-1.5305,-1.5231,-1.5223,-1.4984,-1.4594,-1.4594,-1.4185,-1.3583,-1.3347,-1.3573,-1.416,-1.5,-1.5333,-1.5675,-1.5496,-1.6787,-1.565,-1.5457,-1.5709,-1.6644,-1.7139,-1.7246,-1.7167,-1.6986,-1.6944,-1.6221,-1.5937,-1.5869,-1.5682,0.0,-1.6972,-1.7369,-1.7455,-1.7517,-1.7919,-1.8117,-1.8104,-1.8139,-1.8309,-1.863,-1.8282,-1.8461,-1.9306,-1.8262,-1.7982,-1.7925,-1.7353,-1.674,-1.6604,-1.7437,-1.7862,-1.7802,-1.9409,-2.0347,-2.0515,-2.1364,-2.1716,-2.1693,-2.1624,-2.1685,-2.1491,-2.1324,-2.1355,-2.1618,-2.1302,-2.0792,-2.0209,0.0,0.0,0.0,0.0,0.0,0.0,0.0,0.0,0.0,0.0,0.0,0.0,0.0,0.0,0.0,-1.2363,0.0,-1.2631,-1.2569,0.0,0.0,0.0,-1.3757,-1.3803,-1.4538,-1.5071,-1.5148,0.0,0.0,-1.605,-1.5948,-1.5782,-1.5385,-1.4892,-1.4769,-1.5001,-1.5045,-1.4928,-1.4857,-1.4956,-1.5075,-1.5069,-1.4711,-1.4302,-1.4475,-1.468,-1.5011,-1.5361,-1.548,-1.5522,-1.5859,-1.5687,-1.5491,-1.5522,-1.5443,-1.5155,-1.4243,-1.4727,-1.5358,-1.5655,-1.6148,-1.6854,-1.8339,-1.9569,-1.9241,-1.8569,-1.7844,-1.8018,-1.8309,-1.8343,-1.8192,-1.7647,-1.6851,-1.7205,-1.6921,-1.6397,-1.6354,-1.6915,-1.775,-1.8008,-1.8421,-1.8856,-1.9259,-1.9163,-1.8461,-1.9103,-1.9167,-1.884,-1.8864,-1.9203,-1.9514,-1.9485,-1.95,-1.9561,-2.0344,-1.9512,-1.7397,-1.8552,-1.9522,-2.0067,-2.1919,-2.3387,-2.4539,-2.4788,-2.4727,-2.4182,-2.4083,-2.3757,-2.3375,-2.3037,-2.3075,-2.3184,-2.2589,-2.2241,-2.2251,-2.1434,0.0,0.0,0.0,0.0,0.0,0.0,0.0,0.0,0.0,-1.3527,-1.2785,0.0,-1.3186,0.0,-1.3129,-1.331,-1.3455,-1.3653,0.0,0.0,-1.4782,-1.4997,-1.5475,-1.5649,-1.5687,-1.5939,-1.6075,-1.6264,-1.6406,-1.6443,-1.6481,-1.6216,-1.6008,-1.5784,-1.5878,-1.5859,-1.585,-1.583,-1.583,-1.5949,-1.5771,-1.5604,-1.5113,-1.4991,-1.5168,-1.5345,-1.5675,-1.5894,-1.5875,-1.6024,-1.5658,-1.5554,-1.5658,-1.5578,-1.5554,-1.544,-1.5504,-1.5699,-1.6717,-1.6785,-1.6877,-2.0071,-2.1345,-2.0896,-2.0403,-2.0133,-1.9606,-1.9344,-1.925,-1.9126,-1.8648,-1.7942,-1.8226,-1.8208,-1.7915,-1.7906,-1.8302,-1.8764,-1.9052,-1.9428,-1.9722,-2.0044,-1.9896,-1.9507,-1.9906,-1.9906,-1.9525,-1.9587,-1.9895,-2.0077,-2.0647,-2.0928,-2.1268,-2.2277,-2.2157,-2.0665,-2.1545,-2.2117,-2.2465,-2.4112,-2.5347,-2.6428,-2.6058,-2.5826,-2.5422,-2.5321,-2.5059,-2.4649,-2.5167,-2.5436,-2.5282,-2.4974,-2.4666,-2.4095,-2.2971,-2.2178,0.0,0.0,0.0,0.0,0.0,0.0,0.0,0.0,0.0,0.0,0.0,-1.5062,-1.533,-1.5367,-1.561,-1.5977,-1.6035,-1.6368,-1.6974,-1.696,-1.6937,-1.6979,-1.6942,-1.6739,-1.6727,-1.6916,-1.6963,-1.6793,-1.6859,-1.6859,-1.6651,-1.6528,-1.6386,-1.6216,-1.632,-1.649,-1.6606,-1.6509,-1.6141,-1.5851,-1.5699,-1.5462,-1.5269,-1.5342,-1.5553,-1.565,-1.5715,-1.5687,-1.5926,-1.5602,-1.5313,-1.5498,-1.5658,-1.5707,-1.6187,-1.6155,-1.6427,-1.7076,-1.707,-1.7249,-2.151,-2.2596,-2.15,-2.1605,-2.2303,-2.0817,-2.0185,-1.9996,-1.9996,-1.9798,-1.9458,-1.9458,-1.9562,-1.9713,-1.9694,-1.9694,-1.9904,-2.0062,-2.0233,-2.0448,-2.0478,-2.0573,-2.0544,-2.0544,-2.0431,-2.0223,-2.0195,-2.0433,-2.0781,-2.1801,-2.2492,-2.302,-2.3869,-2.4438,-2.4734,-2.4997,-2.5206,-2.5206,-2.6274,-2.7019,-2.7253,-2.6747,-2.6352,-2.6215,-2.6221,-2.6087,-2.5828,-2.7346,-2.7924,-2.723,-2.7425,-2.7109,-2.5653,-2.4428,-2.3433,0.0,-2.203,0.0,0.0,0.0,0.0,0.0,0.0,0.0,0.0,-1.7293,-1.7607,-1.8035,-1.8165,-1.8415,-1.8668,-1.8834,-1.9082,-1.9189,-1.914,-1.8806,-1.8173,-1.812,-1.7912,-1.7616,-1.7643,-1.7615,-1.7294,-1.7209,-1.7114,-1.6934,-1.7006,-1.6844,-1.6501,-1.6567,-1.692,-1.724,-1.6846,-1.6462,-1.587,-1.5624,-1.559,-1.5163,-1.5277,-1.5504,-1.552,-1.548,-1.5491,-1.5658,-1.5424,-1.5199,-1.5377,-1.5634,-1.6071,-1.664,-1.6768,-1.6965,-1.7397,-1.7618,-1.8081,-2.28,-2.3709,-2.276,-2.2372,-2.2535,-2.1192,-2.0611,-2.0422,-2.0422,-2.0384,-2.0308,-2.0308,-2.0327,-2.0346,-2.0176,-2.0538,-2.1402,-2.0606,-2.0663,-2.172,-2.1048,-2.0696,-2.0544,-2.0544,-2.0431,-2.0214,-2.0404,-2.0985,-2.1801,-2.2675,-2.3537,-2.4372,-2.558,-2.6248,-2.6368,0.0,0.0,0.0,-2.9035,-2.9592,-2.9969,-2.9297,-2.8853,-2.8759,-2.8256,0.0,-2.8,-2.8426,-2.8426,-2.797,-2.7924,0.0,0.0,0.0,0.0,0.0,0.0,0.0,0.0,0.0,0.0,0.0,-2.1934,-2.0958,-1.9105,-1.9095,-1.9358,-1.946,-1.9404,-1.945,-1.9588,-1.9726,-1.9719,-1.926,-1.9344,-1.9139,-1.8642,-1.8296,-1.8135,-1.8145,-1.8017,-1.7965,-1.7861,-1.7719,-1.753,-1.7331,-1.7461,-1.7408,-1.7302,-1.7253,-1.7418,-1.7779,-1.7605,-1.7226,-1.6563,-1.633,-1.5897,-1.5633,-1.5433,-1.5488,-1.5536,-1.5796,-1.5811,-1.5804,-1.5658,-1.5561,-1.5981,-1.6015,-1.6284,-1.7077,-1.7483,-1.7909,-1.8477,-1.8643,-1.8957,-2.3168,0.0,-2.2442,-2.2626,0.0,-2.2495,-2.2029,-2.1728,-2.0981,-2.0544,-2.0544,-2.0544,-2.0544,-2.0544,-2.0535,-2.0762,-2.14,-2.0867,-2.1106,-2.1566,-2.1134,-2.0951,-2.0847,-2.0733,-2.0762,-2.0731,-2.1213,-2.1751,-2.233,-2.3869,-2.4909,-2.5409,-2.6783,-2.7709,-2.8023,-2.8703,-2.8974,-2.881,-2.9481,-2.9998,-3.0136,-3.0029,-3.0204,-3.0333,-2.9808,0.0,0.0,0.0,0.0,0.0,0.0,0.0,0.0,-2.5736,0.0,-2.4918,-2.4501,-2.4449,-2.4997,-2.4767,-2.4737,-2.5006,-2.4879,-2.3718,-2.1591,-2.1926,-2.2044,-2.1782,-2.1728,-2.1753,-2.1782,-2.1976,-2.2032,-2.1858,-2.1405,-2.0989,-2.0452,-1.9573,-1.9058,-1.9113,-1.8769,-1.8529,-1.8529,-1.8591,-1.8583,-1.8377,-1.8865,-1.8998,-1.8772,-1.8316,-1.8006,-1.8127,-1.8031,-1.7596,-1.6931,-1.6653,-1.6357,-1.5769,-1.5819,-1.5864,-1.5814,-1.6215,-1.652,-1.6427,-1.6275,-1.6282,-1.6337,-1.632,-1.6538,-1.7367,-1.7888,-1.8569,-1.9434,-1.9647,-1.9755,-2.3599,-2.4323,-2.2831,-2.3179,-2.4635,-2.3892,-2.3525,-2.3137,0.0,0.0,0.0,-2.0648,-2.0648,-2.0667,-2.079,-2.0856,-2.1086,-2.1045,-2.1315,-2.1538,-2.1353,-2.1168,-2.1159,-2.0941,-2.0934,-2.1122,-2.1924,-2.2585,-2.2924,-2.5092,-2.6103,-2.6443,-2.7682,-2.8547,-2.8987,-2.8789,-2.847,-2.8399,-2.9006,-2.9481,-2.9481,-2.9957,-3.0425,-3.106,-3.0685,-3.0585,-3.0859,-3.0989,-3.0373,-2.8912,-2.8896,-2.8052,-2.6322,-2.5908,-2.5604,-2.5405,-2.5259,-2.5671,-2.6594,-2.6547,-2.6554,-2.7182,-2.6919,-2.5832,-2.4109,-2.4591,-2.4676,-2.4195,-2.4037,-2.4037,-2.4102,-2.4209,-2.4442,-2.4527,-2.3631,-2.2802,-2.221,-2.0891,-1.9865,-2.003,-1.9344,-1.9043,-1.9164,-1.9464,-1.9712,-1.9655,-2.0334,-2.0913,-2.0484,-1.9361,-1.8484,-1.834,-1.8059,-1.7559,-1.7111,-1.6959,-1.6653,-1.6203,-1.6388,-1.6747,-1.659,-1.6959,-1.7244,-1.7396,-1.7253,-1.7092,-1.6903,-1.7033,-1.7162,-1.7785,-1.8394,-1.9223,-2.0393,-2.0627,-2.0805,-2.5499,-2.5672,-2.564,-2.5001,-2.4269,-2.499,-2.443,-2.3158,-2.1646,-2.1083,-2.1083,-2.1083,-2.1083,-2.1074,-2.0913,-2.1298,-2.2188,-2.1317,-2.1346,-2.2432,-2.1529,-2.1168,-2.1159,-2.1308,-2.1192,-2.0953,-2.2173,-2.3184,-2.3653,-2.5347,-2.6443,-2.7343,-2.8076,-2.8327,-2.7869,-2.6797,-2.6327,-2.6278,-2.7931,-2.916,-2.9481,-2.9428,-2.9939,-3.1024,-3.0358,-3.0087,-3.0486,-3.0114,-2.919,-2.7585,-2.7965,-2.7212,-2.4959,-2.5503,-2.5727,-2.4841,-2.5609,-2.641,-2.6977,-2.7527,-2.7803,-2.7784,-2.7703,-2.7121,-2.6069,-2.5919,-2.5732,-2.5638,-2.5285,-2.5317,-2.5277,-2.5317,-2.508,-2.4521,-2.4227,-2.347,-2.2125,-2.1155,-2.0475,-2.0262,-1.9331,-1.9027,-1.9534,-1.9964,-2.0517,-2.0608,-2.1491,-2.2152,-2.1907,-2.0255,-1.8734,-1.8441,-1.7864,-1.7426,-1.7273,-1.7273,-1.7273,-1.7121,-1.7418,-1.7798,-1.7696,-1.8003,-1.8332,-1.8219,-1.8163,-1.821,-1.8336,-1.8475,-1.8426,-1.8896,-1.9717,-2.0612,-2.1168,-2.1878,-2.2659,-2.6306,-2.6306,-2.6122,-2.5948,-2.6133,-2.6318,-2.6133,-2.5566,-2.3354,-2.1927,-2.1178,-2.1168,-2.1168,-2.1159,-2.1064,-2.1248,-2.1889,-2.1248,-2.1258,-2.1704,-2.1344,-2.1287,-2.1336,-2.1326,-2.1691,-2.2087,-2.2998,-2.3704,-2.4385,-2.5811,-2.6626,-2.7174,-2.8061,-2.7823,-2.6558,-2.6242,-2.5934,-2.5473,-2.7106,-2.815,-2.8473,-2.8882,-2.9558,-3.0505,-2.9517,-2.9152,-2.9514,-2.8934,-2.7744,-2.5769,-2.6016,-2.5455,-2.3572,-2.4154,-2.4578,-2.4676,-2.5766,-2.6851,-2.7817,-2.8753,-2.8828,-2.7989,-2.7904,-2.7748,-2.7032,-2.6777,-2.6386,-2.5924,-2.574,-2.5528,-2.5558,-2.5651,-2.5604,-2.5281,-2.4507,-2.3561,-2.2612,-2.1177,-2.0295,-2.0252,-2.0036,-2.0107,-2.045,-2.1402,-2.2168,-2.2337,-2.2924,-2.3101,-2.2986,-2.1499,-1.9995,-1.939,-1.8633,-1.8025,-1.7873,-1.7721,-1.7721,-1.7721,-1.8125,-1.8514,-1.8484,-1.8785,-1.9272,-1.9321,-1.9243,-1.9075,-1.9025,-1.8886,-1.9098,-1.944,-2.005,-2.0743,-2.1772,-2.3135,-2.4024,-2.7128,-2.6955,-2.6584,-2.7005,-2.7889,-2.7156,-2.7144,-2.7331,-2.471,-2.3051,-2.2251,-2.1683,-2.1282,-2.1234,-2.1234,-2.1215,-2.1178,-2.1168,-2.1168,-2.1168,-2.1168,-2.1055,-2.1384,-2.14,-2.1919,-2.2744,-2.3738,-2.4316,-2.4832,-2.597,-2.6689,-2.6866,-2.751,-2.709,-2.5593,-2.5901,-2.5938,-2.5313,-2.6548,-2.7343,-2.7369,-2.8261,-2.9115,-2.9453,-2.8555,-2.8125,-2.8178,-2.7531,-2.6153,-2.4265,-2.4134,-2.3716,-2.2433,-2.315,-2.4008,-2.4726,-2.5879,-2.7135,-2.8479,-2.9161,-2.8914,-2.7641,-2.7779,-2.7571,-2.7059,-2.6815,-2.6505,-2.5937,-2.5801,-2.5648,-2.5647,-2.579,-2.6052,-2.6052,-2.4943,-2.4145,-2.349,-2.1761,-2.0622,-2.0793,-2.0825,-2.0889,-2.1618,-2.298,-2.3927,-2.411,-2.4065,-2.3807,-2.3568,-2.2704,-2.166,-2.0793,-1.9714,-1.926,-1.8825,-1.8957,-1.8926,-1.8774,-1.9427,-1.9822,-1.9886,-2.0126,-2.0356,-2.0523,-2.032,-2.0252,-1.9991,-1.9803,-1.9902,-2.0309,-2.0843,-2.154,-2.2829,-2.4083,-2.5187,-2.8508,-2.7937,-2.8545,-2.8964,-2.859,-2.6908,-2.6364,-2.655,-2.5032,-2.4768,-2.4898,-2.2864,-2.1622,-2.1461,-2.1442,-2.1348,-2.1178,-2.1168,-2.1178,-2.1168,-2.0603,-2.0667,-2.102,-2.1718,-2.2141,-2.2255,-2.3961,-2.4696,-2.4511,-2.5701,-2.6363,-2.6659,-2.5938,-2.5592,-2.5742,-2.5262,-2.5218,-2.5651,-2.6224,-2.6752,-2.7083,-2.762,-2.8158,-2.8503,-2.7678,-2.7171,-2.6847,-2.5551,-2.4591,-2.3792,-2.3131,-2.2599,-2.2143,-2.3302,-2.4223,-2.4275,-2.6053,-2.7499,-2.829,-2.8068,-2.7433,-2.6481,-2.6313,-2.6049,-2.511,-2.5346,-2.6042,-2.6293,-2.5931,-2.566,-2.6079,-2.6016,-2.603,-2.6306,-2.6004,-2.57,-2.4405,-2.3117,-2.2327,-2.2361,-2.1512,-2.1157,-2.2464,-2.3683,-2.4819,-2.5374,-2.4905,-2.4527,-2.4573,-2.3915,-2.3105,-2.2778,-2.1789,-2.1012,-2.0984,-2.1174,-2.0955,-2.1083,-2.1709,-2.1824,-2.1768,-2.2019,-2.2441,-2.2073,-2.1956,-2.1767,-2.1547,-2.1601,-2.1465,-2.1557,-2.2198,-2.3236,-2.4636,-2.5166,-2.5453,-2.9148,-2.8743,-2.9292,-2.9105,-2.8433,-2.7529,-2.7271,-2.7667,-2.6313,-2.6239,-2.6341,-2.4779,-2.3616,-2.2783,-2.1971,-2.148,-2.1187,-2.1291,-2.1282,-2.1178,-2.0594,-2.097,-2.176,-2.1921,-2.2454,-2.3512,-2.4431,-2.4902,-2.5247,-2.6142,-2.6438,-2.5914,-2.6147,-2.6351,-2.6108,-2.5358,-2.5411,-2.6259,-2.6448,-2.6594,-2.6762,-2.7423,-2.7826,-2.7887,-2.6915,-2.6208,-2.5812,-2.4459,-2.33,-2.2436,-2.1782,-2.1348,-2.1314,-2.2164,-2.2973,-2.3762,-2.5626,-2.6633,-2.6579,-2.6722,-2.6277,-2.4986,-2.5132,-2.5091,-2.4218,-2.4772,-2.5173,-2.5318,-2.5576,-2.5754,-2.6099,-2.6092,-2.6108,-2.6281,-2.5911,-2.5263,-2.4627,-2.3496,-2.2866,-2.2545,-2.2705,-2.2992,-2.383,-2.473,-2.5374,-2.5732,-2.5166,-2.4873,-2.485,-2.4407,-2.4253,-2.4402,-2.3858,-2.3052,-2.2472,-2.2165,-2.2177,-2.2257,-2.2541,-2.2781,-2.2889,-2.3091,-2.3436,-2.3549,-2.3516,-2.3248,-2.3147,-2.2993,-2.3008,-2.2943,-2.3267,-2.425,-2.4788,-2.5242,-2.5972,-2.9899,-2.9801,-2.9832,-2.9243,-2.8356,-2.816,-2.8273,-2.8495,-2.7616,-2.757,-2.7843,-2.6568,-2.5534,-2.4624,-2.3104,-2.2,-2.1234,-2.1376,-2.1357,-2.1187,-2.0964,-2.1288,-2.2358,-2.2495,-2.3138,-2.4304,-2.4761,-2.5092,-2.547,-2.6388,-2.6448,-2.5901,-2.6783,-2.7211,-2.6911,-2.6165,-2.6156,-2.7096,-2.6896,-2.6707,-2.6903,-2.7482,-2.7727,-2.7378,-2.6294,-2.5464,-2.4867,-2.3596,-2.2414,-2.1609,-2.0837,-2.0833,-2.1252,-2.1793,-2.2758,-2.4076,-2.52,-2.5514,-2.5016,-2.5325,-2.494,-2.3455,-2.372,-2.371,-2.3497,-2.3895,-2.4407,-2.4789,-2.547,-2.6042,-2.6208,-2.6222,-2.6174,-2.6348,-2.5805,-2.5263,-2.4945,-2.4148,-2.3496,-2.3336,-2.3828,-2.4627,-2.5053,-2.544,-2.5745,-2.5545,-2.5197,-2.4903,-2.4703,-2.4663,-2.4836,-2.5398,-2.5317,-2.4723,-2.3686,-2.3482,-2.3396,-2.3488,-2.3703,-2.3803,-2.3593,-2.4024,-2.4381,-2.4603,-2.4759,-2.4772,-2.4307,-2.432,-2.4207,-2.401,-2.4285,-2.4586,-2.4829,-2.5464,-2.6501,-3.0942,-3.0996,-3.0661,-2.9801,-2.8932,-2.8736,-2.8907,-2.8749,-2.8471,-2.8718,-2.913,-2.7698,-2.6961,-2.6666,-2.4451,-2.2695,-2.143,-2.1573,-2.1553,-2.1363,-2.1704,-2.1837,-2.1989,-2.3187,-2.4006,-2.4293,-2.4932,-2.5446,-2.547,-2.5896,-2.6273,-2.6641,-2.7172,-2.7667,-2.7688,-2.6969,-2.7337,-2.7908,-2.7169,-2.7144,-2.7838,-2.8096,-2.7535,-2.6613,-2.5633,-2.4869,-2.4182,-2.2982,-2.2113,-2.1631,-2.1014,-2.1045,-2.2026,-2.2956,-2.4251,-2.5562,-2.5225,-2.4632,-2.4268,-2.3756,-2.2826,-2.151,-2.157,-2.187,-2.207,-2.2872,-2.3851,-2.4824,-2.5944,-2.6519,-2.6376,-2.619,-2.6147,-2.6573,-2.6547,-2.6096,-2.5753,-2.4945,-2.4627,-2.4798,-2.4786,-2.5104,-2.6043,-2.5879,-2.5651,-2.5451,-2.505,-2.4716,-2.4743,-2.469,-2.4957,-2.5358,-2.5545,-2.5598,-2.5684,-2.5192,-2.515,-2.5058,-2.4944,-2.515,-2.527,-2.54,-2.5538,-2.5698,-2.5716,-2.5741,-2.5575,-2.5353,-2.5231,-2.5019,-2.4873,-2.5093,-2.5308,-2.5841,-2.6885,-3.0783,-3.0647,-3.0104,-2.9525,-2.9123,-2.878,-2.8627,-2.8652,-2.8382,-2.8359,-2.8495,-2.796,-2.7298,-2.6283,-2.6096,-2.4725,-2.3261,-2.3375,-2.3344,-2.3025,-2.28,-2.3185,-2.3993,-2.3985,-2.4447,-2.5193,-2.5347,-2.5701,-2.6241,-2.6822,-2.679,-2.6335,-2.6723,-2.6969,-2.6365,-2.5549,-2.5757,-2.7049,-2.658,-2.6649,-2.7317,-2.7442,-2.7268,-2.6734,-2.6209,-2.56,-2.4851,-2.3563,-2.2996,-2.2996,-2.2255,-2.2422,-2.3668,-2.4315,-2.4656,-2.4644,-2.448,-2.3712,-2.2482,-2.1894,-2.1313,-2.0592,-2.0327,-2.0584,-2.0962,-2.2403,-2.3759,-2.4527,-2.6253,-2.7068,-2.7135,-2.6822,-2.6436,-2.664,-2.6573,-2.6386,-2.6228,-2.5911,-2.5753,-2.5911,-2.5753,-2.5911,-2.6162,-2.6039,-2.5812,-2.5758,-2.5438,-2.5211,-2.5184,-2.5197,-2.5317,-2.5665,-2.5798,-2.5892,-2.6186,-2.6172,-2.6039,-2.5879,-2.5825,-2.5684,-2.5856,-2.6268,-2.6439,-2.673,-2.6731,-2.7053,-2.7091,-2.6894,-2.6697,-2.6334,-2.6033,-2.6074,-2.6088,-2.6815,-2.7813,-3.0889,-3.0503,-2.9948,-2.9754,-2.9546,-2.9184,-2.8835,-2.8693,-2.8402,-2.8344,-2.8051,-2.8071,-2.745,-2.6654,-2.7203,-2.6874,-2.5397,-2.4988,-2.4581,-2.4399,-2.4118,-2.4503,-2.5183,-2.5,-2.5136,-2.579,-2.5784,-2.6005,-2.6635,-2.7058,-2.6846,-2.6388,-2.6654,-2.661,-2.5924,-2.5023,-2.5417,-2.657,-2.6438,-2.6512,-2.7264,-2.7376,-2.7268,-2.7028,-2.6743,-2.6294,-2.5489,-2.4411,-2.3962,-2.4128,-2.37,-2.3878,-2.4967,-2.5615,-2.55,-2.4401,-2.3913,-2.2954,-2.1342,-2.0724,-2.029,-1.9906,-2.0105,-2.0159,-2.0584,-2.2748,-2.4081,-2.4897,-2.6487,-2.7826,-2.7695,-2.7289,-2.6875,-2.6947,-2.6627,-2.64,-2.64,-2.6386,-2.6386,-2.6386,-2.6386,-2.6386,-2.636,-2.6119,-2.5972,-2.5959,-2.5705,-2.5531,-2.5518,-2.5518,-2.5625,-2.5892,-2.5932,-2.6066,-2.6253,-2.645,-2.6437,-2.6289,-2.6378,-2.6378,-2.6486,-2.6932,-2.7297,-2.7771,-2.8043,-2.8413,-2.8551,-2.848,-2.8103,-2.7705,-2.753,-2.751,-2.7705,-2.7827,-2.8851,-3.1316,-3.0875,-3.0795,-3.0305,-2.988,-2.9774,-2.9554,-2.9054,-2.8924,-2.8465,-2.8124,-2.7877,-2.7655,-2.7373,-2.7805,-2.8108,-2.7534,-2.6035,-2.5252,-2.5325,-2.5502,-2.5638,-2.5936,-2.6259,-2.6294,-2.623,-2.6218,-2.6363,-2.6641,-2.6509,-2.6523,-2.6818,-2.6519,-2.6354,-2.6817,-2.5582,-2.6165,-2.7109,-2.645,-2.681,-2.8234,-2.8043,-2.7589,-2.7281,-2.7068,-2.6475,-2.5762,-2.5338,-2.4967,-2.4851,-2.4878,-2.5379,-2.6007,-2.683,-2.6592,-2.5142,-2.417,-2.2889,-2.1223,-2.0393,-2.0051,-1.9768,-2.0492,-2.113,-2.1665,-2.3666,-2.54,-2.5542,-2.7058,-2.823,-2.8037,-2.7535,-2.7321,-2.7201,-2.6734,-2.64,-2.64,-2.64,-2.64,-2.64,-2.64,-2.64,-2.6333,-2.6172,-2.6026,-2.5972,-2.5798,-2.5638,-2.5665,-2.5665,-2.5705,-2.5865,-2.6012,-2.6159,-2.6437,-2.6702,-2.6544,-2.6517,-2.6806,-2.6949,-2.7018,-2.7492,-2.7795,-2.8274,-2.8949,-2.9311,-2.9655,-2.9603,-2.9597,-2.9279,-2.918,-2.9183,-2.9519,-2.987,-2.9976,-3.145,-3.1076,-3.0875,-3.0385,-2.965,-2.9454,-2.9195,-2.8655,-2.8201,-2.8045,-2.7731,-2.7609,-2.7389,-2.7365,-2.7872,-2.8017,-2.7913,-2.7369,-2.7274,-2.7277,-2.6961,-2.6783,-2.6725,-2.6546,-2.6592,-2.652,-2.6508,-2.6558,-2.6565,-2.6523,-2.6062,-2.5338,-2.5098,-2.4598,-2.3698,-2.3626,-2.4302,-2.5695,-2.5885,-2.6704,-2.8191,-2.8353,-2.8083,-2.7642,-2.7655,-2.7476,-2.7112,-2.6172,-2.5715,-2.5724,-2.5812,-2.6325,-2.7105,-2.7583,-2.7058,-2.5616,-2.5119,-2.3799,-2.1954,-2.1393,-2.1048,-2.0786,-2.1296,-2.1879,-2.2248,-2.4258,-2.5684,-2.6304,-2.7712,-2.8679,-2.8512,-2.8283,-2.7709,-2.7308,-2.6747,-2.6413,-2.6413,-2.64,-2.64,-2.64,-2.64,-2.64,-2.6386,-2.6266,-2.6213,-2.6199,-2.6106,-2.6039,-2.6066,-2.5985,-2.6026,-2.5999,-2.6119,-2.6106,-2.6249,-2.6472,-2.6711,-2.6936,-2.7148,-2.749,-2.7616,-2.8128,-2.8438,-2.9086,-2.9606,-3.0141,-3.0468,-3.0756,-3.0974,-3.1058,-3.1028,-3.126,-3.1724,-3.1799,-3.167,-3.149,-3.1209,-3.1036,-3.0412,-2.9743,-2.9456,-2.8977,-2.842,-2.7958,-2.7558,-2.7426,-2.7378,-2.7244,-2.7304,-2.7799,-2.8205,-2.818,-2.8423,-2.8503,-2.8273,-2.7658,-2.7329,-2.7354,-2.7015,-2.693,-2.693,-2.7111,-2.7013,-2.6561,-2.6409,-2.5606,-2.4333,-2.3607,-2.3,-2.1971,-2.2154,-2.3081,-2.5118,-2.5423,-2.652,-2.8263,-2.8632,-2.8417,-2.811,-2.811,-2.8096,-2.8016,-2.7187,-2.6955,-2.7019,-2.7032,-2.7367,-2.7883,-2.8043,-2.7461,-2.6103,-2.5518,-2.4534,-2.2799,-2.2209,-2.2041,-2.1801,-2.2248,-2.28,-2.3342,-2.499,-2.6446,-2.6785,-2.8016,-2.8824,-2.867,-2.8484,-2.7949,-2.7482,-2.7028,-2.6694,-2.6573,-2.644,-2.64,-2.64,-2.64,-2.64,-2.6386,-2.6266,-2.6239,-2.6226,-2.6132,-2.6066,-2.6066,-2.6026,-2.5932,-2.5865,-2.5865,-2.5838,-2.5812,-2.6229,-2.6845,-2.7125,-2.7563,-2.7762,-2.8018,-2.8734,-2.9196,-2.9998,-3.0676,-3.1194,-3.1579,-3.2487,-3.2906,-3.3,-3.2862,-3.301,-3.3138,-3.3,-3.3122,-3.1476,-3.1236,-3.1223,-3.0663,-2.9831,-2.9559,-2.8869,-2.8086,-2.7706,-2.7414,-2.7039,-2.7051,-2.716,-2.7401,-2.7691,-2.8132,-2.8765,-2.8654,-2.8618,-2.8478,-2.7937,-2.7682,-2.7793,-2.7585,-2.7413,-2.7461,-2.8014,-2.7727,-2.6835,-2.6466,-2.5365,-2.4245,-2.3475,-2.2385,-2.2402,-2.1971,-2.3365,-2.5247,-2.5604,-2.6998,-2.9309,-2.9032,-2.8711,-2.8657,-2.8484,-2.8444,-2.8551,-2.8379,-2.843,-2.8217,-2.8163,-2.815,-2.8136,-2.815,-2.763,-2.6323,-2.6019,-2.5219,-2.372,-2.3221,-2.2909,-2.2943,-2.3719,-2.4086,-2.4086,-2.5866,-2.7111,-2.6737,-2.7953,-2.8595,-2.843,-2.8366,-2.8083,-2.7762,-2.7375,-2.7094,-2.6867,-2.6627,-2.6547,-2.6466,-2.6426,-2.6413,-2.64,-2.6186,-2.6235,-2.6155,-2.6007,-2.5899,-2.5845,-2.5886,-2.5558,-2.5545,-2.5585,-2.5738,-2.5711,-2.6279,-2.6892,-2.7284,-2.7762,-2.8046,-2.8403,-2.9164,-2.9784,-3.0604,-3.1434,-3.1931,-3.2634,-3.3451,-3.4041,-3.4066,-3.4075,-3.4436,-3.4436,-3.4487,-3.4314,-3.1303,-3.1223,-3.0861,-3.013,-2.9499,-2.904,-2.8334,-2.7609,-2.7536,-2.7378,-2.7063,-2.7027,-2.7075,-2.7184,-2.7618,-2.786,-2.8241,-2.8415,-2.8475,-2.8411,-2.8089,-2.7872,-2.7925,-2.7715,-2.7811,-2.7944,-2.8519,-2.8375,-2.7518,-2.771,-2.7122,-2.6172,-2.5538,-2.4779,-2.3883,-2.471,-2.5425,-2.5868,-2.7003,-2.8168,-2.9409,-2.9646,-2.9459,-2.9272,-2.9339,-2.9232,-2.8978,-2.8925,-2.8791,-2.8524,-2.8484,-2.8364,-2.819,-2.8177,-2.7931,-2.7577,-2.7349,-2.6723,-2.5511,-2.5316,-2.5116,-2.4419,-2.5001,-2.5742,-2.5548,-2.6641,-2.7454,-2.7571,-2.8255,-2.8509,-2.8419,-2.8564,-2.8323,-2.803,-2.7602,-2.7281,-2.7175,-2.7081,-2.6961,-2.676,-2.6707,-2.66,-2.6612,-2.6621,-2.6683,-2.6629,-2.6425,-2.618,-2.5905,-2.5644,-2.5344,-2.5317,-2.5331,-2.5469,-2.5799,-2.635,-2.6904,-2.7278,-2.7879,-2.8527,-2.8836,-2.939,-3.0076,-3.0652,-3.1762,-3.2396,-3.3046,-3.376,-3.4294,-3.4848,-3.4984,-3.5068,-3.5621,-3.5899,-3.5609,-3.141,-3.141,-3.0857,-3.0187,-2.9644,-2.8968,-2.827,-2.7727,-2.751,-2.7341,-2.7196,-2.7075,-2.716,-2.7389,-2.7679,-2.7944,-2.8174,-2.8475,-2.8524,-2.8415,-2.8379,-2.8162,-2.792,-2.7896,-2.8065,-2.8375,-2.8966,-2.8723,-2.8164,-2.8584,-2.814,-2.7065,-2.6873,-2.585,-2.4083,-2.556,-2.6306,-2.597,-2.7184,-2.8655,-2.9734,-2.9913,-2.9833,-2.97,-2.9833,-2.9713,-2.9432,-2.9406,-2.9219,-2.8898,-2.8778,-2.8657,-2.839,-2.847,-2.8379,-2.8287,-2.8126,-2.7548,-2.6912,-2.6713,-2.6304,-2.5878,-2.6276,-2.658,-2.6677,-2.7238,-2.7674,-2.7877,-2.8062,-2.8204,-2.83,-2.8326,-2.8507,-2.8473,-2.8163,-2.7919,-2.7811,-2.7812,-2.769,-2.7513,-2.7377,-2.7255,-2.7037,-2.7162,-2.6955,-2.6749,-2.6293,-2.6101,-2.5937,-2.5553,-2.5157,-2.509,-2.5173,-2.531,-2.5595,-2.6126,-2.6908,-2.743,-2.8372,-2.8852,-2.9305,-2.9743,-3.0284,-3.1011,-3.206,-3.2868,-3.3405,-3.4256,-3.521,-3.5572,-3.5515,-3.5805,-3.6498,-3.6886,-3.6635,-3.1623,-3.1623,-3.1054,-3.0687,-3.0051,-2.928,-2.874,-2.829,-2.7691,-2.7473,-2.7413,-2.7184,-2.7353,-2.7811,-2.7848,-2.8113,-2.8536,-2.8572,-2.8608,-2.8584,-2.856,-2.8367,-2.8053,-2.8174,-2.8258,-2.8484,-2.9193,-2.895,-2.8548,-2.9159,-2.8654,-2.7759,-2.7296,-2.605,-2.4966,-2.5555,-2.5914,-2.5878,-2.7087,-2.8552,-2.9654,-2.9873,-2.9887,-2.9887,-2.9873,-2.99,-2.9847,-2.9833,-2.9646,-2.9152,-2.9112,-2.8938,-2.8724,-2.8911,-2.8765,-2.8672,-2.8452,-2.8194,-2.7953,-2.7062,-2.6628,-2.7003,-2.7003,-2.7075,-2.7238,-2.7661,-2.7864,-2.7785,-2.8082,-2.822,-2.8023,-2.8127,-2.8359,-2.8642,-2.8783,-2.884,-2.862,-2.8673,-2.8655,-2.8613,-2.8361,-2.8221,-2.7969,-2.7647,-2.7368,-2.7311,-2.678,-2.6336,-2.5814,-2.5323,-2.5052,-2.477,-2.4878,-2.4985,-2.5267,-2.5723,-2.6819,-2.7748,-2.8729,-2.9524,-2.9844,-3.0171,-3.051,-3.1268,-3.2495,-3.3149,-3.3562,-3.4586,-3.5817,-3.6368,-3.6344,-3.6651,-3.7184,-3.7267,-3.7174,-3.1316,-3.1316,-3.0765,-3.0708,-3.0458,-2.9469,-2.8966,-2.8753,-2.8059,-2.7703,-2.7667,-2.7449,-2.7534,-2.7836,-2.8017,-2.8198,-2.8355,-2.8524,-2.862,-2.862,-2.862,-2.8584,-2.8439,-2.8487,-2.8512,-2.8703,-2.9098,-2.9313,-2.9363,-2.9746,-3.0293,-2.9823,-2.846,-2.764,-2.6001,-2.6191,-2.6218,-2.5826,-2.7417,-2.8882,-2.9482,-2.982,-2.9913,-2.9913,-2.9913,-2.9913,-2.9913,-2.9913,-2.9847,-2.97,-2.9499,-2.9259,-2.9032,-2.9032,-2.895,-2.8894,-2.9013,-2.8869,-2.8514,-2.8063,-2.792,-2.7558,-2.7365,-2.7087,-2.7355,-2.7675,-2.7797,-2.7849,-2.8129,-2.8193,-2.8283,-2.8541,-2.8655,-2.8992,-2.9495,-2.9816,-2.9745,-2.948,-2.9311,-2.9128,-2.9001,-2.8655,-2.8193,-2.8358,-2.8175,-2.7905,-2.7353,-2.6654,-2.5882,-2.5283,-2.5026,-2.4784,-2.4931,-2.5079,-2.596,-2.656,-2.7583,-2.8496,-2.9592,-3.0611,-3.0772,-3.0814,-3.1301,-3.2041,-3.3027,-3.3586,-3.4082,-3.5469,-3.6916,-3.7048,-3.7176,-3.7312,-3.7349,-3.7686,-3.7686,-3.1678,-3.1423,-3.0739,-3.0655,-3.0622,-2.9721,-2.9218,-2.908,-2.8494,-2.8197,-2.7974,-2.784,-2.7751,-2.7993,-2.8137,-2.8258,-2.8415,-2.8536,-2.862,-2.862,-2.862,-2.862,-2.8584,-2.8512,-2.8475,-2.8584,-2.9196,-2.9388,-2.9567,-3.0128,-3.0051,-2.9772,-2.9128,-2.731,-2.5791,-2.6375,-2.6446,-2.578,-2.7496,-2.8942,-2.9526,-2.9766,-2.9913,-2.9913,-2.9913,-2.9913,-2.9913,-2.9913,-2.9913,-2.9873,-2.9766,-2.9553,-2.9339,-2.9366,-2.9282,-2.8929,-2.8921,-2.8834,-2.8256,-2.7933,-2.7752,-2.8101,-2.7752,-2.7875,-2.7966,-2.8238,-2.8126,-2.8142,-2.8087,-2.8318,-2.8487,-2.8655,-2.8824,-2.9509,-2.9844,-3.0179,-3.0332,-3.0317,-3.0107,-2.9907,-2.975,-2.9449,-2.931,-2.9065,-2.8489,-2.7985,-2.7616,-2.6914,-2.6001,-2.5442,-2.5133,-2.4931,-2.5079,-2.552,-2.6399,-2.745,-2.8718,-2.9615,-3.068,-3.1695,-3.2359,-3.2392,-3.2287,-3.3055,-3.3814,-3.4484,-3.5331,-3.6585,-3.7529,-3.7759,-3.7748,-3.7576,-3.7531,-3.775,-3.7819,-3.2481,-3.1948,-3.1102,-3.0967,-3.091,-2.9865,-2.939,-2.9581,-2.8992,-2.8508,-2.8359,-2.7974,-2.801,-2.8089,-2.8174,-2.8367,-2.856,-2.8608,-2.862,-2.862,-2.862,-2.8572,-2.85,-2.8367,-2.8331,-2.8548,-2.9098,-2.9301,-2.9363,-2.9746,-2.9658,-2.8521,-2.82,-2.661,-2.4988,-2.5615,-2.6048,-2.5472,-2.7206,-2.8824,-2.9459,-2.9713,-2.99,-2.9913,-2.9913,-2.9913,-2.9913,-2.9734,-2.9734,-2.9734,-2.9734,-2.9601,-2.9508,-2.9561,-2.9462,-2.8665,-2.8693,-2.8436,-2.8088,-2.7558,-2.7571,-2.8474,-2.8294,-2.8565,-2.8679,-2.867,-2.8565,-2.839,-2.8136,-2.8318,-2.8655,-2.9074,-2.9397,-3.004,-3.0208,-3.0556,-3.068,-3.0861,-3.0723,-3.0607,-3.0432,-2.9992,-2.9777,-2.9457,-2.89,-2.8271,-2.7763,-2.7173,-2.6242,-2.5653,-2.552,-2.552,-2.5814,-2.6677,-2.768,-2.8764,-3.0018,-3.1036,-3.1878,-3.2833,-3.3833,-3.4277,-3.4349,-3.4043,-3.471,-3.5418,-3.6166,-3.7095,-3.7758,-3.8279,-3.8316,-3.7979,-3.7933,-3.7692,-3.7809,-3.3828,-3.3686,-3.2449,-3.2135,-3.2115,-3.0307,-2.9689,-2.9857,-2.9269,-2.8729,-2.852,-2.8162,-2.805,-2.8083,-2.8125,-2.8355,-2.8572,-2.8596,-2.8608,-2.862,-2.8608,-2.8536,-2.8318,-2.8222,-2.8222,-2.8448,-2.8839,-2.9115,-2.9147,-2.9554,-2.9098,-2.7889,-2.7019,-2.5593,-2.4426,-2.4367,-2.4879,-2.5121,-2.682,-2.8225,-2.9083,-2.9593,-2.9873,-2.986,-2.9833,-2.9847,-2.9707,-2.9528,-2.9362,-2.9362,-2.9015,-2.8809,-2.8758,-2.9156,-2.8963,-2.8578,-2.8424,-2.8294,-2.8101,-2.7739,-2.8101,-2.8642,-2.8462,-2.8195,-2.8328,-2.8483,-2.8393,-2.835,-2.8318,-2.8318,-2.8824,-2.9312,-2.9874,-3.0322,-3.0672,-3.0942,-3.0978,-3.1022,-3.111,-3.0978,-3.0788,-3.0539,-3.0144,-2.969,-2.9076,-2.8461,-2.7915,-2.7459,-2.6729,-2.6192,-2.6093,-2.6253,-2.6546,-2.784,-2.9122,-3.029,-3.1565,-3.2329,-3.3241,-3.4127,-3.5192,-3.6228,-3.6498,-3.5885,-3.5852,-3.6375,-3.6955,-3.7661,-3.8031,-3.8393,-3.8485,-3.8262,-3.8054,-3.8004,-3.781,-3.4492,-3.4388,-3.3542,-3.33,-3.313,-3.151,-3.0785,-3.0711,-2.969,-2.9154,-2.8888,-2.8556,-2.8248,-2.8234,-2.8089,-2.8355,-2.8524,-2.8451,-2.8487,-2.8572,-2.8608,-2.8475,-2.8198,-2.8265,-2.8393,-2.8531,-2.9017,-2.9256,-2.9147,-2.9375,-2.8715,-2.7256,-2.6252,-2.5087,-2.3498,-2.3435,-2.4102,-2.5063,-2.6448,-2.8017,-2.8871,-2.9486,-2.9659,-2.9673,-2.9389,-2.9185,-2.9317,-2.8795,-2.8693,-2.8796,-2.8655,-2.8474,-2.8474,-2.8474,-2.8281,-2.8113,-2.8113,-2.7933,-2.7752,-2.739,-2.7739,-2.8281,-2.8101,-2.8195,-2.8328,-2.8456,-2.8393,-2.8323,-2.8487,-2.8655,-2.916,-2.9649,-3.0197,-3.0759,-3.0942,-3.1154,-3.1256,-3.13,-3.1285,-3.1242,-3.1139,-3.0832,-3.0276,-2.9793,-2.9237,-2.8695,-2.8139,-2.7744,-2.7231,-2.7217,-2.7247,-2.78,-2.8282,-2.9488,-3.0673,-3.1659,-3.2774,-3.3699,-3.4539,-3.5442,-3.6246,-3.7122,-3.7504,-3.7288,-3.7396,-3.7238,-3.7679,-3.8213,-3.8444,-3.8499,-3.8268,-3.8127,-3.8238,-3.8168,-3.7912,-3.5425,-3.5212,-3.4685,-3.4507,-3.3993,-3.256,-3.1749,-3.1527,-3.0261,-2.9534,-2.9391,-2.9009,-2.8544,-2.8273,-2.8095,-2.8174,-2.8427,-2.8246,-2.8355,-2.8679,-2.8788,-2.8654,-2.8576,-2.8543,-2.8806,-2.8893,-2.9212,-2.9525,-2.9507,-2.9645,-2.8212,-2.6873,-2.6205,-2.4843,-2.2626,-2.3241,-2.4096,-2.5,-2.6224,-2.7779,-2.8696,-2.9259,-2.9392,-2.9392,-2.8815,-2.8478,-2.8647,-2.8232,-2.8182,-2.8155,-2.8256,-2.8113,-2.8113,-2.7739,-2.7558,-2.7558,-2.7558,-2.7377,-2.7208,-2.7027,-2.739,-2.8281,-2.8281,-2.8335,-2.8439,-2.8672,-2.8617,-2.8426,-2.8487,-2.8992,-2.9328,-2.9915,-3.0504,-3.0898,-3.1051,-3.1081,-3.1388,-3.1534,-3.1563,-3.152,-3.149,-3.1139,-3.0583,-3.01,-2.9603,-2.9338,-2.8773,-2.9002,-2.8653,-2.8927,-2.9096,-2.976,-3.05,-3.1337,-3.232,-3.3121,-3.3978,-3.4788,-3.5677,-3.6461,-3.7104,-3.7714,-3.8043,-3.8,-3.8091,-3.795,-3.8377,-3.8609,-3.854,-3.8381,-3.8094,-3.7916,-3.7721,-3.777,-3.7795,-3.7122,-3.727,-3.5991,-3.5304,-3.4834,-3.2865,-3.1637,-3.1248,-3.0366,-2.9607,-2.9273,-2.9119,-2.8614,-2.8,-2.7634,-2.7679,-2.7944,-2.8338,-2.8637,-2.8962,-2.9289,-2.9417,-2.9331,-2.9242,-2.9254,-2.9492,-2.9512,-2.9454,-2.9759,-3.0213,-2.8962,-2.6964,-2.6205,-2.4949,-2.2519,-2.3624,-2.428,-2.4867,-2.6234,-2.7584,-2.8308,-2.8884,-2.8911,-2.8897,-2.8496,-2.8134,-2.8049,-2.7687,-2.7343,-2.7238,-2.7279,-2.7196,-2.7208,-2.7208,-2.7027,-2.7027,-2.7027,-2.7208,-2.7377,-2.739,-2.7571,-2.8462,-2.8642,-2.8704,-2.8776,-2.8419,-2.8297,-2.8203,-2.8655,-2.8992,-2.9537,-3.0225,-3.0576,-3.0942,-3.1154,-3.1256,-3.149,-3.1798,-3.1827,-3.2087,-3.2087,-3.1631,-3.1101,-3.0616,-3.0115,-2.9822,-2.9747,-2.9849,-3.015,-3.0614,-3.086,-3.1376,-3.2236,-3.3099,-3.3652,-3.4576,-3.51,-3.5849,-3.6563,-3.7319,-3.7723,-3.8126,-3.8298,-3.8554,-3.854,-3.8437,-3.8437,-3.8491,-3.8419,-3.8168,-3.8114,-3.7596,-3.692,-3.723,-3.7709,-3.7528,-3.7655,-3.7128,-3.6678,-3.6168,-3.4546,-3.348,-3.2369,-3.1415,-3.042,-2.9568,-2.9015,-2.8446,-2.794,-2.783,-2.8124,-2.8716,-2.8979,-2.9243,-2.9545,-2.9658,-2.9798,-2.9759,-2.9781,-2.9968,-3.0013,-3.0147,-3.0385,-3.0608,-3.0453,-2.9467,-2.7395,-2.7021,-2.5571,-2.305,-2.4302,-2.4899,-2.565,-2.7041,-2.8269,-2.8485,-2.8446,-2.8446,-2.826,-2.7254,-2.692,-2.6897,-2.6594,-2.6294,-2.6259,-2.634,-2.6652,-2.6664,-2.6664,-2.6845,-2.7377,-2.7377,-2.7558,-2.7558,-2.7739,-2.8294,-2.8655,-2.8796,-2.8934,-2.8911,-2.8537,-2.8163,-2.815,-2.881,-2.9328,-2.9691,-3.0279,-3.0846,-3.1285,-3.1329,-3.1681,-3.1856,-3.1959,-3.2134,-3.2411,-3.2425,-3.2096,-3.1579,-3.1377,-3.0986,-3.0897,-3.1118,-3.1566,-3.2059,-3.277,-3.2826,-3.3023,-3.3833,-3.4829,-3.5154,-3.5758,-3.6121,-3.6709,-3.7075,-3.7759,-3.7998,-3.8346,-3.8499,-3.8795,-3.8689,-3.8722,-3.8483,-3.8429,-3.8451,-3.8217,-3.8146,-3.7713,-3.7317,-3.737,-3.7923,-3.804,-3.7855,-3.7671,-3.7464,-3.6948,-3.6036,-3.4713,-3.3246,-3.2138,-3.1069,-2.9993,-2.9093,-2.8635,-2.8359,-2.8519,-2.8756,-2.9292,-2.9583,-2.9848,-3.0165,-3.0267,-3.0203,-3.0441,-3.0525,-3.0542,-3.0333,-3.0584,-3.1049,-3.1249,-3.091,-2.9721,-2.7803,-2.7134,-2.5935,-2.4588,-2.4775,-2.5476,-2.5826,-2.7284,-2.7991,-2.7878,-2.7628,-2.7628,-2.7221,-2.6436,-2.5701,-2.5735,-2.5898,-2.5642,-2.5795,-2.6316,-2.6652,-2.6664,-2.6664,-2.6845,-2.7377,-2.7558,-2.7739,-2.792,-2.8294,-2.8474,-2.8809,-2.8911,-2.9238,-2.9057,-2.8657,-2.8534,-2.8601,-2.9281,-2.9761,-3.0057,-3.0605,-3.116,-3.152,-3.1593,-3.2046,-3.2398,-3.231,-3.2425,-3.2614,-3.2758,-3.2752,-3.2384,-3.2145,-3.2011,-3.1968,-3.2339,-3.2989,-3.3871,-3.4601,-3.4723,-3.464,-3.5079,-3.5924,-3.6143,-3.6677,-3.7118,-3.7466,-3.7833,-3.8108,-3.831,-3.8511,-3.8627,-3.8833,-3.8848,-3.8812,-3.8615,-3.8465,-3.8494,-3.8093,-3.7892,-3.7962,-3.7882,-3.7841,-3.8047,-3.8759,-3.8424,-3.7855,-3.748,-3.7146,-3.602,-3.4925,-3.3455,-3.2347,-3.1097,-2.9967,-2.9624,-2.9391,-2.935,-2.9199,-2.9339,-2.9441,-2.9619,-3.0149,-3.0466,-3.076,-3.1041,-3.1328,-3.1383,-3.1236,-3.1169,-3.1369,-3.1583,-3.1651,-3.091,-2.9695,-2.7984,-2.7494,-2.6138,-2.5633,-2.5717,-2.6351,-2.6498,-2.7373,-2.7207,-2.705,-2.6897,-2.7068,-2.6885,-2.6481,-2.6116,-2.5995,-2.6163,-2.6114,-2.6021,-2.6425,-2.6652,-2.6664,-2.6664,-2.6845,-2.7196,-2.7558,-2.792,-2.8294,-2.8474,-2.8835,-2.9117,-2.9343,-2.9362,-2.9366,-2.9138,-2.9152,-2.9376,-2.9824,-3.0395,-3.0781,-3.1396,-3.1681,-3.1783,-3.1871,-3.209,-3.2368,-3.2587,-3.2703,-3.2847,-3.3105,-3.3345,-3.3321,-3.3057,-3.3116,-3.3098,-3.4166,-3.4831,-3.5634,-3.6388,-3.6298,-3.634,-3.6376,-3.6787,-3.6824,-3.7191,-3.7649,-3.7851,-3.8089,-3.8328,-3.8511,-3.8731,-3.8791,-3.8777,-3.8816,-3.8617,-3.8544,-3.8571,-3.8504,-3.809,-3.7957,-3.8009,-3.8009,-3.7809,-3.8015,-3.8942,-3.8759,-3.8575,-3.8327,-3.7831,-3.7464,-3.6506,-3.5208,-3.3691,-3.1596,-2.9581,-2.9469,-2.952,-2.9543,-3.0,-3.0046,-3.0376,-3.0668,-3.091,-3.1328,-3.1623,-3.184,-3.2164,-3.2285,-3.2349,-3.2239,-3.2308,-3.2055,-3.1705,-3.076,-3.0344,-2.9208,-2.8392,-2.7488,-2.7203,-2.7191,-2.7781,-2.8092,-2.8165,-2.7952,-2.7693,-2.7393,-2.7393,-2.705,-2.6908,-2.6413,-2.6338,-2.6443,-2.6234,-2.6187,-2.6473,-2.6604,-2.6845,-2.6845,-2.7027,-2.739,-2.7739,-2.8101,-2.8822,-2.9015,-2.9182,-2.9488,-2.9482,-2.9499,-2.9499,-2.9219,-2.9246,-2.9713,-3.0274,-3.0662,-3.1124,-3.1468,-3.1827,-3.2002,-3.2163,-3.2295,-3.2558,-3.2661,-3.3041,-3.3375,-3.3838,-3.4266,-3.4142,-3.4128,-3.4226,-3.444,-3.5583,-3.655,-3.6976,-3.7276,-3.7129,-3.7264,-3.7283,-3.7374,-3.7411,-3.7778,-3.8181,-3.8273,-3.8346,-3.8475,-3.864,-3.8933,-3.8956,-3.8831,-3.8725,-3.8762,-3.8722,-3.8802,-3.8663,-3.8345,-3.8351,-3.8542,-3.8202,-3.7811,-3.7947,-3.9491,-3.9308,-3.9491,-3.9125,-3.8408,-3.8591,-3.7504,-3.5909,-3.4576,-3.2478,-2.9832,-2.9913,-2.9964,-3.0026,-3.0473,-3.087,-3.1204,-3.1447,-3.165,-3.1853,-3.2029,-3.2421,-3.2597,-3.2744,-3.262,-3.2481,-3.2432,-3.2219,-3.1434,-3.0393,-3.0549,-3.0598,-3.0341,-2.9335,-2.9196,-2.9205,-2.9689,-2.9867,-2.9579,-2.8977,-2.8738,-2.8247,-2.7939,-2.7457,-2.746,-2.7172,-2.6906,-2.7103,-2.6998,-2.688,-2.6834,-2.7003,-2.7027,-2.7027,-2.7377,-2.7739,-2.8101,-2.8281,-2.9002,-2.9375,-2.9554,-2.9707,-2.978,-2.9646,-2.9553,-2.9582,-2.992,-3.0216,-3.0713,-3.102,-3.1555,-3.2004,-3.2237,-3.2412,-3.2427,-3.2529,-3.2954,-3.3204,-3.3571,-3.3937,-3.437,-3.4768,-3.464,-3.4606,-3.4572,-3.4875,-3.5725,-3.6464,-3.6844,-3.7185,-3.7285,-3.7477,-3.7741,-3.7851,-3.7998,-3.8218,-3.8401,-3.8438,-3.8511,-3.8548,-3.8731,-3.8988,-3.9061,-3.8791,-3.8777,-3.8816,-3.9068,-3.9102,-3.9021,-3.8751,-3.881,-3.8715,-3.8032,-3.7639,-3.7861,-4.0186,-3.9873,-4.0368,-3.964,-3.8526,-3.8942,-3.7417,-3.5044,-3.4647,-3.3171,-3.0728,-3.081,-3.0942,-3.1049,-3.1261,-3.1421,-3.146,-3.1677,-3.1677,-3.1664,-3.2043,-3.2232,-3.2421,-3.2569,-3.2459,-3.1558,-3.1692,-3.1677,-3.0955,-3.0306,-3.0933,-3.2025,-3.1712,-3.1218,-3.1487,-3.1732,-3.1457,-3.0563,-3.0227,-2.9713,-2.9296,-2.8908,-2.8771,-2.8523,-2.8717,-2.8629,-2.836,-2.8576,-2.8433,-2.792,-2.797,-2.8239,-2.8189,-2.8138,-2.8307,-2.8344,-2.8513,-2.868,-2.9208,-2.9568,-2.9913,-3.0093,-2.9998,-3.0012,-3.0052,-3.0191,-3.0657,-3.1077,-3.1515,-3.2117,-3.2514,-3.2705,-3.2676,-3.2676,-3.2661,-3.2852,-3.3279,-3.3646,-3.4174,-3.4525,-3.4844,-3.4878,-3.4938,-3.4887,-3.4703,-3.519,-3.6114,-3.6481,-3.6621,-3.6916,-3.7174,-3.7421,-3.786,-3.8255,-3.8383,-3.8475,-3.8603,-3.864,-3.864,-3.864,-3.864,-3.875,-3.8768,-3.8572,-3.881,-3.8995,-3.9321,-3.963,-3.9429,-3.9395,-3.9137,-3.8819,-3.8135,-3.7791,-3.8152,-3.9295,-3.9312,-3.9669,-3.9312,-3.8661,-3.8927,-3.8165,-3.6355,-3.4498,-3.2521,-3.1245,-3.1102,-3.1223,-3.1316,-3.1503,-3.1677,-3.1677,-3.1677,-3.1677,-3.1297,-3.1664,-3.1664,-3.1664,-3.2016,-3.1894,-3.1383,-3.1517,-3.1225,-3.0626,-3.016,-3.1269,-3.2366,-3.3111,-3.3105,-3.2477,-3.2285,-3.1806,-3.1969,-3.1582,-3.1222,-3.0946,-3.067,-3.0478,-3.006,-3.0731,-3.0724,-3.0214,-3.0465,-3.0241,-2.9598,-2.9637,-2.9103,-2.8962,-2.886,-2.8783,-2.8703,-2.8754,-2.9118,-2.9766,-3.042,-3.0616,-3.0629,-3.0616,-3.0794,-3.0794,-3.0973,-3.1329,-3.1685,-3.1877,-3.2409,-3.2572,-3.2749,-3.2734,-3.2911,-3.2911,-3.3264,-3.3646,-3.4174,-3.47,-3.5225,-3.5558,-3.5729,-3.5873,-3.5804,-3.5689,-3.5248,-3.6022,-3.5991,-3.6079,-3.6552,-3.7005,-3.7288,-3.7765,-3.839,-3.8731,-3.8676,-3.875,-3.8823,-3.875,-3.864,-3.864,-3.864,-3.8805,-3.8933,-3.9043,-3.9153,-3.9575,-3.9978,-4.005,-3.9928,-3.9769,-3.9366,-3.8666,-3.8494,-3.8512,-3.8746,-3.8923,-3.9294,-3.9294,-3.9008,-3.8728,-3.7724,-3.5959,-3.3582,-3.1724,-3.1316,-3.1316,-3.1383,-3.145,-3.1557,-3.1677,-3.1677,-3.1677,-3.1474,-3.1107,-3.1474,-3.1284,-3.1297,-3.1284,-3.1381,-3.1086,-3.0812,-3.0498,-2.9713,-2.9518,-3.044,-3.2155,-3.3808,-3.4004,-3.3478,-3.3336,-3.3365,-3.3341,-3.3158,-3.2817,-3.2492,-3.2393,-3.2225,-3.2125,-3.2418,-3.2883,-3.2487,-3.2219,-3.207,-3.1396,-3.0729,-2.9935,-2.9886,-2.952,-2.943,-2.9546,-2.9769,-3.0318,-3.0981,-3.1319,-3.1553,-3.1346,-3.1399,-3.1329,-3.1329,-3.1507,-3.1685,-3.1877,-3.2054,-3.2409,-3.2763,-3.2763,-3.294,-3.294,-3.3293,-3.3646,-3.4174,-3.4875,-3.5399,-3.5922,-3.6237,-3.6559,-3.6841,-3.693,-3.6902,-3.6242,-3.5799,-3.5932,-3.6043,-3.6447,-3.7131,-3.7589,-3.7873,-3.8426,-3.8713,-3.8695,-3.8805,-3.8988,-3.8878,-3.8872,-3.864,-3.8658,-3.8896,-3.9116,-3.9208,-3.941,-3.996,-4.0382,-4.0545,-4.0559,-4.05,-4.0046,-3.9366,-3.9195,-3.9025,-3.8695,-3.8889,-3.9243,-3.9385,-3.9049,-3.7614,-3.565,-3.3415,-3.1929,-3.133,-3.161,-3.1557,-3.157,-3.1637,-3.1677,-3.1677,-3.1677,-3.1677,-3.1284,-3.0903,-3.1093,-3.0903,-3.0713,-3.0713,-3.028,-2.9924,-2.9604,-2.9212,-2.8543,-2.9135,-2.9809,-3.1314,-3.3511,-3.3962,-3.4199,-3.421,-3.4488,-3.4552,-3.4248,-3.3944,-3.3571,-3.3625,-3.3614,-3.3528,-3.3639,-3.3661,-3.3434,-3.3175,-3.2846,-3.2382,-3.1679,-3.1718,-3.1543,-3.1326,-3.1047,-3.0993,-3.1348,-3.1716,-3.2042,-3.235,-3.2513,-3.2247,-3.1883,-3.1578,-3.1507,-3.1877,-3.2054,-3.2232,-3.2424,-3.2586,-3.2763,-3.294,-3.3117,-3.3293,-3.3822,-3.4174,-3.4859,-3.5399,-3.5922,-3.6443,-3.6946,-3.7313,-3.7624,-3.7755,-3.7944,-3.763,-3.7322,-3.7436,-3.7347,-3.6938,-3.7499,-3.8013,-3.8475,-3.8621,-3.8853,-3.9067,-3.9289,-3.9671,-3.9308,-3.9141,-3.8909,-3.886,-3.9226,-3.9447,-3.9392,-3.9685,-4.0327,-4.0694,-4.0932,-4.0892,-4.0892,-4.0554,-3.9876,-3.9706,-3.9706,-3.7765,-3.7608,-3.7591,-3.7417,-3.6894,-3.4948,-3.3485,-3.2535,-3.1471,-3.1089,-3.1343,-3.1356,-3.149,-3.165,-3.1677,-3.1677,-3.1677,-3.1487,-3.0713,-3.0522,-3.0331,-2.9567,-2.8992,-2.8788,-2.8608,-2.8416,-2.8079,-2.8015,-2.832,-2.8879,-3.0193,-3.1736,-3.3111,-3.3851,-3.4185,-3.4323,-3.4631,-3.4973,-3.4856,-3.4493,-3.4449,-3.4578,-3.4595,-3.4624,-3.4674,-3.4682,-3.4421,-3.3876,-3.3766,-3.3741,-3.3064,-3.2873,-3.3155,-3.2523,-3.2218,-3.2204,-3.2589,-3.2959,-3.3101,-3.3225,-3.3329,-3.2974,-3.2786,-3.2612,-3.2496,-3.2409,-3.2586,-3.2763,-3.2778,-3.294,-3.3117,-3.3117,-3.347,-3.3998,-3.4509,-3.5193,-3.5906,-3.66,-3.7119,-3.7636,-3.798,-3.8289,-3.8576,-3.8891,-3.9093,-3.8879,-3.8922,-3.8977,-3.87,-3.8298,-3.8043,-3.8559,-3.9003,-3.931,-3.9598,-3.9813,-4.0095,-4.0302,-3.9973,-3.9794,-3.9801,-3.9807,-4.0047,-4.005,-3.9978,-4.0308,-4.0785,-4.1024,-4.106,-4.106,-4.106,-4.0723,-4.0385,-4.0216,-4.0216,-3.6773,-3.6253,-3.6237,-3.5874,-3.5003,-3.3425,-3.2326,-3.1833,-3.0988,-3.0835,-3.1196,-3.1223,-3.1383,-3.1637,-3.1677,-3.1677,-3.1677,-3.1677,-3.1093,-3.0331,-2.9579,-2.8992,-2.8224,-2.7453,-2.7453,-2.726,-2.7295,-2.7204,-2.8215,-2.9628,-3.1176,-3.1385,-3.2646,-3.3326,-3.367,-3.4134,-3.4374,-3.4624,-3.4711,-3.4812,-3.4871,-3.5191,-3.5368,-3.525,-3.5385,-3.5433,-3.5154,-3.4626,-3.4599,-3.4547,-3.3849,-3.3352,-3.3587,-3.3247,-3.3084,-3.307,-3.3457,-3.3658,-3.3987,-3.3925,-3.3788,-3.351,-3.3319,-3.3056,-3.3073,-3.3117,-3.3293,-3.3293,-3.3293,-3.3132,-3.3308,-3.3485,-3.3998,-3.4509,-3.5367,-3.641,-3.7102,-3.7791,-3.8323,-3.8666,-3.9007,-3.9348,-3.9582,-4.0096,-4.025,-4.0161,-4.0454,-4.0665,-4.0377,-3.9786,-3.9235,-3.9299,-3.955,-3.9801,-4.011,-4.0477,-4.0527,-4.0754,-4.065,-4.0527,-4.0628,-4.0558,-4.0269,-4.0455,-4.0694,-4.0914,-4.1173,-4.1042,-4.106,-4.1229,-4.1229,-4.106,-4.0892,-4.0892,-4.0723,-3.5732,-3.505,-3.5193,-3.4653,-3.3425,-3.2911,-3.2033,-3.1235,-3.0927,-3.0688,-3.1142,-3.1223,-3.1383,-3.1637,-3.1677,-3.1677,-3.1677,-3.1677,-3.1284,-3.0713,-2.9949,-2.9184,-2.8224,-2.7646,-2.726,-2.6874,-2.6897,-2.7352,-2.8557,-2.9884,-3.0764,-3.1086,-3.2516,-3.3118,-3.3267,-3.3785,-3.4248,-3.4305,-3.458,-3.4624,-3.4841,-3.5206,-3.553,-3.5082,-3.5376,-3.5791,-3.5095,-3.482,-3.4743,-3.4441,-3.4152,-3.3666,-3.3782,-3.3746,-3.3667,-3.3685,-3.4046,-3.4233,-3.4391,-3.4373,-3.411,-3.3802,-3.3495,-3.359,-3.3769,-3.353,-3.347,-3.3822,-3.3646,-3.3646,-3.3837,-3.4334,-3.4859,-3.5716,-3.6584,-3.7447,-3.8135,-3.8906,-3.9388,-3.973,-3.9901,-4.0037,-4.0367,-4.0709,-4.0971,-4.1082,-4.1631,-4.1953,-4.1771,-4.0972,-4.0648,-4.0129,-4.0407,-4.0679,-4.0674,-4.1024,-4.0979,-4.0972,-4.1238,-4.1447,-4.1569,-4.1203,-4.06,-4.0842,-4.0914,-4.1137,-4.121,-4.1229,-4.1397,-4.1397,-4.1565,-4.1546,-4.1378,-4.1397,-4.1397,-3.5367,-3.4875,-3.4158,-3.3631,-3.294,-3.2395,-3.2226,-3.2152,-3.161,-3.1423,-3.1156,-3.1249,-3.1396,-3.1867,-3.1894,-3.1894,-3.1853,-3.1853,-3.1093,-3.07,-3.0128,-2.9363,-2.8212,-2.7634,-2.7067,-2.6681,-2.6885,-2.7874,-2.9127,-3.0152,-3.0728,-3.1482,-3.2367,-3.2418,-3.2766,-3.3429,-3.3556,-3.3944,-3.3902,-3.4276,-3.4768,-3.4812,-3.5039,-3.4867,-3.5026,-3.5109,-3.4405,-3.4177,-3.4313,-3.446,-3.4241,-3.4253,-3.4696,-3.4297,-3.4188,-3.4378,-3.4508,-3.4508,-3.468,-3.4578,-3.4559,-3.4721,-3.4636,-3.4668,-3.4545,-3.3841,-3.3661,-3.4013,-3.4174,-3.4174,-3.4349,-3.5034,-3.5716,-3.6757,-3.7653,-3.8529,-3.9401,-3.9937,-4.0475,-4.0665,-4.0665,-4.0844,-4.1001,-4.121,-4.1491,-4.1955,-4.2436,-4.2779,-4.2616,-4.2067,-4.2037,-4.1689,-4.1481,-4.1519,-4.1515,-4.1843,-4.1952,-4.2268,-4.2539,-4.2548,-4.2373,-4.1782,-4.1045,-4.0934,-4.1024,-4.121,-4.1546,-4.1546,-4.1714,-4.1733,-4.19,-4.19,-4.2049,-4.2068,-4.2068,-3.4047,-3.3573,-3.3186,-3.2999,-3.2749,-3.2232,-3.2312,-3.2503,-3.2183,-3.1969,-3.2121,-3.2189,-3.2326,-3.2586,-3.2613,-3.23,-3.2259,-3.2421,-3.2043,-3.127,-3.0509,-2.9937,-2.898,-2.8019,-2.7442,-2.7067,-2.7634,-2.8404,-2.9554,-3.0713,-3.1297,-3.1773,-3.1865,-3.195,-3.2463,-3.2634,-3.2942,-3.3611,-3.3372,-3.3629,-3.4334,-3.4488,-3.446,-3.4269,-3.4547,-3.4378,-3.4218,-3.3775,-3.4057,-3.4136,-3.4008,-3.4311,-3.461,-3.4593,-3.4508,-3.4566,-3.471,-3.471,-3.471,-3.4666,-3.4921,-3.5084,-3.5119,-3.494,-3.5326,-3.4809,-3.4679,-3.4824,-3.454,-3.4525,-3.505,-3.5558,-3.641,-3.7447,-3.8718,-3.9735,-4.0583,-4.1315,-4.1578,-4.1578,-4.1469,-4.1385,-4.1523,-4.1789,-4.2068,-4.2531,-4.3048,-4.338,-4.3109,-4.2895,-4.2903,-4.293,-4.2558,-4.2422,-4.2436,-4.2865,-4.3332,-4.3633,-4.3691,-4.3477,-4.3074,-4.2235,-4.1528,-4.1546,-4.1546,-4.1546,-4.1714,-4.1882,-4.2049,-4.2235,-4.2235,-4.2235,-4.2402,-4.2588,-4.2645,-3.2528,-3.19,-3.2178,-3.2471,-3.2557,-3.2232,-3.2219,-3.2549,-3.2619,-3.2802,-3.3177,-3.3422,-3.3591,-3.3499,-3.3555,-3.3373,-3.3247,-3.3002,-3.2611,-3.2219,-3.146,-3.0509,-2.9746,-2.9171,-2.8404,-2.8019,-2.8212,-2.8788,-2.9554,-3.07,-3.1623,-3.2096,-3.1943,-3.1702,-3.1972,-3.1973,-3.2265,-3.2619,-3.2888,-3.3042,-3.3478,-3.3957,-3.381,-3.4004,-3.446,-3.4619,-3.4231,-3.4003,-3.4044,-3.4027,-3.4055,-3.4325,-3.461,-3.4607,-3.4711,-3.4739,-3.4882,-3.4882,-3.4882,-3.4867,-3.5078,-3.5099,-3.5194,-3.5365,-3.5769,-3.5801,-3.5649,-3.5398,-3.5112,-3.5225,-3.5732,-3.6427,-3.7291,-3.8477,-3.9823,-4.1006,-4.1605,-4.2326,-4.2344,-4.2344,-4.2315,-4.221,-4.2217,-4.2312,-4.2683,-4.3125,-4.3399,-4.3546,-4.3652,-4.3496,-4.334,-4.3398,-4.332,-4.3262,-4.3301,-4.3594,-4.4101,-4.4238,-4.4277,-4.4058,-4.3722,-4.293,-4.2367,-4.2235,-4.2235,-4.2162,-4.2254,-4.2383,-4.2569,-4.2569,-4.2569,-4.2569,-4.2402,-4.2607,-4.3074,-3.2116,-3.2193,-3.2266,-3.2105,-3.1671,-3.2232,-3.2053,-3.1634,-3.2817,-3.3486,-3.3695,-3.4449,-3.4434,-3.3261,-3.3261,-3.338,-3.3394,-3.3365,-3.2974,-3.2408,-3.2219,-3.127,-3.0509,-3.0128,-2.9746,-2.9363,-2.9171,-2.9554,-3.0128,-3.1093,-3.1664,-3.1813,-3.1647,-3.1519,-3.162,-3.1777,-3.1972,-3.2352,-3.2449,-3.2371,-3.3253,-3.3643,-3.363,-3.378,-3.3926,-3.4323,-3.4299,-3.399,-3.4057,-3.415,-3.4207,-3.4199,-3.4238,-3.4488,-3.458,-3.4912,-3.5054,-3.5241,-3.5241,-3.5241,-3.5479,-3.585,-3.5944,-3.5975,-3.6183,-3.6231,-3.6031,-3.578,-3.5653,-3.5922,-3.6427,-3.7464,-3.8357,-3.9633,-4.1024,-4.1768,-4.2637,-4.2711,-4.2747,-4.2904,-4.2987,-4.2772,-4.2649,-4.2913,-4.3208,-4.3446,-4.3565,-4.3711,-4.3691,-4.3633,-4.3574,-4.3691,-4.3808,-4.4101,-4.416,-4.418,-4.4512,-4.4687,-4.4726,-4.4421,-4.4117,-4.3626,-4.3246,-4.2831,-4.2759,-4.2892,-4.2964,-4.2882,-4.2902,-4.2902,-4.2902,-4.2902,-4.2569,-4.2683,-4.3189]},{"header":{"parameterUnit":"m.s-1","parameterCategory":1,"la1":31.0,"la2":29.5877,"lo1":-88.7671,"lo2":-86.6584,"dy":0.0162,"dx":0.0185,"nx":115,"ny":88,"refTime":"2023-07-10T06:00:00:Z","depth":0,"parameterNumber":3,"parameterNumberName":"V-component_of_WINDS"},"data":[0.0,0.0,0.0,0.0,0.0,0.0,0.0,0.0,0.0,0.0,0.0,0.0,0.0,0.0,0.0,0.0,0.0,0.0,0.0,0.0,0.0,0.0,0.0,0.0,0.0,0.0,0.0,0.0,0.0,0.0,0.0,0.0,0.0,0.0,0.0,0.0,0.0,0.0,0.0,0.0,0.0,0.0,0.0,0.0,0.0,0.0,0.0,0.0,0.0,0.0,0.0,0.0,0.0,0.0,0.0,0.0,0.0,0.0,0.0,0.0,0.0,0.0,0.0,0.0,0.0,0.0,0.0,0.0,0.0,0.0,0.0,0.0,0.0,0.0,0.0,0.0,0.0,0.0,0.0,0.0,0.0,0.0,0.0,0.0,0.0,0.0,0.0,0.0,0.0,0.0,0.0,0.0,0.0,0.0,0.0,0.0,0.0,0.0,0.0,0.0,0.0,0.0,0.0,0.0,0.0,0.0,0.0,0.0,0.0,0.0,0.0,0.0,0.0,0.0,0.0,0.0,0.0,0.0,0.0,0.0,0.0,0.0,0.0,0.0,0.0,0.0,0.0,0.0,0.0,0.0,0.0,0.0,0.0,0.0,0.0,0.0,0.0,0.0,0.0,0.0,0.0,0.0,0.0,0.0,0.0,0.0,0.0,0.0,0.0,0.0,0.0,0.0,0.0,0.0,0.0,0.0,0.0,0.0,0.0,0.0,0.0,0.0,0.0,0.0,0.0,0.0,0.0,0.0,0.0,0.0,0.0,0.0,0.0,0.0,0.0,0.0,0.0,0.0,0.0,0.0,0.0,0.0,0.0,0.0,0.0,0.0,0.0,0.0,0.0,0.0,0.0,0.0,0.0,0.0,0.0,0.0,0.0,0.0,0.0,0.0,0.0,0.0,0.0,0.0,0.0,0.0,0.0,0.0,0.0,0.0,0.0,0.0,0.0,0.0,0.0,0.0,0.0,0.0,0.0,0.0,0.0,0.0,0.0,0.0,0.0,0.0,0.0,0.0,0.0,0.0,0.0,0.0,0.0,0.0,0.0,0.0,0.0,0.0,0.0,0.0,0.0,0.0,0.0,0.0,0.0,0.0,0.0,0.0,0.0,0.0,0.0,0.0,0.0,0.0,0.0,0.0,0.0,0.0,0.0,0.0,0.0,0.0,0.0,0.0,0.0,0.0,0.0,0.0,0.0,0.0,0.0,0.0,0.0,0.0,0.0,0.0,0.0,0.0,0.0,0.0,0.0,0.0,0.0,0.0,0.0,0.0,0.0,0.0,0.0,0.0,0.0,0.0,0.0,0.0,0.0,0.0,0.0,0.0,0.0,0.0,0.0,0.0,0.0,0.0,0.0,0.0,0.0,0.0,0.0,0.0,0.0,0.0,0.0,0.0,0.0,0.0,0.0,0.0,0.0,0.0,0.0,0.0,0.0,0.0,0.0,0.0,0.0,0.0,0.0,0.0,0.0,0.0,0.0,0.0,0.0,0.0,0.0,0.0,0.0,0.0,0.0,0.0,0.0,0.0,0.0,0.0,0.0,0.0,0.0,0.0,0.0,0.0,0.0,0.0,0.0,0.0,0.0,0.0,0.0,0.0,0.0,0.0,0.0,0.0,0.0,0.0,0.0,0.0,0.0,0.0,0.0,0.0,0.0,0.0,0.0,0.0,0.0,0.0,0.0,0.0,0.0,0.0,0.0,0.0,0.0,0.0,0.0,0.0,0.0,0.0,0.0,0.0,0.0,0.0,0.0,0.0,0.0,0.0,0.0,0.0,0.0,0.0,0.0,0.0,0.0,0.0,0.0,0.0,0.0,0.0,0.0,0.0,0.0,0.0,0.0,0.0,0.0,0.0,0.0,0.0,0.0,0.0,0.0,0.0,0.0,0.0,0.0,0.0,0.0,0.0,0.0,0.0,0.0,0.0,0.0,0.0,0.0,0.0,0.0,0.0,0.0,0.0,0.0,0.0,0.0,0.0,0.0,0.0,0.0,0.0,0.0,0.0,0.0,0.0,0.0,0.0,0.0,0.0,0.0,0.0,0.0,0.0,0.0,0.0,0.0,0.0,0.0,0.0,0.0,0.0,0.0,0.0,0.0,0.0,0.0,0.0,0.0,0.0,0.0,0.0,0.0,0.0,0.0,0.0,0.0,0.0,0.0,0.0,0.0,0.0,0.0,0.0,0.0,0.0,0.0,0.0,0.0,0.0,0.0,0.0,0.0,0.0,0.0,0.0,0.0,0.0,0.0,0.0,0.0,0.0,0.0,0.0,0.0,0.0,0.0,0.0,0.0,0.0,0.0,0.0,0.0,0.0,0.0,0.0,0.0,0.0,0.0,0.0,0.0,0.0,0.0,0.0,0.0,0.0,0.0,0.0,0.0,0.0,0.0,0.0,0.0,0.0,0.0,0.0,0.0,0.0,0.0,0.0,0.0,0.0,0.0,0.0,0.0,0.0,0.0,0.0,0.0,0.0,0.0,0.0,0.0,0.0,0.0,0.0,0.0,0.0,0.0,0.0,0.0,0.0,0.0,0.0,0.0,0.0,0.0,0.0,0.0,0.0,0.0,0.0,0.0,0.0,0.0,0.0,0.0,0.0,0.0,0.0,0.0,0.0,0.0,0.0,0.0,0.0,0.0,0.0,0.0,0.0,0.0,0.0,0.0,0.0,0.0,0.0,0.0,0.0,0.0,0.0,0.0,0.0,0.0,0.0,0.0,0.0,0.0,0.0,0.0,0.0,0.0,0.0,0.0,0.0,0.0,0.0,0.0,0.0,0.0,0.0,0.0,0.0,0.0,0.0,0.0,0.0,0.0,0.0,0.0,0.0,0.0,0.0,0.0,0.0,0.0,0.0,0.0,0.0,0.0,0.0,0.0,0.0,0.0,0.0,0.0,0.0,0.0,0.0,0.0,0.0,0.0,0.0,0.0,0.0,0.0,0.0,0.0,0.0,0.0,0.0,0.0,0.0,0.0,0.0,0.0,0.0,0.0,0.0,0.0,0.0,0.0,0.0,0.0,0.0,0.0,0.0,0.0,0.0,0.0,0.0,0.0,0.0,0.0,0.0,0.0,0.0,0.0,0.0,0.0,0.0,0.0,0.0,0.0,0.0,0.0,0.0,0.0,0.0,0.0,0.0,0.0,0.0,0.0,0.0,0.0,0.0,0.0,0.0,0.0,0.0,0.0,0.0,0.0,0.0,0.0,0.0,0.0,0.0,0.0,0.0,0.0,0.0,0.0,0.0,0.0,0.0,0.0,0.0,0.0,0.0,0.0,0.0,0.0,0.0,0.0,0.0,0.0,0.0,0.0,0.0,0.0,0.0,0.0,0.0,0.0,0.0,0.0,0.0,0.0,0.0,0.0,0.0,0.0,0.0,0.0,0.0,0.0,0.0,0.0,0.0,0.0,0.0,0.0,0.0,0.0,0.0,0.0,0.0,0.0,0.0,0.0,0.0,0.0,0.0,0.0,0.0,0.0,0.0,0.0,0.0,0.0,0.0,0.0,0.0,0.0,0.0,0.0,0.0,0.0,0.0,0.0,0.0,0.0,0.0,0.0,0.0,0.0,0.0,0.0,0.0,0.0,0.0,0.0,0.0,0.0,0.0,0.0,0.0,0.0,0.0,0.0,0.0,0.0,0.0,0.0,0.0,0.0,0.0,0.0,0.0,0.0,0.0,0.0,0.0,0.0,0.0,0.0,0.0,0.0,0.0,0.0,0.0,0.0,0.0,0.0,0.0,0.0,0.0,0.0,0.0,0.0,0.0,0.0,0.0,0.0,0.0,0.0,0.0,0.0,0.0,0.0,0.0,0.0,0.0,0.0,0.0,0.0,0.0,0.0,0.0,0.0,0.0,0.0,0.0,0.0,0.0,0.0,0.0,0.0,0.0,0.0,0.0,0.0,0.0,0.0,0.0,0.0,0.0,0.0,0.0,0.0,0.0,0.0,0.0,0.0,0.0,0.0,0.0,0.0,0.0,0.0,0.0,0.0,0.0,0.0,0.0,0.0,0.0,0.0,0.0,0.0,0.0,0.0,0.0,0.0,0.0,0.0,0.0,0.0,0.0,0.0,0.0,0.0,0.0,0.0,0.0,0.0,0.0,0.0,0.0,0.0,0.0,0.0,0.0,0.0,0.0,0.0,0.0,0.0,0.0,0.0,0.0,0.0,0.0,0.0,0.0,0.0,0.0,0.0,0.0,0.0,0.0,0.0,0.0,0.0,0.0,0.0,0.0,0.0,0.0,0.0,0.0,0.0,0.0,0.0,0.0,0.0,0.0,-3.1743,0.0,0.0,0.0,0.0,0.0,0.0,0.0,0.0,0.0,0.0,0.0,0.0,0.0,0.0,0.0,0.0,0.0,0.0,0.0,0.0,0.0,0.0,0.0,0.0,0.0,0.0,0.0,0.0,0.0,0.0,0.0,0.0,0.0,0.0,0.0,0.0,0.0,0.0,0.0,0.0,0.0,0.0,0.0,0.0,0.0,0.0,0.0,0.0,0.0,0.0,0.0,0.0,0.0,0.0,0.0,0.0,0.0,0.0,0.0,0.0,0.0,0.0,0.0,0.0,0.0,0.0,0.0,0.0,0.0,0.0,0.0,0.0,0.0,0.0,0.0,0.0,0.0,0.0,0.0,0.0,0.0,0.0,0.0,0.0,0.0,0.0,0.0,0.0,0.0,0.0,0.0,0.0,0.0,0.0,0.0,0.0,0.0,0.0,0.0,0.0,0.0,0.0,0.0,0.0,0.0,0.0,0.0,0.0,0.0,0.0,-3.2647,-3.2698,-3.2293,-3.2206,-3.2517,0.0,0.0,0.0,0.0,0.0,0.0,0.0,0.0,0.0,0.0,0.0,0.0,0.0,0.0,0.0,0.0,0.0,0.0,0.0,0.0,0.0,0.0,0.0,0.0,0.0,0.0,0.0,0.0,0.0,0.0,0.0,0.0,0.0,0.0,0.0,0.0,0.0,0.0,0.0,0.0,0.0,0.0,0.0,0.0,0.0,0.0,0.0,0.0,0.0,0.0,0.0,0.0,0.0,0.0,0.0,0.0,0.0,0.0,0.0,0.0,0.0,0.0,0.0,0.0,0.0,0.0,0.0,0.0,0.0,0.0,0.0,0.0,0.0,0.0,0.0,0.0,0.0,0.0,0.0,0.0,0.0,0.0,0.0,0.0,0.0,0.0,0.0,0.0,0.0,0.0,0.0,0.0,0.0,0.0,0.0,0.0,0.0,0.0,0.0,0.0,0.0,0.0,0.0,0.0,0.0,0.0,0.0,0.0,0.0,0.0,0.0,0.0,-3.2576,-3.2649,-3.3276,0.0,0.0,0.0,0.0,0.0,0.0,0.0,0.0,0.0,0.0,0.0,0.0,0.0,0.0,0.0,0.0,0.0,0.0,0.0,0.0,0.0,0.0,0.0,0.0,0.0,0.0,0.0,0.0,0.0,0.0,0.0,0.0,0.0,0.0,0.0,0.0,0.0,0.0,0.0,0.0,0.0,0.0,0.0,0.0,0.0,0.0,0.0,0.0,0.0,0.0,0.0,0.0,0.0,0.0,0.0,0.0,0.0,0.0,0.0,0.0,0.0,0.0,0.0,0.0,0.0,0.0,0.0,0.0,0.0,0.0,0.0,0.0,0.0,0.0,0.0,0.0,0.0,0.0,0.0,0.0,0.0,0.0,0.0,0.0,0.0,0.0,0.0,0.0,0.0,0.0,0.0,0.0,0.0,0.0,0.0,0.0,0.0,0.0,0.0,0.0,0.0,0.0,0.0,0.0,0.0,0.0,0.0,0.0,0.0,0.0,-3.3828,-3.3906,-3.457,0.0,-3.5343,0.0,0.0,0.0,0.0,0.0,0.0,0.0,0.0,0.0,0.0,0.0,0.0,0.0,0.0,0.0,0.0,0.0,0.0,0.0,0.0,0.0,0.0,0.0,0.0,0.0,0.0,0.0,0.0,0.0,0.0,0.0,0.0,0.0,0.0,0.0,0.0,0.0,0.0,0.0,0.0,0.0,0.0,0.0,0.0,0.0,0.0,0.0,0.0,0.0,0.0,0.0,0.0,0.0,0.0,0.0,0.0,0.0,0.0,0.0,0.0,0.0,0.0,0.0,0.0,0.0,0.0,0.0,0.0,0.0,0.0,0.0,0.0,0.0,0.0,0.0,0.0,0.0,0.0,0.0,0.0,0.0,0.0,0.0,0.0,0.0,0.0,0.0,0.0,0.0,0.0,0.0,0.0,0.0,0.0,0.0,0.0,0.0,0.0,0.0,0.0,0.0,0.0,0.0,0.0,0.0,0.0,0.0,0.0,0.0,0.0,-3.4471,-3.4191,-3.5414,-3.591,0.0,0.0,0.0,0.0,0.0,0.0,0.0,0.0,0.0,0.0,0.0,0.0,0.0,0.0,0.0,0.0,0.0,0.0,0.0,0.0,0.0,0.0,0.0,0.0,0.0,0.0,0.0,0.0,0.0,0.0,0.0,0.0,0.0,0.0,0.0,0.0,0.0,0.0,0.0,0.0,0.0,0.0,0.0,0.0,0.0,0.0,0.0,0.0,0.0,0.0,0.0,0.0,0.0,0.0,0.0,0.0,0.0,0.0,0.0,0.0,0.0,0.0,0.0,0.0,0.0,0.0,0.0,0.0,0.0,0.0,0.0,0.0,0.0,0.0,0.0,0.0,0.0,0.0,0.0,0.0,0.0,0.0,0.0,0.0,0.0,0.0,0.0,0.0,0.0,0.0,0.0,0.0,0.0,0.0,0.0,0.0,0.0,0.0,0.0,0.0,0.0,0.0,0.0,0.0,0.0,0.0,0.0,0.0,0.0,0.0,-3.4807,-3.5103,-3.4983,-3.6022,-3.6493,-3.6311,0.0,0.0,0.0,0.0,0.0,0.0,0.0,0.0,0.0,0.0,0.0,0.0,0.0,0.0,0.0,0.0,0.0,0.0,0.0,0.0,0.0,0.0,0.0,0.0,0.0,0.0,0.0,0.0,0.0,0.0,0.0,0.0,0.0,0.0,0.0,0.0,0.0,0.0,0.0,0.0,0.0,0.0,0.0,0.0,0.0,0.0,0.0,0.0,0.0,0.0,0.0,0.0,0.0,0.0,0.0,0.0,0.0,0.0,0.0,0.0,0.0,0.0,0.0,0.0,0.0,0.0,0.0,0.0,0.0,0.0,0.0,0.0,0.0,0.0,0.0,0.0,0.0,0.0,0.0,0.0,0.0,0.0,0.0,0.0,0.0,0.0,0.0,0.0,0.0,0.0,0.0,0.0,0.0,0.0,0.0,0.0,0.0,0.0,0.0,0.0,0.0,0.0,0.0,0.0,0.0,0.0,0.0,0.0,-3.6186,-3.5736,-3.5825,-3.6478,-3.6589,-3.7039,0.0,0.0,0.0,0.0,0.0,0.0,0.0,0.0,0.0,0.0,0.0,0.0,0.0,0.0,0.0,0.0,0.0,0.0,0.0,0.0,0.0,0.0,0.0,0.0,0.0,0.0,0.0,0.0,0.0,0.0,0.0,0.0,0.0,0.0,0.0,0.0,0.0,0.0,0.0,0.0,0.0,0.0,0.0,0.0,0.0,0.0,0.0,0.0,0.0,0.0,0.0,0.0,0.0,0.0,0.0,0.0,0.0,0.0,0.0,0.0,0.0,0.0,0.0,0.0,0.0,0.0,0.0,0.0,0.0,0.0,0.0,0.0,0.0,0.0,0.0,0.0,0.0,0.0,0.0,0.0,0.0,0.0,0.0,0.0,0.0,0.0,0.0,0.0,0.0,0.0,0.0,0.0,0.0,0.0,0.0,0.0,0.0,0.0,0.0,0.0,0.0,0.0,0.0,0.0,0.0,0.0,0.0,0.0,0.0,-3.5119,-3.5442,-3.6422,-3.8035,-3.7798,-3.7727,0.0,0.0,0.0,0.0,0.0,0.0,0.0,0.0,0.0,0.0,0.0,0.0,0.0,0.0,0.0,0.0,0.0,0.0,0.0,0.0,0.0,0.0,0.0,0.0,0.0,0.0,0.0,0.0,0.0,0.0,0.0,0.0,0.0,0.0,0.0,0.0,0.0,0.0,0.0,0.0,0.0,0.0,0.0,0.0,0.0,0.0,0.0,0.0,0.0,0.0,0.0,0.0,0.0,0.0,0.0,0.0,0.0,0.0,0.0,0.0,0.0,0.0,0.0,0.0,0.0,0.0,0.0,0.0,0.0,0.0,0.0,0.0,0.0,0.0,0.0,0.0,0.0,0.0,0.0,0.0,0.0,0.0,0.0,0.0,0.0,0.0,0.0,0.0,0.0,0.0,0.0,0.0,0.0,0.0,0.0,0.0,0.0,0.0,0.0,0.0,0.0,0.0,0.0,0.0,0.0,0.0,0.0,0.0,0.0,-3.5627,0.0,-3.7527,-3.9036,-3.867,-3.8626,0.0,0.0,0.0,0.0,0.0,0.0,0.0,0.0,0.0,0.0,0.0,0.0,0.0,0.0,0.0,0.0,0.0,0.0,0.0,0.0,0.0,0.0,0.0,0.0,0.0,0.0,0.0,0.0,0.0,0.0,0.0,0.0,0.0,0.0,0.0,0.0,0.0,0.0,0.0,0.0,0.0,0.0,0.0,0.0,0.0,0.0,0.0,0.0,0.0,0.0,0.0,0.0,0.0,0.0,0.0,0.0,0.0,0.0,0.0,0.0,0.0,0.0,0.0,0.0,0.0,0.0,0.0,0.0,0.0,0.0,0.0,0.0,0.0,0.0,0.0,0.0,0.0,0.0,0.0,0.0,0.0,0.0,0.0,0.0,0.0,0.0,0.0,0.0,0.0,0.0,0.0,0.0,0.0,0.0,0.0,0.0,0.0,0.0,0.0,0.0,0.0,0.0,0.0,0.0,0.0,0.0,0.0,0.0,-3.8252,-3.824,-3.8654,-3.9073,-3.9447,-3.9357,-3.972,0.0,0.0,0.0,0.0,0.0,0.0,0.0,0.0,0.0,0.0,0.0,0.0,0.0,0.0,0.0,0.0,0.0,0.0,0.0,0.0,0.0,0.0,0.0,0.0,0.0,0.0,0.0,0.0,0.0,0.0,0.0,0.0,0.0,0.0,0.0,0.0,0.0,0.0,0.0,0.0,0.0,0.0,0.0,0.0,0.0,0.0,0.0,0.0,0.0,0.0,0.0,0.0,0.0,0.0,0.0,0.0,0.0,0.0,0.0,0.0,0.0,0.0,0.0,0.0,0.0,0.0,0.0,0.0,0.0,0.0,0.0,0.0,0.0,0.0,0.0,0.0,0.0,0.0,0.0,0.0,0.0,0.0,0.0,0.0,0.0,0.0,0.0,0.0,0.0,0.0,0.0,0.0,0.0,0.0,0.0,0.0,0.0,0.0,0.0,0.0,0.0,0.0,0.0,0.0,0.0,0.0,0.0,0.0,0.0,-4.004,-3.9002,-3.99,-4.2758,-4.1188,-4.0937,0.0,0.0,0.0,0.0,0.0,0.0,0.0,0.0,0.0,0.0,0.0,0.0,0.0,0.0,0.0,0.0,0.0,0.0,0.0,0.0,0.0,0.0,0.0,0.0,0.0,0.0,0.0,0.0,0.0,0.0,0.0,0.0,0.0,0.0,0.0,0.0,0.0,0.0,0.0,0.0,0.0,0.0,0.0,0.0,0.0,0.0,0.0,0.0,0.0,0.0,0.0,0.0,0.0,0.0,0.0,0.0,0.0,0.0,0.0,0.0,0.0,0.0,0.0,0.0,0.0,0.0,0.0,0.0,0.0,0.0,0.0,0.0,0.0,0.0,0.0,0.0,0.0,0.0,0.0,0.0,0.0,0.0,0.0,0.0,0.0,0.0,0.0,0.0,0.0,0.0,0.0,0.0,0.0,0.0,0.0,0.0,0.0,0.0,0.0,0.0,0.0,0.0,0.0,0.0,0.0,0.0,0.0,0.0,0.0,-4.2322,-4.0591,-4.1243,-4.4572,-4.2983,-4.2506,-4.3235,0.0,0.0,0.0,0.0,0.0,0.0,0.0,0.0,0.0,0.0,0.0,0.0,0.0,0.0,0.0,0.0,0.0,0.0,0.0,0.0,0.0,0.0,0.0,0.0,0.0,0.0,0.0,0.0,0.0,0.0,0.0,0.0,0.0,0.0,0.0,0.0,0.0,0.0,0.0,0.0,0.0,0.0,0.0,0.0,0.0,0.0,0.0,0.0,0.0,0.0,0.0,0.0,0.0,0.0,0.0,0.0,0.0,0.0,0.0,0.0,0.0,0.0,0.0,0.0,0.0,0.0,0.0,0.0,0.0,0.0,0.0,0.0,0.0,0.0,0.0,0.0,0.0,0.0,0.0,0.0,0.0,0.0,0.0,0.0,0.0,0.0,0.0,0.0,0.0,0.0,0.0,0.0,0.0,0.0,0.0,0.0,0.0,0.0,0.0,0.0,0.0,0.0,0.0,0.0,0.0,0.0,0.0,0.0,-4.5028,-4.3379,-4.3403,-4.5078,-4.4869,-4.4363,0.0,0.0,0.0,0.0,0.0,0.0,0.0,0.0,0.0,0.0,0.0,0.0,0.0,0.0,0.0,0.0,0.0,0.0,0.0,0.0,0.0,0.0,0.0,0.0,0.0,0.0,0.0,0.0,0.0,0.0,0.0,0.0,0.0,0.0,0.0,0.0,0.0,0.0,0.0,0.0,0.0,0.0,0.0,0.0,0.0,0.0,0.0,0.0,0.0,0.0,0.0,0.0,0.0,0.0,0.0,0.0,0.0,0.0,0.0,0.0,0.0,0.0,0.0,0.0,0.0,0.0,0.0,0.0,0.0,0.0,0.0,0.0,0.0,0.0,0.0,0.0,0.0,0.0,0.0,0.0,0.0,0.0,0.0,0.0,0.0,0.0,0.0,0.0,0.0,0.0,0.0,0.0,0.0,0.0,0.0,0.0,0.0,0.0,0.0,0.0,0.0,0.0,0.0,0.0,0.0,0.0,0.0,0.0,0.0,-4.6528,-4.7413,-4.8386,-4.9408,-4.8145,-4.7005,0.0,0.0,0.0,0.0,0.0,0.0,0.0,0.0,0.0,0.0,0.0,0.0,0.0,0.0,0.0,0.0,0.0,0.0,0.0,0.0,0.0,0.0,0.0,0.0,0.0,0.0,0.0,0.0,0.0,0.0,0.0,0.0,0.0,0.0,0.0,0.0,0.0,0.0,0.0,0.0,0.0,0.0,0.0,0.0,0.0,0.0,0.0,0.0,0.0,0.0,0.0,0.0,0.0,0.0,0.0,0.0,0.0,0.0,0.0,0.0,0.0,0.0,0.0,0.0,0.0,0.0,0.0,0.0,0.0,0.0,0.0,0.0,0.0,0.0,0.0,0.0,0.0,0.0,0.0,0.0,0.0,0.0,0.0,0.0,0.0,0.0,0.0,0.0,0.0,0.0,0.0,0.0,0.0,0.0,0.0,0.0,0.0,0.0,0.0,0.0,0.0,0.0,0.0,0.0,0.0,0.0,0.0,0.0,-4.6135,-4.8221,-5.0705,-5.2513,-5.3664,-5.1676,-4.9504,0.0,0.0,0.0,0.0,0.0,0.0,0.0,0.0,0.0,0.0,0.0,0.0,0.0,0.0,0.0,0.0,0.0,0.0,0.0,0.0,0.0,0.0,0.0,0.0,0.0,0.0,0.0,0.0,0.0,0.0,0.0,0.0,0.0,0.0,0.0,0.0,0.0,0.0,0.0,0.0,0.0,0.0,0.0,0.0,0.0,0.0,0.0,0.0,0.0,0.0,0.0,0.0,0.0,0.0,0.0,0.0,0.0,0.0,0.0,0.0,0.0,0.0,0.0,0.0,0.0,0.0,0.0,0.0,0.0,0.0,0.0,0.0,0.0,0.0,0.0,0.0,0.0,0.0,0.0,0.0,0.0,0.0,0.0,0.0,0.0,0.0,0.0,0.0,0.0,0.0,0.0,0.0,0.0,0.0,0.0,0.0,0.0,0.0,0.0,0.0,0.0,0.0,0.0,0.0,0.0,0.0,0.0,0.0,-4.7957,-4.9776,-5.315,-5.5675,-5.7092,-5.5001,-5.1933,0.0,0.0,0.0,0.0,0.0,0.0,0.0,0.0,0.0,0.0,0.0,0.0,0.0,0.0,0.0,0.0,0.0,0.0,0.0,0.0,0.0,0.0,0.0,0.0,0.0,0.0,0.0,0.0,0.0,0.0,0.0,0.0,0.0,0.0,0.0,0.0,0.0,0.0,0.0,0.0,0.0,0.0,0.0,0.0,0.0,0.0,0.0,0.0,0.0,0.0,0.0,0.0,0.0,0.0,0.0,0.0,0.0,0.0,0.0,0.0,0.0,0.0,0.0,0.0,0.0,0.0,0.0,0.0,0.0,0.0,0.0,0.0,0.0,0.0,0.0,0.0,0.0,0.0,0.0,0.0,0.0,0.0,0.0,0.0,0.0,0.0,0.0,0.0,0.0,0.0,0.0,0.0,0.0,0.0,0.0,0.0,0.0,0.0,0.0,0.0,0.0,0.0,0.0,0.0,0.0,0.0,0.0,0.0,-4.7608,-5.0508,-5.3918,-5.6446,-5.8106,-5.6366,-5.4031,0.0,0.0,0.0,0.0,0.0,0.0,0.0,0.0,0.0,0.0,0.0,0.0,0.0,0.0,0.0,0.0,0.0,0.0,0.0,0.0,0.0,0.0,0.0,0.0,0.0,0.0,0.0,0.0,0.0,0.0,0.0,0.0,0.0,0.0,0.0,0.0,0.0,0.0,0.0,0.0,0.0,0.0,0.0,0.0,0.0,0.0,0.0,0.0,-3.9199,0.0,0.0,0.0,0.0,0.0,0.0,0.0,0.0,0.0,0.0,0.0,0.0,0.0,0.0,0.0,0.0,0.0,0.0,0.0,0.0,0.0,0.0,0.0,0.0,0.0,0.0,0.0,0.0,0.0,0.0,0.0,0.0,0.0,0.0,0.0,0.0,0.0,0.0,0.0,0.0,0.0,0.0,0.0,0.0,0.0,0.0,0.0,0.0,0.0,0.0,0.0,0.0,0.0,0.0,0.0,0.0,0.0,0.0,0.0,-4.8198,-5.1902,-5.4533,-5.702,-5.9282,-5.751,-5.5061,0.0,0.0,0.0,0.0,0.0,0.0,0.0,0.0,0.0,0.0,0.0,0.0,0.0,0.0,0.0,0.0,0.0,0.0,0.0,0.0,0.0,0.0,0.0,0.0,0.0,0.0,0.0,0.0,0.0,0.0,0.0,0.0,0.0,0.0,0.0,0.0,0.0,0.0,0.0,0.0,0.0,0.0,0.0,0.0,0.0,0.0,0.0,0.0,0.0,0.0,0.0,0.0,0.0,0.0,0.0,0.0,0.0,0.0,0.0,0.0,0.0,0.0,0.0,0.0,0.0,0.0,0.0,0.0,0.0,0.0,0.0,0.0,0.0,0.0,0.0,0.0,0.0,0.0,0.0,0.0,0.0,0.0,0.0,0.0,0.0,0.0,0.0,0.0,0.0,0.0,0.0,0.0,0.0,0.0,0.0,0.0,0.0,0.0,0.0,0.0,0.0,0.0,0.0,0.0,0.0,0.0,0.0,-4.5969,-4.9189,-5.3338,-5.5367,-5.7853,-6.0754,-5.8872,-5.6199,-5.2962,0.0,0.0,0.0,0.0,0.0,0.0,0.0,0.0,0.0,0.0,0.0,0.0,0.0,0.0,0.0,0.0,0.0,0.0,0.0,0.0,0.0,0.0,0.0,0.0,0.0,0.0,0.0,0.0,0.0,0.0,0.0,0.0,0.0,0.0,0.0,0.0,0.0,0.0,-3.6109,-3.7326,0.0,0.0,0.0,0.0,0.0,0.0,0.0,0.0,-4.0799,0.0,0.0,0.0,0.0,0.0,0.0,0.0,0.0,0.0,0.0,0.0,0.0,0.0,0.0,0.0,0.0,0.0,0.0,0.0,0.0,0.0,0.0,0.0,0.0,0.0,0.0,0.0,0.0,0.0,0.0,0.0,0.0,0.0,0.0,0.0,0.0,0.0,0.0,0.0,0.0,0.0,0.0,0.0,0.0,0.0,0.0,0.0,0.0,0.0,0.0,0.0,0.0,0.0,0.0,0.0,0.0,-4.5247,-4.7108,-5.0101,-5.4204,-5.7356,-5.9917,-6.173,-6.143,-5.9623,-5.6271,0.0,0.0,0.0,0.0,0.0,0.0,0.0,0.0,0.0,0.0,0.0,0.0,0.0,0.0,0.0,0.0,0.0,0.0,0.0,0.0,0.0,0.0,0.0,0.0,0.0,0.0,0.0,0.0,0.0,0.0,0.0,0.0,0.0,0.0,0.0,0.0,0.0,0.0,0.0,-4.0115,-4.1525,0.0,0.0,0.0,0.0,0.0,0.0,0.0,0.0,-4.1505,0.0,0.0,0.0,0.0,0.0,0.0,0.0,0.0,0.0,0.0,0.0,0.0,0.0,0.0,0.0,0.0,0.0,0.0,0.0,0.0,0.0,0.0,0.0,0.0,0.0,0.0,0.0,0.0,0.0,0.0,0.0,0.0,0.0,0.0,0.0,0.0,0.0,0.0,0.0,0.0,0.0,0.0,0.0,0.0,0.0,0.0,0.0,0.0,0.0,0.0,0.0,0.0,0.0,0.0,0.0,-4.5717,-4.7379,-5.0327,-5.4522,-5.7012,-5.9575,-6.2027,-6.0031,-5.849,0.0,0.0,0.0,0.0,0.0,0.0,0.0,0.0,0.0,0.0,0.0,0.0,0.0,0.0,0.0,0.0,0.0,0.0,0.0,0.0,0.0,0.0,0.0,0.0,0.0,0.0,0.0,0.0,0.0,0.0,0.0,0.0,0.0,0.0,0.0,0.0,0.0,0.0,0.0,0.0,-4.1371,-4.2701,-4.2149,0.0,0.0,0.0,0.0,0.0,0.0,-4.3539,-4.2688,0.0,0.0,0.0,0.0,0.0,0.0,0.0,0.0,0.0,0.0,0.0,0.0,0.0,0.0,0.0,0.0,0.0,0.0,0.0,0.0,0.0,0.0,0.0,0.0,0.0,0.0,0.0,0.0,0.0,0.0,0.0,0.0,0.0,0.0,0.0,0.0,0.0,0.0,0.0,0.0,0.0,0.0,0.0,0.0,0.0,0.0,0.0,0.0,0.0,0.0,0.0,0.0,0.0,0.0,0.0,-4.6073,-4.7671,-5.0538,-5.4708,-5.6879,-5.945,-6.2432,-5.9228,-5.7804,0.0,0.0,0.0,0.0,0.0,0.0,0.0,0.0,0.0,0.0,0.0,0.0,0.0,0.0,0.0,0.0,0.0,0.0,0.0,0.0,0.0,0.0,0.0,0.0,0.0,0.0,0.0,0.0,0.0,0.0,0.0,0.0,0.0,0.0,0.0,0.0,0.0,0.0,0.0,0.0,0.0,-4.3717,-4.3519,-4.384,0.0,0.0,0.0,0.0,-4.6289,-4.5679,0.0,0.0,0.0,0.0,0.0,0.0,0.0,0.0,0.0,0.0,0.0,0.0,0.0,0.0,0.0,0.0,0.0,0.0,0.0,0.0,0.0,0.0,0.0,0.0,0.0,0.0,0.0,0.0,0.0,0.0,0.0,0.0,0.0,0.0,0.0,0.0,0.0,0.0,0.0,0.0,0.0,0.0,0.0,0.0,0.0,0.0,0.0,0.0,0.0,0.0,0.0,0.0,0.0,0.0,0.0,0.0,-4.693,-4.8785,-5.1423,-5.4962,-5.8867,-6.1825,-6.365,-6.2997,-6.1681,0.0,0.0,0.0,0.0,0.0,0.0,0.0,0.0,0.0,0.0,0.0,0.0,0.0,0.0,0.0,0.0,0.0,0.0,0.0,0.0,0.0,0.0,0.0,0.0,0.0,0.0,0.0,0.0,0.0,0.0,0.0,0.0,0.0,0.0,0.0,0.0,0.0,0.0,0.0,0.0,0.0,-4.5481,-4.5453,-4.6232,-4.6895,0.0,0.0,-4.907,-4.9343,-5.0412,0.0,0.0,0.0,0.0,0.0,0.0,0.0,0.0,0.0,0.0,0.0,0.0,0.0,0.0,0.0,0.0,0.0,0.0,0.0,0.0,0.0,0.0,0.0,0.0,0.0,0.0,0.0,0.0,0.0,0.0,0.0,0.0,0.0,0.0,0.0,0.0,0.0,0.0,0.0,0.0,0.0,0.0,0.0,0.0,0.0,0.0,0.0,0.0,0.0,0.0,0.0,0.0,0.0,0.0,0.0,-4.5772,-4.7953,-4.9728,-5.2368,-5.5843,-5.9569,-6.2056,-6.3144,-6.1679,-6.0524,0.0,0.0,0.0,0.0,0.0,0.0,0.0,0.0,0.0,0.0,0.0,0.0,0.0,0.0,0.0,0.0,0.0,0.0,0.0,0.0,0.0,0.0,0.0,0.0,0.0,0.0,0.0,0.0,0.0,0.0,0.0,0.0,0.0,0.0,0.0,0.0,0.0,0.0,0.0,0.0,0.0,0.0,-4.558,-4.6998,0.0,0.0,0.0,-5.0856,-5.1793,0.0,0.0,0.0,0.0,0.0,0.0,0.0,0.0,0.0,0.0,0.0,0.0,0.0,0.0,0.0,0.0,0.0,0.0,0.0,0.0,0.0,0.0,0.0,0.0,0.0,0.0,0.0,0.0,0.0,0.0,0.0,0.0,0.0,0.0,0.0,0.0,0.0,0.0,0.0,0.0,0.0,0.0,0.0,0.0,0.0,0.0,0.0,0.0,0.0,0.0,0.0,0.0,0.0,0.0,0.0,0.0,0.0,-4.9391,-5.0836,-5.3441,-5.72,-6.0147,-6.2041,-6.2628,-6.0425,0.0,0.0,0.0,0.0,0.0,0.0,0.0,0.0,0.0,0.0,0.0,0.0,0.0,0.0,0.0,0.0,0.0,0.0,0.0,0.0,0.0,0.0,0.0,0.0,0.0,0.0,0.0,-3.9002,0.0,0.0,0.0,0.0,0.0,0.0,0.0,0.0,0.0,0.0,0.0,0.0,0.0,0.0,-4.7525,-4.6244,-4.821,-4.9822,0.0,0.0,-5.2845,-5.3997,-5.4246,-5.3981,0.0,0.0,0.0,0.0,0.0,0.0,0.0,0.0,0.0,0.0,0.0,0.0,0.0,0.0,0.0,0.0,0.0,0.0,0.0,0.0,0.0,0.0,0.0,0.0,0.0,0.0,0.0,0.0,0.0,0.0,0.0,0.0,0.0,0.0,0.0,0.0,0.0,0.0,0.0,0.0,0.0,0.0,0.0,0.0,0.0,0.0,0.0,0.0,0.0,0.0,0.0,0.0,0.0,0.0,-4.8461,-5.1338,-5.2279,-5.4824,-5.9072,-6.0968,-6.2233,-6.2901,-6.1056,-5.965,0.0,0.0,0.0,0.0,0.0,0.0,0.0,0.0,0.0,0.0,0.0,0.0,0.0,0.0,0.0,0.0,0.0,0.0,0.0,0.0,0.0,0.0,0.0,0.0,0.0,0.0,0.0,0.0,0.0,0.0,0.0,0.0,0.0,0.0,0.0,0.0,0.0,0.0,0.0,0.0,0.0,-4.8605,-4.8465,-5.0589,-5.2419,0.0,-5.4769,-5.5906,-5.6019,-5.7914,-5.8299,-5.5132,0.0,0.0,0.0,0.0,0.0,0.0,0.0,0.0,0.0,0.0,0.0,0.0,0.0,0.0,0.0,0.0,0.0,0.0,0.0,0.0,0.0,0.0,0.0,0.0,0.0,0.0,0.0,0.0,0.0,0.0,0.0,0.0,0.0,0.0,0.0,0.0,0.0,0.0,0.0,0.0,0.0,0.0,0.0,0.0,0.0,0.0,0.0,0.0,0.0,0.0,0.0,0.0,0.0,-4.963,-5.2478,-5.3881,-5.6444,-6.0188,-6.2411,-6.3118,-6.2202,-6.1382,-5.9985,0.0,0.0,0.0,0.0,0.0,0.0,0.0,0.0,0.0,0.0,0.0,0.0,0.0,0.0,0.0,0.0,0.0,0.0,0.0,0.0,0.0,0.0,0.0,0.0,0.0,0.0,0.0,0.0,-4.2581,-4.3285,-4.4467,0.0,0.0,0.0,0.0,0.0,0.0,0.0,0.0,0.0,0.0,-5.0073,-5.1078,-5.1965,0.0,0.0,-5.6231,-5.727,-5.8331,-5.8862,-5.8559,-5.6646,-5.5207,0.0,0.0,0.0,0.0,0.0,0.0,0.0,0.0,0.0,0.0,0.0,0.0,0.0,0.0,0.0,0.0,0.0,0.0,0.0,0.0,0.0,0.0,0.0,0.0,0.0,0.0,0.0,0.0,0.0,0.0,0.0,0.0,0.0,0.0,0.0,0.0,0.0,0.0,0.0,0.0,0.0,0.0,0.0,0.0,0.0,0.0,0.0,0.0,0.0,0.0,0.0,0.0,-5.1193,-5.4282,-5.5742,-5.8127,-6.1604,-6.3599,-6.3911,-6.2442,-6.2031,-6.067,0.0,0.0,0.0,0.0,0.0,0.0,0.0,0.0,0.0,0.0,0.0,0.0,0.0,0.0,0.0,0.0,0.0,0.0,0.0,0.0,0.0,0.0,0.0,0.0,0.0,0.0,0.0,0.0,-4.461,-4.5148,-4.5473,0.0,0.0,0.0,0.0,0.0,0.0,0.0,0.0,0.0,0.0,-5.1381,-5.2526,-5.3301,-5.441,-5.6387,-5.7097,-5.7952,-5.9652,-5.9425,-5.8672,-5.7573,0.0,0.0,0.0,0.0,0.0,0.0,0.0,0.0,0.0,0.0,0.0,0.0,0.0,0.0,0.0,0.0,0.0,0.0,0.0,0.0,0.0,0.0,0.0,0.0,0.0,0.0,0.0,0.0,0.0,0.0,-4.6694,0.0,0.0,0.0,0.0,0.0,0.0,0.0,0.0,0.0,0.0,0.0,0.0,0.0,0.0,0.0,0.0,0.0,0.0,0.0,0.0,0.0,0.0,-5.3183,-5.7004,-5.7786,-5.9835,-6.3238,-6.4191,-6.4423,-6.4029,-6.3085,-6.1749,-5.9885,0.0,0.0,0.0,0.0,0.0,0.0,0.0,0.0,0.0,0.0,0.0,0.0,0.0,0.0,0.0,0.0,0.0,0.0,0.0,0.0,0.0,0.0,0.0,0.0,0.0,0.0,-4.6565,-4.6793,-4.6557,0.0,0.0,0.0,0.0,0.0,0.0,0.0,0.0,0.0,0.0,-5.0871,-5.2482,-5.2558,-5.462,-5.6443,-5.7317,-5.7446,-5.8022,-5.9747,-5.9912,-5.9381,0.0,0.0,0.0,0.0,0.0,0.0,0.0,0.0,0.0,0.0,0.0,0.0,0.0,0.0,0.0,0.0,0.0,0.0,0.0,0.0,0.0,0.0,0.0,0.0,0.0,0.0,0.0,-4.9807,-4.9529,0.0,0.0,0.0,0.0,0.0,0.0,0.0,0.0,0.0,0.0,0.0,-5.6463,-5.7863,0.0,0.0,0.0,0.0,0.0,0.0,0.0,0.0,0.0,0.0,0.0,0.0,-5.4724,-5.7726,-5.9204,-6.1296,-6.4039,-6.478,-6.4767,-6.4024,-6.4002,-6.2959,-6.0694,0.0,0.0,0.0,0.0,0.0,0.0,0.0,0.0,0.0,0.0,0.0,0.0,0.0,0.0,0.0,0.0,0.0,0.0,0.0,0.0,0.0,0.0,0.0,0.0,0.0,-4.7875,0.0,0.0,0.0,0.0,0.0,0.0,0.0,0.0,0.0,0.0,0.0,-4.8973,-4.9504,-5.1771,-5.3584,-5.4144,-5.5408,-5.6814,0.0,0.0,0.0,0.0,0.0,0.0,0.0,0.0,0.0,0.0,0.0,0.0,0.0,0.0,-6.1266,-5.5983,-5.4249,-5.3738,-5.4081,0.0,0.0,0.0,0.0,0.0,0.0,0.0,0.0,0.0,0.0,0.0,0.0,0.0,0.0,-5.2521,0.0,-5.2356,0.0,0.0,0.0,0.0,0.0,0.0,0.0,0.0,-5.8356,-6.0006,-6.1209,-6.265,-6.3604,0.0,-6.4169,-6.2184,0.0,0.0,0.0,0.0,0.0,0.0,0.0,0.0,-5.6397,-5.8486,-6.0725,-6.2782,-6.467,-6.5643,-6.5753,-6.5099,-6.5009,-6.4068,-6.2146,-6.1689,-6.0207,0.0,0.0,0.0,0.0,0.0,0.0,0.0,0.0,0.0,0.0,0.0,0.0,0.0,0.0,0.0,0.0,0.0,0.0,0.0,0.0,0.0,0.0,0.0,-4.9567,0.0,0.0,0.0,0.0,0.0,0.0,0.0,0.0,0.0,-4.78,-4.9047,-5.0456,-5.1554,-5.3176,-5.4676,-5.5808,0.0,0.0,0.0,0.0,0.0,0.0,0.0,-6.1141,-6.12,-6.1717,-6.2395,-6.3236,-6.5646,-6.7126,-6.5931,0.0,0.0,-5.9728,-5.7997,-5.7536,-5.7583,-5.7659,-5.7952,-5.8834,-5.9037,-5.9283,0.0,0.0,0.0,0.0,0.0,0.0,0.0,0.0,-5.5388,-5.5724,0.0,-5.567,0.0,0.0,0.0,0.0,0.0,-5.6771,0.0,0.0,-6.1994,-6.3655,-6.5442,-6.6459,-6.6879,-6.6853,-6.8379,-6.8164,-6.6205,-6.1781,0.0,0.0,0.0,0.0,0.0,0.0,-5.8262,-5.946,-6.2451,-6.4426,-6.5372,-6.6806,-6.7391,-6.7162,-6.6169,-6.522,-6.4275,-6.4634,-6.3305,-5.9845,-5.9786,0.0,0.0,0.0,0.0,0.0,0.0,0.0,0.0,0.0,0.0,0.0,0.0,0.0,0.0,0.0,0.0,0.0,0.0,0.0,0.0,-5.0279,0.0,0.0,0.0,0.0,0.0,0.0,0.0,0.0,0.0,0.0,-5.0634,-5.0328,-5.1319,-5.4541,0.0,0.0,0.0,0.0,-5.8339,-6.0074,-6.0936,-6.2008,-6.3695,-6.4672,-6.4734,-6.3322,0.0,0.0,-6.696,-6.9222,-7.0354,-6.8599,-6.9011,-6.8531,-6.5294,-6.3873,-6.3002,-6.2103,-6.1907,-6.2128,-6.2824,-6.2506,-6.2268,-6.7282,0.0,0.0,0.0,0.0,-6.2132,-6.1869,-6.1348,-6.2558,-6.2515,-6.1666,-6.2085,0.0,0.0,0.0,0.0,0.0,0.0,-6.347,-6.4685,-6.7493,-6.8853,-6.8951,-7.0937,-7.189,-7.1925,-7.1131,-7.0794,-7.0722,-6.824,-6.4552,-5.9937,0.0,0.0,0.0,0.0,-6.1495,-6.2566,-6.5057,-6.6809,-6.7683,-6.9133,-7.0032,-7.0173,-6.8728,-6.7298,-6.6003,-6.6134,-6.4747,-6.1504,-6.075,0.0,0.0,0.0,0.0,0.0,0.0,0.0,0.0,0.0,0.0,0.0,0.0,0.0,0.0,0.0,0.0,0.0,0.0,0.0,-5.2485,-5.3024,-5.2947,0.0,0.0,0.0,0.0,0.0,0.0,0.0,0.0,0.0,-5.5312,-5.5253,-5.5632,0.0,0.0,-5.8562,-5.8509,-5.9505,-6.0456,-6.1065,-6.2299,0.0,-6.4016,-6.4848,-6.5452,-6.5597,-6.7539,-6.9527,-7.0981,-7.1918,-7.2294,-7.1727,-7.1406,-7.0853,-6.997,-6.8157,-6.6842,-6.643,-6.6825,-6.7237,-6.7355,-6.7146,-6.7006,-7.4125,-7.1041,-6.8098,-6.6778,-6.6674,-6.6945,-6.6581,-6.5793,-6.7192,-6.6999,-6.5884,-6.6793,-6.6014,-6.4008,-6.3574,0.0,0.0,0.0,-6.7683,-6.8863,-7.1559,-7.2965,-7.3341,-7.4714,-7.5437,-7.5399,-7.441,-7.4144,-7.4523,-7.3231,-7.0418,-6.6281,0.0,0.0,-6.1771,-6.3754,-6.4929,-6.5229,-6.7808,-6.9473,-6.9965,-7.1086,-7.1432,-7.0966,-6.9939,-6.8668,-6.7067,-6.7348,-6.6303,-6.3712,-6.2698,-6.1572,0.0,0.0,0.0,0.0,0.0,0.0,0.0,0.0,0.0,0.0,0.0,-5.0437,-5.0518,0.0,0.0,0.0,-5.1266,-5.2373,-5.3834,-5.4358,0.0,0.0,0.0,0.0,0.0,0.0,0.0,-5.5579,-5.739,-5.8824,-5.9284,-5.9625,-5.962,-5.9001,-5.9564,-6.0089,-6.0304,0.0,-6.1565,-6.2337,-6.3556,-6.4692,-6.5505,-6.6369,-6.7271,-6.8081,-6.9725,-7.1369,-7.2711,-7.3581,-7.4035,-7.3997,-7.3647,-7.3367,-7.3367,-7.2134,-7.0699,-6.9472,-6.9826,-7.0386,-7.0572,-7.062,-7.0705,-7.9719,-7.8978,-7.3628,-7.1193,-7.0858,-7.0684,-7.0043,-6.9171,-7.0157,-7.008,-6.9246,-7.0261,-6.9725,-6.8057,-6.7258,0.0,-6.8072,-6.9664,-7.1333,-7.2966,-7.4637,-7.6196,-7.7644,-7.7796,-7.7756,-7.7599,-7.7642,-7.764,-7.7434,-7.6804,-7.5626,-7.3952,-7.0915,-6.8411,-6.6594,-6.8035,-6.845,-6.7618,-7.0583,-7.2146,-7.2139,-7.2707,-7.2154,-7.0405,-7.0181,-6.9304,-6.7645,-6.8148,-6.7729,-6.6044,-6.5079,-6.3519,-6.1285,0.0,0.0,0.0,0.0,0.0,0.0,0.0,0.0,0.0,0.0,0.0,0.0,0.0,0.0,0.0,-5.3552,0.0,-5.4172,-5.4988,0.0,0.0,0.0,-5.6755,-5.6945,-5.8856,-5.989,-5.9105,0.0,0.0,-6.2624,-6.3376,-6.3296,-6.1705,-6.0861,-6.0931,-6.2482,-6.207,-6.2178,-6.372,-6.478,-6.5955,-6.7278,-6.8476,-6.952,-7.0362,-7.1357,-7.2166,-7.3051,-7.4423,-7.5451,-7.5421,-7.5417,-7.5298,-7.5451,-7.5068,-7.4489,-7.1605,-7.1587,-7.2253,-7.2868,-7.2841,-7.3001,-8.1877,-8.1512,-8.0144,-7.8096,-7.5779,-7.5778,-7.4824,-7.3568,-7.5053,-7.4942,-7.3724,-7.4524,-7.4028,-7.2465,-7.2274,-7.2546,-7.3231,-7.4294,-7.5279,-7.6338,-7.7969,-7.8314,-7.764,-7.8811,-7.9077,-7.8473,-7.7824,-7.7741,-7.8268,-7.743,-7.6781,-7.6322,-7.5268,-7.2822,-6.9134,-7.1096,-7.1605,-7.0561,-7.2828,-7.4174,-7.4418,-7.4623,-7.3902,-7.2272,-7.0946,-6.9488,-6.7885,-6.7382,-6.6542,-6.5469,-6.4685,-6.3689,-6.2401,-6.095,0.0,0.0,0.0,0.0,0.0,0.0,0.0,0.0,0.0,-5.3754,-5.3252,0.0,-5.4401,0.0,-5.5218,-5.5978,-5.6586,-5.7422,0.0,0.0,-5.9842,-6.0714,-6.2648,-6.2766,-6.2917,-6.3338,-6.4471,-6.5229,-6.5194,-6.595,-6.6101,-6.504,-6.4206,-6.39,-6.4279,-6.4203,-6.4165,-6.4693,-6.5939,-6.7075,-6.7639,-6.896,-7.0348,-7.1292,-7.2133,-7.2974,-7.3743,-7.4775,-7.5497,-7.5386,-7.4465,-7.3968,-7.4465,-7.4083,-7.3968,-7.4231,-7.4537,-7.4656,-7.4635,-7.4179,-7.3838,-8.3601,-8.3285,-8.3036,-8.1831,-8.0005,-7.9372,-7.831,-7.7207,-7.8163,-7.7675,-7.6197,-7.6652,-7.6576,-7.6083,-7.6045,-7.6232,-7.6683,-7.7859,-7.8652,-7.9102,-8.039,-8.0548,-7.9718,-8.0586,-8.0586,-7.9794,-7.9296,-7.9058,-7.9053,-7.8421,-7.8104,-7.8012,-7.7689,-7.6016,-7.3274,-7.3916,-7.4073,-7.3478,-7.4763,-7.5755,-7.6212,-7.5678,-7.4477,-7.2798,-7.1011,-6.932,-6.7724,-6.6866,-6.6262,-6.5861,-6.5059,-6.4256,-6.3596,-6.2265,-6.1349,0.0,0.0,0.0,0.0,0.0,0.0,0.0,0.0,0.0,0.0,0.0,-5.6706,-5.6229,-5.7352,-5.8257,-5.8603,-5.9842,-6.1087,-6.2259,-6.2748,-6.3765,-6.5652,-6.6105,-6.652,-6.7087,-6.7845,-6.8034,-6.7352,-6.7617,-6.7617,-6.6783,-6.6291,-6.5722,-6.504,-6.4853,-6.4931,-6.5385,-6.6215,-6.723,-6.7981,-6.9379,-7.0472,-7.1073,-7.2176,-7.317,-7.3628,-7.4733,-7.5417,-7.4927,-7.4197,-7.3619,-7.3701,-7.3667,-7.3896,-7.4552,-7.5198,-7.5659,-7.6236,-7.5436,-7.4714,-8.4694,-8.433,-8.389,-8.354,-8.3235,-8.1968,-8.0959,-8.0201,-8.0201,-7.9405,-7.804,-7.804,-7.8457,-7.9064,-7.8988,-7.8988,-7.9096,-8.0466,-8.1148,-8.1256,-8.2134,-8.2513,-8.2399,-8.2399,-8.1944,-8.111,-8.0997,-8.0454,-7.9638,-7.9284,-7.909,-7.8979,-7.8686,-7.8102,-7.727,-7.6364,-7.5884,-7.5884,-7.6306,-7.6833,-7.7496,-7.6059,-7.4417,-7.2516,-7.06,-6.8856,-6.7283,-6.6427,-6.6186,-6.6559,-6.5803,-6.5045,-6.471,-6.3636,-6.3094,0.0,-6.2645,0.0,0.0,0.0,0.0,0.0,0.0,0.0,0.0,-5.9328,-5.9439,-5.8534,-5.9883,-6.0706,-6.0588,-6.2089,-6.3402,-6.4266,-6.5137,-6.6128,-6.7236,-6.8826,-6.9889,-7.0005,-7.0763,-7.0649,-6.9361,-6.902,-6.8641,-6.7921,-6.758,-6.6936,-6.5573,-6.5234,-6.5425,-6.6069,-6.6332,-6.7273,-6.8739,-6.9756,-7.0324,-7.0577,-7.1871,-7.2941,-7.3017,-7.4423,-7.5298,-7.4465,-7.4155,-7.3882,-7.3127,-7.3552,-7.4017,-7.4292,-7.4864,-7.574,-7.6884,-7.6313,-7.6044,-8.4356,-8.4064,-8.4205,-8.4228,-8.4103,-8.3445,-8.2664,-8.1906,-8.1906,-8.1755,-8.1452,-8.1452,-8.1527,-8.1603,-8.0921,-8.087,-8.1292,-8.1135,-8.1362,-8.1774,-8.2877,-8.3006,-8.2399,-8.2399,-8.1944,-8.1073,-8.034,-7.9706,-7.9284,-7.9079,-7.8827,-7.8491,-7.8146,-7.7883,-7.7678,0.0,0.0,0.0,-7.6637,-7.6591,-7.657,-7.5826,-7.4196,-7.163,-6.9937,0.0,-6.6366,-6.5376,-6.5376,-6.6294,-6.6186,0.0,0.0,0.0,0.0,0.0,0.0,0.0,0.0,0.0,0.0,0.0,-6.6516,-6.4985,-6.2006,-6.2459,-6.2827,-6.2673,-6.2977,-6.3126,-6.3083,-6.4022,-6.5005,-6.6078,-6.6908,-6.786,-6.897,-7.0113,-7.076,-7.0798,-7.1596,-7.2052,-7.1635,-7.1066,-7.0308,-6.9512,-6.8755,-6.7922,-6.69,-6.6711,-6.6749,-6.6937,-6.7467,-6.8452,-6.9659,-7.0035,-7.0255,-7.0514,-7.1837,-7.2864,-7.3093,-7.4316,-7.5191,-7.4354,-7.3667,-7.3208,-7.2838,-7.299,-7.3451,-7.4714,-7.4981,-7.5322,-7.623,-7.6189,-7.6032,-8.4255,0.0,-8.4492,-8.4443,0.0,-8.3952,-8.3672,-8.3266,-8.2612,-8.2399,-8.2399,-8.2399,-8.2399,-8.2399,-8.2361,-8.2506,-8.2746,-8.2922,-8.3104,-8.3389,-8.3983,-8.4029,-8.3612,-8.3157,-8.2506,-8.1627,-8.0574,-7.9783,-7.9177,-7.8686,-7.8404,-7.8202,-7.7783,-7.7707,-7.8051,-7.7804,-7.7495,-7.7056,-7.6801,-7.6643,-7.6505,-7.5749,-7.429,-7.2335,-7.0224,0.0,0.0,0.0,0.0,0.0,0.0,0.0,0.0,-6.7485,0.0,-6.7542,-6.6863,-6.7173,-6.8678,-6.8512,-6.8897,-7.0128,-7.0256,-6.8882,-6.5477,-6.553,-6.5408,-6.4631,-6.4938,-6.5012,-6.4631,-6.5679,-6.6813,-6.7773,-6.8409,-6.9191,-7.0166,-7.0578,-7.1124,-7.1958,-7.2573,-7.2957,-7.2957,-7.2538,-7.1855,-7.106,-7.0407,-6.9683,-6.8854,-6.7764,-6.72,-6.7652,-6.8486,-6.9285,-6.9852,-7.0039,-7.0149,-7.0404,-7.1353,-7.2303,-7.2834,-7.3906,-7.4519,-7.4099,-7.3413,-7.2691,-7.2198,-7.2122,-7.2353,-7.3042,-7.38,-7.4478,-7.5145,-7.5291,-7.5707,-8.4379,-8.4132,-8.4469,-8.4293,-8.3838,-8.4012,-8.4116,-8.4142,0.0,0.0,0.0,-8.2816,-8.2816,-8.2892,-8.3385,-8.365,-8.3794,-8.4408,-8.4703,-8.4808,-8.4854,-8.4901,-8.4863,-8.3991,-8.3188,-8.2414,-8.1113,-8.0079,-7.9292,-7.8386,-7.8014,-7.79,-7.7634,-7.7903,-7.8573,-7.8563,-7.8222,-7.7499,-7.7066,-7.6801,-7.6801,-7.5567,-7.4368,-7.3173,-7.057,-6.8694,-6.7714,-6.6837,-6.6647,-6.7294,-6.849,-6.943,-6.9937,-6.9758,-6.987,-7.0275,-6.9871,-7.0054,-7.1128,-7.1479,-7.1977,-7.2702,-7.2966,-7.1948,-6.9036,-6.8492,-6.7797,-6.6476,-6.6948,-6.6948,-6.6219,-6.7426,-6.8546,-6.9262,-6.9614,-7.0177,-7.0981,-7.1096,-7.1632,-7.2843,-7.3473,-7.3632,-7.3439,-7.3279,-7.293,-7.2095,-7.1501,-7.1171,-7.0278,-6.865,-6.7799,-6.8445,-6.9206,-6.9778,-6.9929,-6.9966,-7.0039,-7.0185,-7.0984,-7.1823,-7.2581,-7.3458,-7.3954,-7.3878,-7.3269,-7.2585,-7.1787,-7.1635,-7.1484,-7.1332,-7.2427,-7.3666,-7.4161,-7.438,-7.502,-8.4722,-8.4629,-8.3863,-8.373,-8.3945,-8.3692,-8.3817,-8.4218,-8.4458,-8.456,-8.456,-8.456,-8.456,-8.4522,-8.3877,-8.3861,-8.4276,-8.3937,-8.405,-8.4454,-8.477,-8.4901,-8.4863,-8.3899,-8.3445,-8.3263,-8.1328,-8.0192,-7.9852,-7.8592,-7.79,-7.7754,-7.8198,-7.8897,-7.9805,-7.9512,-7.9257,-7.9109,-7.7794,-7.6966,-7.6801,-7.5188,-7.3639,-7.2211,-6.9818,-6.7975,-6.6896,-6.6851,-6.7132,-6.7849,-7.0096,-7.1354,-7.147,-7.2521,-7.265,-7.1635,-7.1821,-7.2071,-7.2153,-7.2655,-7.3386,-7.4312,-7.5092,-7.4515,-7.2112,-7.1211,-7.0697,-7.044,-6.9945,-6.9559,-6.9449,-6.9559,-6.9853,-7.0216,-7.036,-7.0657,-7.1253,-7.1995,-7.2598,-7.3063,-7.4082,-7.4241,-7.3544,-7.3226,-7.2748,-7.1869,-7.1406,-7.0795,-7.0012,-6.9491,-6.931,-6.9428,-6.97,-6.9891,-6.9929,-6.9929,-6.9929,-6.9967,-7.1181,-7.2053,-7.2319,-7.3571,-7.4215,-7.3759,-7.3532,-7.3037,-7.22,-7.2084,-7.1895,-7.1773,-7.2321,-7.3086,-7.3822,-7.3859,-7.4113,-8.4721,-8.4721,-8.4778,-8.4872,-8.4815,-8.4758,-8.4815,-8.4947,-8.5662,-8.5555,-8.4939,-8.4901,-8.4901,-8.4863,-8.4484,-8.4438,-8.4637,-8.4438,-8.4475,-8.4685,-8.4816,-8.4589,-8.4012,-8.3209,-8.2388,-8.1716,-8.0205,-7.9388,-7.9141,-7.8276,-7.7879,-7.7813,-7.9241,-8.0235,-8.0539,-8.0765,-8.0413,-7.9577,-7.8168,-7.7341,-7.7181,-7.5734,-7.4087,-7.2305,-7.039,-6.8678,-6.7075,-6.7752,-6.8669,-6.9851,-7.1965,-7.3407,-7.4197,-7.4338,-7.3993,-7.3219,-7.276,-7.2783,-7.3423,-7.4905,-7.6089,-7.69,-7.772,-7.7818,-7.687,-7.5095,-7.3492,-7.2206,-7.1691,-7.1103,-7.022,-7.0477,-7.0826,-7.0901,-7.1172,-7.145,-7.1715,-7.207,-7.2567,-7.3025,-7.3489,-7.3753,-7.374,-7.3429,-7.3079,-7.2496,-7.1616,-7.0573,-6.9706,-6.9239,-6.916,-6.9332,-6.9539,-6.9699,-6.9738,-6.9777,-6.9777,-6.9777,-7.0722,-7.159,-7.2122,-7.3295,-7.3855,-7.4044,-7.3741,-7.3099,-7.2264,-7.1735,-7.1275,-7.0696,-7.1094,-7.1749,-7.2341,-7.2819,-7.3394,-8.4748,-8.4844,-8.5616,-8.5648,-8.52,-8.5477,-8.544,-8.5381,-8.6175,-8.6028,-8.5269,-8.5375,-8.5356,-8.5166,-8.5166,-8.509,-8.4939,-8.4901,-8.4901,-8.4901,-8.4901,-8.4446,-8.3436,-8.2746,-8.1802,-8.0643,-7.95,-7.8917,-7.8756,-7.8182,-7.8064,-7.8581,-8.0466,-8.1556,-8.1792,-8.2146,-8.1643,-8.0283,-7.8771,-7.7754,-7.7289,-7.6093,-7.4388,-7.2444,-7.1122,-6.9611,-6.8028,-6.9007,-7.0417,-7.1997,-7.3729,-7.5217,-7.6343,-7.572,-7.5001,-7.4438,-7.359,-7.3553,-7.4676,-7.6464,-7.7851,-7.8601,-7.9547,-8.0073,-7.9712,-7.8433,-7.6433,-7.4273,-7.3369,-7.2429,-7.1434,-7.1341,-7.1578,-7.1578,-7.1931,-7.2161,-7.2295,-7.2304,-7.2515,-7.3116,-7.3229,-7.3454,-7.3569,-7.3442,-7.3097,-7.2585,-7.1405,-7.0132,-6.9429,-6.8853,-6.8697,-6.9087,-6.9321,-6.9449,-6.9649,-6.9532,-6.9419,-6.946,-7.0051,-7.0874,-7.1707,-7.2573,-7.3401,-7.4004,-7.3898,-7.3025,-7.2084,-7.1406,-7.0567,-6.9678,-6.9806,-7.0453,-7.1318,-7.1976,-7.2632,-8.5201,-8.5348,-8.5312,-8.4717,-8.4225,-8.4695,-8.4907,-8.4849,-8.5187,-8.5671,-8.6121,-8.6845,-8.672,-8.6076,-8.6,-8.5621,-8.4939,-8.4901,-8.4939,-8.4901,-8.4999,-8.4461,-8.3528,-8.3228,-8.2632,-8.163,-8.0249,-7.9535,-7.9551,-7.8518,-7.8792,-8.0258,-8.1643,-8.3061,-8.4199,-8.3937,-8.3134,-8.1979,-8.0114,-7.8248,-7.6479,-7.5372,-7.3836,-7.19,-7.1175,-7.0324,-6.9486,-7.068,-7.1928,-7.3224,-7.5072,-7.6293,-7.659,-7.6817,-7.6245,-7.471,-7.4605,-7.5042,-7.5665,-7.6081,-7.6935,-7.8011,-7.9797,-8.0171,-7.9037,-7.9781,-7.9557,-7.7456,-7.5309,-7.3997,-7.3644,-7.2961,-7.25,-7.2275,-7.2426,-7.2576,-7.2939,-7.3317,-7.3602,-7.3714,-7.3804,-7.3784,-7.2907,-7.2889,-7.2593,-7.1655,-7.033,-6.9262,-6.8914,-6.8483,-6.8555,-6.9076,-6.9107,-6.9266,-6.9723,-6.9257,-6.9079,-6.8958,-6.9378,-7.0283,-7.12,-7.2022,-7.2832,-7.3923,-7.4121,-7.3484,-7.2164,-7.121,-7.0761,-6.9425,-6.9346,-6.9953,-7.1045,-7.1563,-7.1876,-8.4653,-8.5286,-8.5678,-8.5741,-8.5596,-8.5358,-8.5195,-8.5149,-8.6067,-8.6498,-8.6835,-8.7861,-8.7372,-8.5776,-8.6511,-8.6151,-8.4976,-8.5393,-8.5356,-8.4939,-8.4961,-8.4105,-8.2652,-8.2529,-8.1656,-8.0015,-7.929,-7.898,-7.887,-7.8701,-7.9591,-8.1568,-8.2928,-8.4216,-8.5395,-8.4928,-8.3769,-8.2032,-8.0205,-7.8343,-7.6633,-7.5859,-7.4921,-7.3605,-7.2468,-7.1521,-7.0917,-7.2055,-7.3341,-7.4548,-7.5962,-7.6977,-7.7513,-7.6665,-7.5733,-7.4793,-7.4422,-7.469,-7.558,-7.7061,-7.8533,-7.9854,-8.1567,-8.207,-8.111,-8.1024,-8.045,-7.9093,-7.6996,-7.5328,-7.4216,-7.3681,-7.3219,-7.27,-7.2667,-7.2853,-7.3071,-7.3401,-7.3641,-7.374,-7.3691,-7.3479,-7.28,-7.2334,-7.1655,-7.0697,-6.9614,-6.8806,-6.8274,-6.7978,-6.8489,-6.9389,-6.9289,-6.9396,-7.0202,-7.0299,-6.9804,-6.9532,-6.9892,-7.0636,-7.0971,-7.2136,-7.3215,-7.4122,-7.4583,-7.4299,-7.2857,-7.2373,-7.1876,-7.009,-6.9036,-6.9442,-6.9998,-7.079,-7.1358,-8.4432,-8.5337,-8.6029,-8.6148,-8.5992,-8.5399,-8.5114,-8.5164,-8.6273,-8.678,-8.698,-8.8276,-8.7604,-8.5875,-8.6984,-8.6625,-8.5166,-8.5735,-8.5659,-8.4976,-8.4871,-8.3823,-8.2007,-8.1807,-8.0693,-7.8879,-7.8532,-7.8386,-7.8388,-7.8866,-8.0205,-8.2146,-8.3669,-8.5009,-8.6005,-8.5582,-8.4236,-8.2171,-8.0385,-7.8676,-7.7039,-7.6544,-7.5666,-7.4212,-7.3235,-7.2411,-7.1709,-7.3164,-7.4473,-7.5361,-7.6429,-7.7078,-7.7287,-7.6,-7.5022,-7.4651,-7.4238,-7.4626,-7.5864,-7.7942,-7.9705,-8.113,-8.2721,-8.3374,-8.2622,-8.1979,-8.1094,-7.9834,-7.8388,-7.6716,-7.5048,-7.4049,-7.3403,-7.2884,-7.287,-7.2853,-7.2963,-7.3231,-7.3401,-7.3452,-7.3335,-7.3071,-7.276,-7.1839,-7.0734,-7.0183,-6.9229,-6.8421,-6.7871,-6.776,-6.8238,-6.9779,-6.9559,-6.9814,-7.0791,-7.0694,-7.0434,-7.0198,-7.0332,-7.0628,-7.1028,-7.2325,-7.34,-7.4067,-7.5085,-7.5123,-7.3713,-7.3215,-7.2347,-7.0228,-6.9057,-6.8951,-6.9154,-6.9963,-7.0412,-8.5013,-8.5741,-8.5986,-8.5337,-8.4025,-8.4051,-8.3952,-8.4088,-8.509,-8.5831,-8.6434,-8.7846,-8.7503,-8.5877,-8.7426,-8.697,-8.5157,-8.5726,-8.565,-8.4892,-8.4685,-8.3682,-8.2066,-8.1533,-8.0399,-7.8842,-7.8478,-7.8313,-7.8388,-7.9112,-8.0262,-8.1991,-8.3626,-8.5149,-8.6497,-8.6191,-8.4763,-8.2806,-8.12,-7.9394,-7.7537,-7.7194,-7.5652,-7.312,-7.289,-7.2741,-7.2272,-7.4014,-7.5256,-7.5436,-7.6421,-7.6534,-7.5566,-7.5085,-7.4635,-7.4238,-7.4312,-7.5251,-7.6968,-7.8312,-7.9604,-8.0981,-8.2661,-8.3068,-8.2368,-8.2473,-8.1829,-7.9945,-7.926,-7.8122,-7.6602,-7.4474,-7.3329,-7.3508,-7.2936,-7.2684,-7.2723,-7.2963,-7.3071,-7.3054,-7.3017,-7.2908,-7.2537,-7.1101,-7.0477,-6.9926,-6.8825,-6.7907,-6.7981,-6.7834,-6.8568,-6.9669,-7.0183,-7.033,-7.1047,-7.114,-7.0533,-7.0275,-7.044,-7.0533,-7.1361,-7.2226,-7.313,-7.4108,-7.5217,-7.5291,-7.4275,-7.3112,-7.1747,-7.0165,-6.8806,-6.8477,-6.9064,-6.8657,-6.9136,-8.5153,-8.5949,-8.5603,-8.5143,-8.4579,-8.3582,-8.3139,-8.3213,-8.4213,-8.4756,-8.5164,-8.6696,-8.6579,-8.53,-8.7398,-8.6943,-8.4594,-8.5738,-8.5625,-8.4456,-8.4356,-8.3602,-8.2317,-8.1627,-8.0592,-7.9297,-7.8592,-7.8518,-7.8998,-7.9586,-8.1244,-8.3525,-8.4754,-8.6191,-8.7603,-8.6949,-8.5583,-8.3871,-8.1806,-7.9644,-7.768,-7.6434,-7.4918,-7.345,-7.4012,-7.4349,-7.4273,-7.5306,-7.5807,-7.5807,-7.6354,-7.6305,-7.5641,-7.5395,-7.5325,-7.5288,-7.5341,-7.6364,-7.8403,-7.9623,-8.0952,-8.2589,-8.3861,-8.412,-8.3301,-8.2885,-8.2181,-8.0854,-7.9035,-7.8057,-7.7703,-7.5743,-7.4139,-7.3692,-7.301,-7.2496,-7.2553,-7.2667,-7.2723,-7.2667,-7.2723,-7.2667,-7.2369,-7.1541,-7.0917,-7.077,-6.9889,-6.9265,-6.9192,-6.9229,-6.9559,-7.0513,-7.0881,-7.1138,-7.1945,-7.1908,-7.1541,-7.1101,-7.0954,-7.1047,-7.1524,-7.2663,-7.3639,-7.4448,-7.5485,-7.5868,-7.4941,-7.3392,-7.1882,-7.0433,-6.9169,-6.882,-6.9315,-6.8954,-6.9274,-8.5447,-8.5544,-8.5161,-8.4608,-8.4018,-8.2987,-8.2571,-8.2744,-8.367,-8.4102,-8.4447,-8.5757,-8.5753,-8.5185,-8.6937,-8.6548,-8.4386,-8.5729,-8.5725,-8.4395,-8.411,-8.3388,-8.2369,-8.1771,-8.0953,-7.9967,-7.9354,-7.9446,-8.0184,-8.0867,-8.2623,-8.4982,-8.584,-8.7038,-8.8223,-8.7264,-8.5807,-8.427,-8.1975,-7.9813,-7.8072,-7.625,-7.4918,-7.4258,-7.4485,-7.4769,-7.5088,-7.5692,-7.5999,-7.5947,-7.6327,-7.6312,-7.5716,-7.5458,-7.5662,-7.6229,-7.6424,-7.7492,-7.9651,-8.0863,-8.214,-8.372,-8.4556,-8.4785,-8.412,-8.3439,-8.2617,-8.1435,-7.9739,-7.8578,-7.821,-7.653,-7.4853,-7.4037,-7.3156,-7.2532,-7.2532,-7.2496,-7.2496,-7.2496,-7.2496,-7.2496,-7.2422,-7.1762,-7.1358,-7.1321,-7.0624,-7.0146,-7.011,-7.011,-7.0403,-7.1138,-7.1248,-7.1615,-7.2129,-7.2181,-7.2144,-7.1741,-7.15,-7.15,-7.1793,-7.3003,-7.3992,-7.4775,-7.5507,-7.5995,-7.5359,-7.3713,-7.2267,-7.0787,-6.989,-6.9394,-6.9443,-6.931,-6.9652,-8.604,-8.4829,-8.4609,-8.3831,-8.2655,-8.2361,-8.2316,-8.2618,-8.3408,-8.3855,-8.4052,-8.5163,-8.5112,-8.4875,-8.6213,-8.5868,-8.474,-8.5825,-8.5937,-8.4815,-8.4069,-8.321,-8.2258,-8.2032,-8.1529,-8.0728,-8.0691,-8.1137,-8.1991,-8.2814,-8.4121,-8.5707,-8.674,-8.7565,-8.8405,-8.7061,-8.5582,-8.4057,-8.2012,-8.0126,-7.8639,-7.7047,-7.5799,-7.4955,-7.4368,-7.4249,-7.4293,-7.5181,-7.5716,-7.5919,-7.6567,-7.6403,-7.5531,-7.5242,-7.5617,-7.681,-7.7244,-7.8529,-8.0612,-8.1793,-8.2722,-8.3954,-8.4544,-8.4749,-8.4533,-8.3914,-8.3079,-8.2258,-8.0867,-7.9719,-7.8627,-7.6691,-7.5065,-7.4735,-7.345,-7.2532,-7.2532,-7.2532,-7.2532,-7.2532,-7.2532,-7.2532,-7.2349,-7.1908,-7.1505,-7.1358,-7.0881,-7.044,-7.0513,-7.0513,-7.0624,-7.1064,-7.1468,-7.1872,-7.2144,-7.238,-7.2438,-7.2365,-7.2175,-7.208,-7.2263,-7.3044,-7.3849,-7.4628,-7.5416,-7.5862,-7.4805,-7.3269,-7.2344,-7.1123,-7.0446,-7.0021,-6.9965,-6.9944,-6.9771,-8.6407,-8.538,-8.4829,-8.4051,-8.3153,-8.2601,-8.2444,-8.2633,-8.3078,-8.3213,-8.3483,-8.4346,-8.4295,-8.422,-8.5781,-8.6226,-8.5274,-8.6147,-8.585,-8.4577,-8.4227,-8.3669,-8.2867,-8.2309,-8.1843,-8.162,-8.1583,-8.2347,-8.3616,-8.4121,-8.5245,-8.6929,-8.7527,-8.7953,-8.8442,-8.741,-8.617,-8.4704,-8.2724,-8.0984,-7.9609,-7.8431,-7.7157,-7.5946,-7.5983,-7.6006,-7.5514,-7.5474,-7.5754,-7.6328,-7.6588,-7.6454,-7.6015,-7.63,-7.6943,-7.7682,-7.7885,-7.9074,-8.1226,-8.1981,-8.2877,-8.415,-8.4627,-8.4599,-8.4503,-8.3907,-8.3359,-8.2797,-8.1636,-8.043,-7.9412,-7.7708,-7.613,-7.5028,-7.3487,-7.2569,-7.2569,-7.2532,-7.2532,-7.2532,-7.2532,-7.2532,-7.2496,-7.2165,-7.2018,-7.1982,-7.1725,-7.1541,-7.1615,-7.1394,-7.1505,-7.1431,-7.1762,-7.1725,-7.1631,-7.1757,-7.1919,-7.2043,-7.213,-7.2084,-7.2413,-7.2802,-7.3603,-7.4315,-7.516,-7.5073,-7.4013,-7.3344,-7.253,-7.1856,-7.1359,-7.1044,-7.0838,-7.059,-7.0305,-8.6518,-8.5747,-8.527,-8.4706,-8.3991,-8.3181,-8.2976,-8.3127,-8.2954,-8.2964,-8.3173,-8.3641,-8.3849,-8.4035,-8.5558,-8.6165,-8.6091,-8.6833,-8.6437,-8.5114,-8.4495,-8.4109,-8.3566,-8.3143,-8.2883,-8.2883,-8.2824,-8.3759,-8.5541,-8.5711,-8.6443,-8.7743,-8.8103,-8.8142,-8.8122,-8.7231,-8.6141,-8.4795,-8.3153,-8.162,-8.037,-7.9202,-7.8075,-7.7231,-7.7231,-7.7194,-7.6974,-7.6774,-7.6648,-7.6833,-7.687,-7.6751,-7.6607,-7.7047,-7.7547,-7.8014,-7.8536,-7.9626,-8.152,-8.2168,-8.2982,-8.4297,-8.4503,-8.4356,-8.4167,-8.3692,-8.3244,-8.3053,-8.1945,-8.0835,-7.9853,-7.8259,-7.679,-7.5506,-7.4258,-7.334,-7.301,-7.2642,-7.2532,-7.2532,-7.2532,-7.2532,-7.2496,-7.2165,-7.2092,-7.2055,-7.1798,-7.1615,-7.1615,-7.1505,-7.1248,-7.1064,-7.1064,-7.0991,-7.0917,-7.1097,-7.1326,-7.1596,-7.1805,-7.1854,-7.2048,-7.2481,-7.318,-7.3783,-7.4519,-7.4388,-7.3503,-7.3833,-7.3476,-7.2833,-7.1694,-7.1196,-7.0662,-7.077,-7.0627,-8.6481,-8.582,-8.5783,-8.5404,-8.4829,-8.4055,-8.3841,-8.3941,-8.3409,-8.3136,-8.3217,-8.3254,-8.3589,-8.4332,-8.5223,-8.5942,-8.6597,-8.7539,-8.7427,-8.6363,-8.5348,-8.4569,-8.4286,-8.4272,-8.4369,-8.4518,-8.4336,-8.5335,-8.7092,-8.7246,-8.7735,-8.8172,-8.8381,-8.8139,-8.7409,-8.6511,-8.57,-8.4553,-8.3098,-8.1874,-8.1076,-7.9764,-7.8883,-7.8736,-7.8259,-7.8148,-7.8442,-7.8504,-7.8112,-7.7524,-7.7378,-7.7341,-7.7304,-7.7341,-7.7487,-7.8105,-7.8906,-7.9985,-8.1379,-8.2335,-8.3314,-8.4155,-8.4102,-8.3998,-8.3998,-8.3303,-8.2824,-8.2904,-8.176,-8.075,-7.9731,-7.8467,-7.7157,-7.6276,-7.5212,-7.4441,-7.3817,-7.3156,-7.2936,-7.2716,-7.2606,-7.2569,-7.2532,-7.1945,-7.1594,-7.1374,-7.0971,-7.0677,-7.0531,-7.0641,-7.022,-7.0183,-7.0293,-7.0237,-7.0164,-7.0287,-7.0515,-7.0615,-7.0932,-7.1199,-7.1646,-7.2183,-7.2351,-7.2983,-7.3608,-7.3436,-7.3298,-7.3401,-7.3,-7.1823,-7.104,-7.0604,-7.0604,-7.071,-7.1141,-8.6004,-8.5783,-8.5956,-8.5677,-8.5069,-8.4938,-8.4682,-8.4346,-8.4123,-8.3641,-8.3292,-8.318,-8.3329,-8.3663,-8.5,-8.5743,-8.6276,-8.7452,-8.7638,-8.6796,-8.6449,-8.5781,-8.5311,-8.5298,-8.5595,-8.6004,-8.5856,-8.6685,-8.7944,-8.7883,-8.8025,-8.8354,-8.8335,-8.7861,-8.6854,-8.6175,-8.5152,-8.3956,-8.3106,-8.2388,-8.1912,-8.1452,-8.0938,-8.0424,-8.0608,-8.0314,-7.9617,-7.947,-7.9103,-7.8369,-7.8259,-7.7928,-7.7451,-7.7414,-7.7794,-7.8417,-7.8869,-7.9866,-8.1531,-8.2165,-8.2798,-8.3779,-8.373,-8.3546,-8.3564,-8.2607,-8.2052,-8.1807,-8.0911,-7.9952,-7.9154,-7.8479,-7.7818,-7.7011,-7.5836,-7.4955,-7.4661,-7.4404,-7.4074,-7.3523,-7.3377,-7.3083,-7.2621,-7.216,-7.1845,-7.1699,-7.115,-7.049,-7.0218,-6.9981,-6.9633,-6.9559,-6.9596,-6.9504,-6.9465,-6.9551,-6.9632,-6.9695,-6.9878,-7.0165,-7.0925,-7.1838,-7.1723,-7.1776,-7.2615,-7.2762,-7.2512,-7.2398,-7.1497,-7.1055,-7.0552,-7.0336,-7.0671,-7.0837,-7.142,-8.6297,-8.6297,-8.6538,-8.6443,-8.6094,-8.5953,-8.5732,-8.5335,-8.4666,-8.4146,-8.37,-8.3329,-8.3589,-8.4295,-8.5186,-8.6004,-8.6709,-8.7638,-8.7787,-8.7452,-8.7341,-8.6672,-8.5929,-8.5855,-8.6375,-8.6685,-8.6571,-8.7105,-8.7985,-8.7973,-8.791,-8.7839,-8.7898,-8.7267,-8.611,-8.5601,-8.4721,-8.3639,-8.3047,-8.2633,-8.2251,-8.2186,-8.1966,-8.1599,-8.1966,-8.1636,-8.0865,-8.0791,-8.0277,-7.9396,-7.9066,-7.8736,-7.8002,-7.8222,-7.8504,-7.8787,-7.9425,-8.0577,-8.1615,-8.2214,-8.2797,-8.334,-8.3338,-8.3037,-8.2718,-8.2001,-8.1525,-8.096,-8.0358,-7.9646,-7.8823,-7.8357,-7.7793,-7.7181,-7.6338,-7.5678,-7.5385,-7.4885,-7.4555,-7.4079,-7.3713,-7.3383,-7.2797,-7.2167,-7.1619,-7.107,-7.0323,-6.9811,-6.9372,-6.9265,-6.9119,-6.8935,-6.8697,-6.8605,-6.8457,-6.8507,-6.875,-6.8754,-6.892,-6.9228,-6.9885,-7.093,-7.0913,-7.0897,-7.1586,-7.2121,-7.2046,-7.1819,-7.1399,-7.0958,-7.0461,-7.0271,-7.0486,-7.0857,-7.1514,-8.6885,-8.6885,-8.709,-8.7261,-8.7276,-8.6878,-8.6523,-8.6425,-8.5223,-8.4555,-8.4369,-8.3663,-8.4183,-8.5595,-8.5706,-8.6524,-8.7824,-8.7935,-8.8047,-8.7973,-8.7898,-8.7304,-8.6338,-8.6709,-8.6969,-8.7019,-8.6619,-8.7153,-8.7861,-8.7784,-8.7539,-8.7376,-8.7235,-8.6555,-8.5654,-8.4909,-8.4106,-8.334,-8.275,-8.2338,-8.2031,-8.2076,-8.2113,-8.2113,-8.2076,-8.215,-8.2003,-8.1966,-8.1452,-8.0094,-7.9984,-7.9507,-7.8919,-7.9433,-7.957,-7.9312,-8.0345,-8.1305,-8.176,-8.2675,-8.3186,-8.3106,-8.3106,-8.2713,-8.2001,-8.1488,-8.0923,-8.0124,-7.9854,-7.9142,-7.8591,-7.7806,-7.7389,-7.7118,-7.6983,-7.6627,-7.6042,-7.5187,-7.465,-7.454,-7.3884,-7.3519,-7.2863,-7.2024,-7.0834,-7.1149,-7.0223,-6.9514,-6.9043,-6.8642,-6.8367,-6.8054,-6.789,-6.7726,-6.7579,-6.7449,-6.7651,-6.7825,-6.8094,-6.8307,-6.8636,-6.9388,-6.9752,-7.0229,-7.1304,-7.1906,-7.1973,-7.1704,-7.1447,-7.0992,-7.0566,-7.0406,-7.0303,-7.0833,-7.1411,-8.604,-8.604,-8.628,-8.6715,-8.7217,-8.6814,-8.6571,-8.656,-8.572,-8.5261,-8.5149,-8.448,-8.474,-8.5669,-8.6226,-8.6784,-8.7267,-8.7787,-8.8084,-8.8084,-8.8084,-8.7973,-8.7527,-8.7675,-8.775,-8.7687,-8.7598,-8.7609,-8.7757,-8.7628,-8.7357,-8.723,-8.6945,-8.6348,-8.5713,-8.4347,-8.3152,-8.2538,-8.1941,-8.156,-8.1553,-8.1929,-8.2186,-8.2186,-8.2186,-8.2186,-8.2186,-8.2186,-8.2003,-8.1599,-8.1048,-8.0388,-7.9764,-7.9764,-8.0084,-8.0478,-8.0809,-8.1524,-8.2227,-8.2671,-8.2843,-8.2964,-8.2987,-8.275,-8.1756,-8.0947,-8.0161,-7.9191,-7.8345,-7.799,-7.7708,-7.7364,-7.7155,-7.7029,-7.6838,-7.6672,-7.649,-7.63,-7.5862,-7.5389,-7.5061,-7.465,-7.3446,-7.2922,-7.1987,-7.1296,-7.0337,-6.9435,-6.8767,-6.8074,-6.7835,-6.7633,-6.7579,-6.7524,-6.719,-6.6998,-6.7005,-6.7132,-6.7254,-6.7955,-6.8311,-6.8806,-6.9486,-7.0309,-7.1231,-7.1617,-7.1858,-7.1925,-7.1677,-7.1169,-7.0661,-7.0545,-7.0614,-7.0877,-7.1629,-8.5866,-8.6334,-8.6207,-8.6568,-8.7077,-8.6315,-8.6074,-8.6286,-8.5782,-8.551,-8.546,-8.5051,-8.5409,-8.6152,-8.6598,-8.6969,-8.7452,-8.7824,-8.8084,-8.8084,-8.8084,-8.8084,-8.7973,-8.775,-8.7638,-8.7973,-8.7895,-8.7831,-8.773,-8.7497,-8.7276,-8.7082,-8.7053,-8.6617,-8.5695,-8.429,-8.3244,-8.2389,-8.1585,-8.1166,-8.1122,-8.1782,-8.2186,-8.2186,-8.2186,-8.2186,-8.2186,-8.2186,-8.2186,-8.2076,-8.1782,-8.1195,-8.0608,-8.0681,-8.1002,-8.1129,-8.1671,-8.1992,-8.2647,-8.288,-8.2941,-8.2782,-8.2941,-8.2116,-8.1218,-8.0297,-7.9425,-7.8382,-7.7696,-7.7279,-7.7217,-7.7155,-7.7092,-7.6874,-7.6745,-7.6614,-7.6512,-7.6475,-7.6432,-7.5923,-7.5524,-7.476,-7.3933,-7.3316,-7.1863,-7.0593,-7.0108,-6.9209,-6.8179,-6.7597,-6.7671,-6.7579,-6.7524,-6.7359,-6.7019,-6.668,-6.6442,-6.6517,-6.655,-6.7585,-6.8611,-6.9071,-6.9637,-7.0485,-7.1293,-7.1493,-7.1645,-7.1802,-7.1711,-7.1015,-7.0622,-7.067,-7.0959,-7.1373,-7.2264,-8.5733,-8.6599,-8.6035,-8.625,-8.6685,-8.5521,-8.5355,-8.5909,-8.5408,-8.5201,-8.5374,-8.546,-8.5571,-8.6449,-8.6709,-8.7304,-8.7898,-8.8047,-8.8084,-8.8084,-8.8084,-8.7935,-8.7712,-8.7304,-8.7192,-8.7861,-8.7598,-8.7572,-8.7757,-8.7628,-8.7369,-8.713,-8.744,-8.7038,-8.5729,-8.4442,-8.3246,-8.2035,-8.1311,-8.0835,-8.0938,-8.1636,-8.215,-8.2186,-8.2186,-8.2186,-8.2186,-8.2251,-8.2251,-8.2251,-8.2251,-8.1884,-8.1627,-8.1774,-8.2059,-8.1513,-8.2165,-8.2585,-8.2745,-8.2964,-8.3001,-8.2696,-8.2758,-8.1796,-8.043,-7.9853,-7.9019,-7.8002,-7.7304,-7.7279,-7.7155,-7.7249,-7.7085,-7.6752,-7.6687,-7.659,-7.6415,-7.6384,-7.6523,-7.6233,-7.5798,-7.5175,-7.4167,-7.337,-7.1531,-6.9973,-6.9588,-6.8982,-6.7919,-6.7266,-6.7359,-6.7359,-6.7247,-6.6867,-6.6416,-6.655,-6.6251,-6.6557,-6.6461,-6.7692,-6.8986,-6.9507,-7.0038,-7.0578,-7.1166,-7.1427,-7.1752,-7.2024,-7.1767,-7.0869,-7.0938,-7.1429,-7.1719,-7.2022,-7.3018,-8.479,-8.4972,-8.4533,-8.4819,-8.5328,-8.4412,-8.4424,-8.4903,-8.4405,-8.4632,-8.5238,-8.4781,-8.5065,-8.5794,-8.6561,-8.7267,-8.7935,-8.801,-8.8047,-8.8084,-8.8047,-8.7824,-8.7155,-8.6858,-8.6858,-8.6908,-8.682,-8.7016,-8.7746,-8.7693,-8.7598,-8.7785,-8.7689,-8.7099,-8.5891,-8.4283,-8.2665,-8.153,-8.074,-8.026,-8.0451,-8.1305,-8.2076,-8.2039,-8.1966,-8.2003,-8.2178,-8.2242,-8.2343,-8.2343,-8.2508,-8.2497,-8.2349,-8.2334,-8.236,-8.2412,-8.2548,-8.2758,-8.2782,-8.2904,-8.2782,-8.2597,-8.2659,-8.1883,-8.0555,-7.9878,-7.9081,-7.7892,-7.7279,-7.7279,-7.7092,-7.7368,-7.732,-7.6977,-7.6881,-7.7067,-7.6674,-7.6782,-7.7,-7.6674,-7.6203,-7.5587,-7.4609,-7.3486,-7.1965,-7.0444,-6.9527,-6.8826,-6.7855,-6.7352,-6.7097,-6.7076,-6.6961,-6.6391,-6.5796,-6.6084,-6.6178,-6.7024,-6.7405,-6.8448,-6.9443,-6.9966,-7.0486,-7.1194,-7.1517,-7.1778,-7.214,-7.2347,-7.2285,-7.1828,-7.2,-7.234,-7.2714,-7.3005,-7.3808,-8.4311,-8.5112,-8.4609,-8.4537,-8.4646,-8.372,-8.3448,-8.3808,-8.3843,-8.4073,-8.4495,-8.4731,-8.504,-8.5621,-8.6449,-8.7267,-8.7787,-8.7564,-8.7675,-8.7935,-8.8047,-8.7638,-8.6784,-8.6351,-8.6103,-8.5893,-8.5482,-8.6185,-8.7746,-8.7794,-8.7724,-8.778,-8.7922,-8.749,-8.619,-8.4506,-8.2692,-8.1343,-8.0205,-7.967,-7.9863,-8.1012,-8.1489,-8.1525,-8.1296,-8.1287,-8.1654,-8.1881,-8.2165,-8.246,-8.2633,-8.2696,-8.2696,-8.2696,-8.2721,-8.2819,-8.2819,-8.288,-8.2941,-8.3061,-8.2904,-8.2721,-8.2782,-8.1883,-8.0555,-7.9805,-7.9081,-7.7818,-7.7217,-7.7155,-7.6966,-7.7239,-7.7152,-7.7098,-7.7067,-7.7108,-7.7362,-7.747,-7.7434,-7.7326,-7.7072,-7.6311,-7.4935,-7.374,-7.2364,-7.1024,-6.9647,-6.8669,-6.7824,-6.7366,-6.7017,-6.6704,-6.6629,-6.6232,-6.5778,-6.6003,-6.646,-6.7221,-6.8154,-6.9185,-7.0,-7.0557,-7.1283,-7.2012,-7.2221,-7.2302,-7.2381,-7.2631,-7.2686,-7.2789,-7.2735,-7.2853,-7.3455,-7.4108,-7.4809,-8.3965,-8.5536,-8.4781,-8.4347,-8.4135,-8.3191,-8.2709,-8.2669,-8.3141,-8.3401,-8.3576,-8.4247,-8.4694,-8.5114,-8.5831,-8.6709,-8.749,-8.6932,-8.7267,-8.7613,-8.7947,-8.7539,-8.666,-8.593,-8.5472,-8.5731,-8.4838,-8.5143,-8.6925,-8.7332,-8.7477,-8.7898,-8.8466,-8.8087,-8.6706,-8.5248,-8.3344,-8.1771,-8.0114,-7.9547,-7.9926,-8.0388,-8.0755,-8.0755,-8.0257,-8.0419,-8.0898,-8.1416,-8.1846,-8.2351,-8.2647,-8.2819,-8.2819,-8.2904,-8.2964,-8.2964,-8.2964,-8.3024,-8.3121,-8.318,-8.3061,-8.2721,-8.2721,-8.1711,-8.0308,-7.9312,-7.8626,-7.7573,-7.7217,-7.7029,-7.6902,-7.6927,-7.6947,-7.6958,-7.6855,-7.6927,-7.7688,-7.805,-7.8122,-7.8014,-7.7941,-7.7072,-7.5696,-7.45,-7.3269,-7.1268,-6.9895,-6.8742,-6.7914,-6.733,-6.6917,-6.6453,-6.6159,-6.607,-6.59,-6.6069,-6.6686,-6.7544,-6.8535,-6.9669,-7.0522,-7.1304,-7.1926,-7.261,-7.2783,-7.2901,-7.2942,-7.2996,-7.3253,-7.3337,-7.3178,-7.3226,-7.3635,-7.453,-7.5393,-8.387,-8.4702,-8.4277,-8.3678,-8.307,-8.2903,-8.2417,-8.1939,-8.2311,-8.2463,-8.2665,-8.2802,-8.3102,-8.3682,-8.442,-8.5186,-8.6004,-8.6573,-8.6845,-8.719,-8.7535,-8.7285,-8.6407,-8.553,-8.5567,-8.565,-8.5106,-8.554,-8.6426,-8.6517,-8.719,-8.8196,-8.8466,-8.8463,-8.7863,-8.5913,-8.4673,-8.3281,-8.1343,-8.011,-7.994,-7.99,-7.9974,-7.9937,-7.9915,-8.0002,-8.0321,-8.0984,-8.1719,-8.2001,-8.2728,-8.3084,-8.3121,-8.3121,-8.318,-8.318,-8.318,-8.3121,-8.3024,-8.3061,-8.3001,-8.2659,-8.2597,-8.1623,-8.0147,-7.8614,-7.7745,-7.7488,-7.7155,-7.7029,-7.6947,-7.7225,-7.7129,-7.7067,-7.7108,-7.7362,-7.7941,-7.8702,-7.8774,-7.8922,-7.8922,-7.78,-7.6497,-7.5303,-7.4073,-7.1997,-7.008,-6.906,-6.8118,-6.7567,-6.694,-6.6527,-6.6462,-6.6386,-6.6764,-6.6774,-6.7427,-6.8137,-6.9129,-7.0187,-7.0946,-7.1705,-7.2409,-7.2893,-7.3253,-7.3837,-7.4232,-7.4336,-7.4198,-7.4108,-7.4004,-7.3786,-7.3647,-7.4671,-7.6047,-8.4289,-8.4574,-8.438,-8.3852,-8.318,-8.3402,-8.2867,-8.2175,-8.2377,-8.2458,-8.2353,-8.2508,-8.3201,-8.4114,-8.4397,-8.5287,-8.6449,-8.6608,-8.6767,-8.7036,-8.7369,-8.7156,-8.6426,-8.5881,-8.5816,-8.5345,-8.5132,-8.5213,-8.5839,-8.6598,-8.7433,-8.8227,-8.8383,-8.8448,-8.8331,-8.617,-8.4738,-8.3247,-8.1407,-7.983,-7.9338,-7.9228,-7.9228,-7.9253,-7.915,-7.9305,-7.9808,-8.065,-8.1529,-8.2032,-8.2908,-8.326,-8.3297,-8.3297,-8.3239,-8.3024,-8.3024,-8.2964,-8.2964,-8.2904,-8.2758,-8.2633,-8.246,-8.1708,-7.9974,-7.8405,-7.7378,-7.7341,-7.7056,-7.6902,-7.6846,-7.6868,-7.7316,-7.7434,-7.7543,-7.8412,-7.8847,-7.91,-7.9535,-7.9718,-7.9754,-7.8454,-7.7188,-7.5751,-7.4348,-7.235,-7.0722,-6.9667,-6.8752,-6.7939,-6.7304,-6.6598,-6.676,-6.6907,-6.753,-6.7964,-6.8656,-6.9405,-7.0096,-7.1015,-7.1463,-7.2119,-7.2789,-7.3737,-7.4718,-7.5184,-7.5527,-7.5422,-7.506,-7.5004,-7.4865,-7.4822,-7.4846,-7.5779,-7.69,-8.4445,-8.4527,-8.461,-8.4146,-8.3477,-8.3875,-8.329,-8.2287,-8.2643,-8.255,-8.2406,-8.2729,-8.3756,-8.4756,-8.462,-8.5323,-8.6915,-8.6528,-8.6685,-8.6988,-8.7284,-8.7099,-8.6561,-8.62,-8.5655,-8.5066,-8.5184,-8.5306,-8.5857,-8.6685,-8.7554,-8.8181,-8.8063,-8.8261,-8.7915,-8.6401,-8.4648,-8.2538,-8.0955,-7.9596,-7.8725,-7.8565,-7.8565,-7.85,-7.8438,-7.8518,-7.9205,-8.0302,-8.1327,-8.1811,-8.2834,-8.326,-8.3297,-8.3297,-8.3239,-8.3024,-8.2964,-8.2904,-8.2843,-8.2758,-8.2696,-8.2497,-8.2213,-8.1434,-8.0378,-7.8736,-7.7866,-7.805,-7.7797,-7.7531,-7.7291,-7.7202,-7.7611,-7.8014,-7.8195,-7.9318,-8.0187,-7.9969,-7.9754,-7.9719,-7.9576,-7.9071,-7.7701,-7.6192,-7.4508,-7.2653,-7.1375,-7.0344,-6.9446,-6.8648,-6.8148,-6.762,-6.7746,-6.792,-6.8335,-6.898,-6.9808,-7.0463,-7.1153,-7.167,-7.205,-7.2429,-7.3031,-7.4202,-7.5427,-7.5358,-7.4976,-7.5492,-7.5959,-7.5986,-7.5999,-7.6139,-7.6397,-7.7158,-7.7578,-8.4074,-8.4313,-8.4527,-8.4182,-8.3432,-8.384,-8.3286,-8.2287,-8.2645,-8.2623,-8.2333,-8.3079,-8.3576,-8.4046,-8.4801,-8.5207,-8.5503,-8.602,-8.6332,-8.6635,-8.6863,-8.7053,-8.666,-8.6224,-8.582,-8.5637,-8.5605,-8.561,-8.5793,-8.6685,-8.748,-8.8083,-8.7869,-8.8241,-8.7942,-8.6818,-8.4216,-8.2161,-8.0637,-7.9579,-7.8559,-7.8116,-7.8057,-7.8079,-7.8011,-7.8051,-7.8256,-7.9928,-8.0971,-8.1288,-8.2553,-8.326,-8.3297,-8.3297,-8.3239,-8.3084,-8.2964,-8.2843,-8.2758,-8.2696,-8.2571,-8.2223,-8.1728,-8.1223,-8.0681,-8.0057,-7.9553,-7.9096,-7.8719,-7.8668,-7.8644,-7.8695,-7.8412,-7.8666,-7.8883,-7.9426,-8.0114,-8.0152,-7.9936,-7.9792,-7.9432,-7.9035,-7.8026,-7.6482,-7.5263,-7.3475,-7.2035,-7.102,-7.0314,-6.953,-6.9357,-6.907,-6.914,-6.9187,-6.9256,-6.9946,-7.0808,-7.1187,-7.1636,-7.2084,-7.2429,-7.2843,-7.3342,-7.3703,-7.4564,-7.4579,-7.4837,-7.5701,-7.6391,-7.6817,-7.697,-7.7075,-7.7075,-7.7521,-7.7942,-8.3989,-8.4074,-8.4158,-8.41,-8.3982,-8.4146,-8.3459,-8.2445,-8.2866,-8.2851,-8.2389,-8.3217,-8.3945,-8.4599,-8.5308,-8.6037,-8.6377,-8.6605,-8.6685,-8.666,-8.6885,-8.6889,-8.6603,-8.6349,-8.595,-8.5657,-8.584,-8.631,-8.6522,-8.6863,-8.7505,-8.7932,-8.8035,-8.8526,-8.8287,-8.69,-8.4248,-8.2166,-8.0653,-7.9486,-7.8749,-7.844,-7.844,-7.8559,-7.9268,-7.9517,-7.9871,-8.0782,-8.1343,-8.1809,-8.2702,-8.3111,-8.3239,-8.3239,-8.318,-8.3061,-8.2904,-8.2782,-8.2534,-8.2508,-8.2407,-8.2132,-8.1553,-8.1048,-8.1048,-8.0277,-7.981,-7.9471,-7.9384,-7.936,-7.9013,-7.8876,-7.8774,-7.9209,-7.9607,-7.9933,-8.008,-8.0333,-8.0262,-8.0081,-7.9717,-7.9279,-7.8055,-7.6652,-7.5537,-7.4279,-7.2957,-7.1733,-7.103,-7.0476,-7.0199,-7.0084,-7.0118,-7.0291,-7.036,-7.105,-7.1808,-7.1981,-7.2119,-7.236,-7.2671,-7.3222,-7.3652,-7.3806,-7.3995,-7.446,-7.5184,-7.6153,-7.6705,-7.6908,-7.7342,-7.7727,-7.7894,-7.7955,-7.8236,-8.3733,-8.3819,-8.3733,-8.3904,-8.4278,-8.4194,-8.3743,-8.3079,-8.3474,-8.3516,-8.3088,-8.3889,-8.4617,-8.5382,-8.6053,-8.6575,-8.6912,-8.699,-8.6958,-8.6925,-8.6819,-8.6715,-8.6608,-8.6427,-8.6098,-8.5733,-8.6169,-8.6749,-8.6953,-8.7033,-8.8096,-8.8864,-8.8745,-8.896,-8.7895,-8.6656,-8.4424,-8.2619,-8.1269,-8.0157,-7.9496,-7.9216,-7.9449,-7.9741,-8.0318,-8.0622,-8.1,-8.1593,-8.1874,-8.2119,-8.2586,-8.3106,-8.318,-8.318,-8.3024,-8.2904,-8.2782,-8.2721,-8.2471,-8.238,-8.2316,-8.2178,-8.1819,-8.1452,-8.1195,-8.0727,-8.0561,-8.0283,-8.0011,-7.9767,-7.9598,-7.9713,-7.9788,-8.0223,-8.0259,-8.0513,-8.0551,-8.0659,-8.055,-8.0438,-7.9999,-7.9486,-7.8262,-7.6823,-7.4993,-7.3946,-7.2844,-7.1952,-7.1538,-7.1053,-7.0868,-7.0856,-7.0981,-7.1187,-7.1463,-7.1877,-7.2222,-7.2291,-7.2429,-7.2498,-7.2843,-7.3326,-7.3464,-7.3342,-7.3703,-7.4564,-7.5049,-7.5516,-7.6173,-7.688,-7.7418,-7.8077,-7.8411,-7.8471,-7.8494,-8.3314,-8.3595,-8.3227,-8.3576,-8.4052,-8.3989,-8.4039,-8.4083,-8.4163,-8.421,-8.4425,-8.5227,-8.5594,-8.5888,-8.6476,-8.6917,-8.7027,-8.7031,-8.7031,-8.6995,-8.6856,-8.6786,-8.6715,-8.6535,-8.6242,-8.6119,-8.6485,-8.7031,-8.7415,-8.8014,-8.9203,-8.9812,-8.9551,-8.8772,-8.71,-8.6013,-8.4698,-8.3404,-8.2488,-8.1636,-8.1039,-8.0514,-8.0688,-8.1107,-8.166,-8.1981,-8.2363,-8.2991,-8.3164,-8.2843,-8.2991,-8.3189,-8.3041,-8.2893,-8.2795,-8.2906,-8.2807,-8.2707,-8.2481,-8.2353,-8.2186,-8.2121,-8.1864,-8.1901,-8.2011,-8.1835,-8.1453,-8.0959,-8.1041,-8.1014,-8.0982,-8.0947,-8.0875,-8.0875,-8.0839,-8.0803,-8.084,-8.073,-8.0508,-8.0358,-8.0135,-7.9737,-7.8472,-7.6996,-7.4846,-7.3364,-7.2434,-7.1987,-7.1872,-7.1677,-7.1411,-7.1503,-7.1581,-7.1946,-7.2188,-7.236,-7.2602,-7.2671,-7.2671,-7.2671,-7.2671,-7.2877,-7.2912,-7.2927,-7.3376,-7.4118,-7.4343,-7.4533,-7.5742,-7.6903,-7.7647,-7.8287,-7.8622,-7.8788,-7.8657,-8.1923,-8.1958,-8.1786,-8.1958,-8.2439,-8.3479,-8.3745,-8.361,-8.3802,-8.417,-8.4694,-8.5453,-8.5783,-8.604,-8.6554,-8.7031,-8.7031,-8.7031,-8.7031,-8.7169,-8.6995,-8.6995,-8.6995,-8.6783,-8.6453,-8.6224,-8.6591,-8.7568,-8.8317,-8.8848,-8.9541,-9.0147,-8.9751,-8.8545,-8.7445,-8.6349,-8.5069,-8.4381,-8.3358,-8.2409,-8.2221,-8.2032,-8.2062,-8.259,-8.3301,-8.3845,-8.4154,-8.4853,-8.4809,-8.4166,-8.4276,-8.3925,-8.3519,-8.3224,-8.3003,-8.3361,-8.3508,-8.3382,-8.2904,-8.2458,-8.1885,-8.1922,-8.1885,-8.1818,-8.1818,-8.1751,-8.1615,-8.1478,-8.1445,-8.1234,-8.1127,-8.1056,-8.102,-8.0948,-8.0948,-8.0804,-8.073,-8.0508,-8.0283,-8.0054,-7.9864,-7.9316,-7.8264,-7.722,-7.5246,-7.3899,-7.3046,-7.2582,-7.2364,-7.2126,-7.185,-7.2012,-7.216,-7.2582,-7.2843,-7.274,-7.2877,-7.3015,-7.2877,-7.2671,-7.2671,-7.2671,-7.2981,-7.3222,-7.3429,-7.3636,-7.443,-7.5188,-7.6123,-7.7112,-7.7633,-7.8101,-7.8406,-7.849,-7.8525,-8.1232,-8.1148,-8.1012,-8.1012,-8.1324,-8.2581,-8.3258,-8.3696,-8.4173,-8.4849,-8.5458,-8.604,-8.6224,-8.6407,-8.6701,-8.7031,-8.7031,-8.7031,-8.7064,-8.7237,-8.7064,-8.7132,-8.7169,-8.7132,-8.6807,-8.6581,-8.701,-8.7948,-8.9452,-8.9516,-9.0321,-9.0803,-8.9825,-8.9165,-8.8363,-8.7414,-8.6356,-8.5737,-8.4719,-8.3846,-8.3553,-8.3298,-8.3405,-8.4238,-8.5005,-8.5663,-8.6315,-8.6749,-8.6929,-8.6261,-8.5588,-8.5124,-8.4396,-8.3945,-8.3687,-8.4018,-8.4064,-8.3868,-8.3417,-8.2664,-8.2199,-8.2194,-8.1798,-8.1615,-8.1615,-8.1547,-8.1478,-8.1445,-8.1375,-8.1234,-8.1092,-8.1092,-8.1021,-8.1021,-8.0876,-8.073,-8.0508,-8.0207,-7.9977,-7.9743,-7.9515,-7.8851,-7.8115,-7.6992,-7.566,-7.4721,-7.3807,-7.3265,-7.2687,-7.231,-7.2094,-7.2208,-7.2368,-7.2651,-7.2809,-7.2774,-7.2981,-7.3326,-7.3119,-7.2724,-7.2671,-7.2705,-7.3153,-7.3567,-7.374,-7.4119,-7.5154,-7.5947,-7.6657,-7.7091,-7.7386,-7.7754,-7.8101,-7.8186,-7.8272,-8.1127,-8.1077,-8.0907,-8.0751,-8.0957,-8.1591,-8.2978,-8.4828,-8.5398,-8.6077,-8.6848,-8.6701,-8.6738,-8.6921,-8.7031,-8.7031,-8.7031,-8.7031,-8.7132,-8.7268,-8.72,-8.7268,-8.7335,-8.7335,-8.7321,-8.7526,-8.7841,-8.8589,-9.0528,-9.034,-9.1066,-9.1592,-9.0228,-8.9641,-8.9091,-8.8543,-8.7554,-8.6604,-8.5842,-8.508,-8.4682,-8.4282,-8.4791,-8.5664,-8.6502,-8.7122,-8.7669,-8.8143,-8.7849,-8.7188,-8.6449,-8.5976,-8.55,-8.4913,-8.4725,-8.4578,-8.4405,-8.4268,-8.4019,-8.3189,-8.2538,-8.2391,-8.1987,-8.1729,-8.1547,-8.1445,-8.1375,-8.1305,-8.1271,-8.1163,-8.1092,-8.1021,-8.0948,-8.0876,-8.0656,-8.0508,-8.0171,-7.9977,-7.9743,-7.9507,-7.9231,-7.867,-7.8002,-7.6982,-7.6104,-7.5475,-7.445,-7.3473,-7.2904,-7.2105,-7.2035,-7.2251,-7.236,-7.2636,-7.2689,-7.2708,-7.3121,-7.3447,-7.3155,-7.2845,-7.2793,-7.3084,-7.3774,-7.4188,-7.4085,-7.4636,-7.5844,-7.6533,-7.6982,-7.7313,-7.7313,-7.749,-7.7841,-7.7928,-7.7928,-7.9623,-7.974,-7.9705,-7.9787,-8.003,-8.0856,-8.2359,-8.4207,-8.4735,-8.5416,-8.6114,-8.6151,-8.6518,-8.6958,-8.7031,-8.7031,-8.7031,-8.71,-8.7335,-8.7402,-8.7468,-8.773,-8.7921,-8.7947,-8.8047,-8.8109,-8.8381,-8.8852,-8.9821,-9.0217,-9.0239,-9.0246,-8.9751,-8.9349,-8.9055,-8.8834,-8.7917,-8.7108,-8.6271,-8.5912,-8.5803,-8.5583,-8.6166,-8.6785,-8.8026,-8.8611,-8.9089,-9.0008,-8.9715,-8.9057,-8.8435,-8.7923,-8.6939,-8.5842,-8.5039,-8.5002,-8.4897,-8.4754,-8.4573,-8.381,-8.3012,-8.2649,-8.2178,-8.1742,-8.1452,-8.1234,-8.1163,-8.1092,-8.1128,-8.1021,-8.0948,-8.0948,-8.0803,-8.0582,-8.0322,-7.9982,-7.9708,-7.9391,-7.915,-7.8906,-7.8741,-7.8504,-7.7797,-7.7159,-7.6312,-7.5894,-7.5169,-7.4083,-7.3169,-7.2409,-7.1926,-7.2138,-7.221,-7.2399,-7.2553,-7.257,-7.3083,-7.346,-7.3239,-7.3292,-7.3688,-7.4084,-7.4531,-7.4929,-7.5188,-7.5809,-7.6706,-7.7154,-7.7223,-7.7223,-7.7223,-7.7402,-7.7579,-7.7667,-7.7667,-7.9311,-7.955,-7.9515,-7.9637,-8.0023,-8.0695,-8.2066,-8.3472,-8.3997,-8.4719,-8.571,-8.5783,-8.6224,-8.6921,-8.7031,-8.7031,-8.7031,-8.7031,-8.72,-8.7468,-8.7767,-8.7921,-8.8171,-8.8414,-8.8414,-8.8473,-8.8585,-8.8981,-8.9485,-8.985,-8.9904,-8.9873,-8.9089,-8.8545,-8.829,-8.7776,-8.7263,-8.6785,-8.6456,-8.6163,-8.6308,-8.6557,-8.6991,-8.7797,-8.9257,-8.9952,-9.0397,-9.1395,-9.1322,-9.0589,-8.9935,-8.9203,-8.8071,-8.6611,-8.5628,-8.5591,-8.5482,-8.5446,-8.5189,-8.4498,-8.3627,-8.2939,-8.2468,-8.1817,-8.1346,-8.0948,-8.0876,-8.0876,-8.0876,-8.0985,-8.0912,-8.0839,-8.0582,-8.0322,-7.9905,-7.9436,-7.9115,-7.8788,-7.8574,-7.8406,-7.8237,-7.8066,-7.7684,-7.7024,-7.6503,-7.5931,-7.5288,-7.4508,-7.3597,-7.2896,-7.2262,-7.2005,-7.209,-7.2175,-7.2361,-7.2649,-7.3113,-7.3523,-7.3714,-7.3871,-7.4439,-7.4699,-7.4944,-7.5687,-7.6533,-7.6947,-7.703,-7.7189,-7.7223,-7.7133,-7.7133,-7.7223,-7.7313,-7.7313,-7.7402,-7.9786,-8.013,-7.9982,-8.0175,-8.0695,-8.0948,-8.1845,-8.2988,-8.327,-8.4315,-8.5563,-8.5783,-8.6224,-8.6921,-8.7031,-8.7031,-8.7031,-8.7031,-8.7132,-8.7335,-8.76,-8.7858,-8.8171,-8.8354,-8.8473,-8.8592,-8.8666,-8.8772,-8.9212,-8.9313,-8.9344,-8.9646,-8.8138,-8.7413,-8.7231,-8.6319,-8.5842,-8.5987,-8.613,-8.6238,-8.6235,-8.6593,-8.7389,-8.8495,-8.9807,-9.0861,-9.1425,-9.1906,-9.2311,-9.1507,-9.0739,-9.0045,-8.8582,-8.734,-8.6575,-8.6064,-8.588,-8.5806,-8.5658,-8.5076,-8.4424,-8.3664,-8.2903,-8.2105,-8.1525,-8.0948,-8.0803,-8.0656,-8.073,-8.073,-8.0692,-8.0397,-8.0171,-7.975,-7.9356,-7.8952,-7.8622,-7.8462,-7.857,-7.8398,-7.8311,-7.8154,-7.7544,-7.6967,-7.6651,-7.6059,-7.5493,-7.4912,-7.4207,-7.3536,-7.2956,-7.2395,-7.2151,-7.2267,-7.2628,-7.288,-7.3174,-7.3536,-7.4014,-7.4389,-7.4992,-7.5104,-7.5166,-7.6011,-7.6947,-7.6961,-7.7099,-7.7133,-7.7043,-7.7043,-7.6953,-7.6918,-7.7009,-7.7043,-7.7043,-7.9905,-8.0207,-8.0472,-8.0694,-8.1021,-8.1198,-8.1811,-8.2679,-8.2888,-8.4044,-8.56,-8.5857,-8.6261,-8.6962,-8.7036,-8.7036,-8.6925,-8.6925,-8.72,-8.7298,-8.7497,-8.7757,-8.8134,-8.8316,-8.8533,-8.865,-8.8629,-8.8405,-8.8329,-8.8191,-8.7992,-8.7684,-8.6569,-8.6132,-8.5917,-8.4864,-8.4646,-8.508,-8.5517,-8.5915,-8.6054,-8.7257,-8.8386,-8.9084,-9.007,-9.1461,-9.2021,-9.2022,-9.2388,-9.2167,-9.1581,-9.0408,-8.8647,-8.7629,-8.679,-8.6169,-8.5948,-8.5948,-8.5837,-8.5583,-8.5001,-8.4344,-8.3618,-8.2674,-8.1878,-8.1199,-8.0766,-8.0618,-8.0508,-8.0508,-8.0433,-8.0095,-7.975,-7.9276,-7.8941,-7.856,-7.817,-7.8381,-7.8588,-7.8534,-7.8534,-7.8044,-7.752,-7.7099,-7.6815,-7.6474,-7.6163,-7.5612,-7.4941,-7.4354,-7.3923,-7.3311,-7.2576,-7.2644,-7.3006,-7.3583,-7.415,-7.433,-7.4805,-7.5204,-7.5662,-7.5766,-7.5991,-7.6582,-7.7154,-7.7099,-7.6918,-7.6918,-7.6828,-7.6862,-7.6771,-7.6771,-7.6645,-7.6679,-7.6679,-7.9246,-7.9575,-8.0117,-8.0659,-8.1056,-8.1305,-8.2029,-8.3045,-8.3296,-8.4381,-8.591,-8.6093,-8.6459,-8.7154,-8.7227,-8.6969,-8.6859,-8.6715,-8.6856,-8.7095,-8.7365,-8.7563,-8.7884,-8.8195,-8.8376,-8.8533,-8.8316,-8.8072,-8.7693,-8.7335,-8.7169,-8.6705,-8.5797,-8.4889,-8.4569,-8.3917,-8.3628,-8.4246,-8.4719,-8.5373,-8.606,-8.7554,-8.8613,-8.9273,-9.0589,-9.1947,-9.2132,-9.217,-9.2316,-9.1912,-9.0959,-8.9968,-8.8429,-8.726,-8.6495,-8.6093,-8.5909,-8.5909,-8.5909,-8.5801,-8.5359,-8.4701,-8.4263,-8.3322,-8.2224,-8.1511,-8.0717,-8.0569,-8.0394,-8.0358,-8.013,-7.9864,-7.9436,-7.8952,-7.8946,-7.8833,-7.8796,-7.8944,-7.9026,-7.9026,-7.8819,-7.8245,-7.7685,-7.6965,-7.6679,-7.6334,-7.6088,-7.5899,-7.5425,-7.5052,-7.4687,-7.4356,-7.3713,-7.3477,-7.3874,-7.4619,-7.5432,-7.5574,-7.5676,-7.6069,-7.6522,-7.6587,-7.6884,-7.6918,-7.6918,-7.6918,-7.6828,-7.6736,-7.6645,-7.6587,-7.6587,-7.6587,-7.6495,-7.6436,-7.6539,-7.853,-7.8955,-7.9643,-8.0368,-8.1091,-8.1305,-8.2318,-8.3698,-8.3881,-8.4899,-8.6429,-8.6502,-8.6939,-8.7268,-8.7414,-8.6939,-8.6611,-8.6538,-8.6644,-8.6749,-8.7027,-8.7365,-8.7628,-8.7821,-8.8072,-8.8195,-8.8134,-8.7947,-8.7693,-8.7298,-8.6885,-8.6419,-8.5435,-8.4231,-8.3837,-8.3293,-8.297,-8.3881,-8.4572,-8.5518,-8.6648,-8.7887,-8.8655,-8.9751,-9.0956,-9.1982,-9.2169,-9.217,-9.228,-9.1619,-9.0483,-8.9419,-8.8429,-8.7297,-8.6456,-8.5982,-8.5797,-8.5797,-8.5797,-8.5761,-8.5211,-8.4737,-8.4444,-8.3822,-8.2757,-8.1848,-8.1019,-8.0447,-8.0274,-8.0054,-7.9786,-7.9471,-7.9069,-7.889,-7.9008,-7.9193,-7.9498,-7.9603,-7.9638,-7.9638,-7.9166,-7.8557,-7.7755,-7.7124,-7.6607,-7.6224,-7.5933,-7.5805,-7.5608,-7.5337,-7.5067,-7.5168,-7.5033,-7.4931,-7.4999,-7.5506,-7.6386,-7.6623,-7.669,-7.7086,-7.7278,-7.7051,-7.6827,-7.6587,-7.6587,-7.685,-7.6621,-7.6461,-7.6402,-7.6402,-7.6402,-7.6402,-7.6495,-7.647,-7.6522,-7.8994,-7.968,-7.9861,-8.0472,-8.1441,-8.1305,-8.2424,-8.4049,-8.3846,-8.5009,-8.6647,-8.6897,-8.6861,-8.6648,-8.6648,-8.6393,-8.6429,-8.6356,-8.6465,-8.6679,-8.6749,-8.7095,-8.7365,-8.7497,-8.7628,-8.7757,-8.7821,-8.7693,-8.7497,-8.72,-8.6995,-8.6815,-8.5211,-8.43,-8.4012,-8.3326,-8.2749,-8.3733,-8.4533,-8.544,-8.7195,-8.8217,-8.8765,-8.9752,-9.074,-9.1801,-9.2352,-9.2133,-9.2316,-9.1949,-9.0885,-8.9676,-8.8615,-8.7554,-8.6677,-8.5869,-8.5685,-8.5608,-8.5608,-8.5608,-8.5129,-8.4973,-8.4679,-8.4241,-8.3216,-8.2342,-8.1406,-8.0363,-8.0078,-7.9743,-7.9471,-7.8987,-7.8644,-7.9059,-7.9228,-7.9809,-8.0189,-8.0327,-8.0396,-8.0268,-8.0003,-7.9187,-7.8142,-7.7417,-7.676,-7.6401,-7.5838,-7.5709,-7.5676,-7.5574,-7.5473,-7.5676,-7.5879,-7.6386,-7.6487,-7.6521,-7.7096,-7.7401,-7.7468,-7.7329,-7.7188,-7.7108,-7.6828,-7.648,-7.6743,-7.6982,-7.6718,-7.6182,-7.6216,-7.6216,-7.6216,-7.6216,-7.6402,-7.6607,-7.6726]}]]